[[{"header":{"parameterUnit":"m.s-1","parameterCategory":1,"la1":30.6,"la2":28.766,"lo1":-90.7593,"lo2":-88.6598,"dy":0.0162,"dx":0.0183,"nx":116,"ny":114,"refTime":"2023-10-06T12:00:00:Z","depth":0,"parameterNumber":2,"parameterNumberName":"U-component_of_WINDS"},"data":[0.0,0.0,0.0,0.0,0.0,0.0,0.0,0.0,0.0,0.0,0.0,0.0,0.0,0.0,0.0,0.0,0.0,0.0,0.0,0.0,0.0,0.0,0.0,0.0,0.0,0.0,0.0,0.0,0.0,0.0,0.0,0.0,0.0,0.0,0.0,0.0,0.0,0.0,0.0,0.0,0.0,0.0,0.0,0.0,0.0,0.0,0.0,0.0,0.0,0.0,0.0,0.0,0.0,0.0,0.0,0.0,0.0,0.0,0.0,0.0,0.0,0.0,0.0,0.0,0.0,0.0,0.0,0.0,0.0,0.0,0.0,0.0,0.0,0.0,0.0,0.0,0.0,0.0,0.0,0.0,0.0,0.0,0.0,0.0,0.0,0.0,0.0,0.0,0.0,0.0,0.0,0.0,0.0,0.0,0.0,0.0,0.0,0.0,0.0,0.0,0.0,0.0,0.0,0.0,0.0,0.0,0.0,0.0,0.0,0.0,0.0,0.0,0.0,0.0,0.0,0.0,0.0,0.0,0.0,0.0,0.0,0.0,0.0,0.0,0.0,0.0,0.0,0.0,0.0,0.0,0.0,0.0,0.0,0.0,0.0,0.0,0.0,0.0,0.0,0.0,0.0,0.0,0.0,0.0,0.0,0.0,0.0,0.0,0.0,0.0,0.0,0.0,0.0,0.0,0.0,0.0,0.0,0.0,0.0,0.0,0.0,0.0,0.0,0.0,0.0,0.0,0.0,0.0,0.0,0.0,0.0,0.0,0.0,0.0,0.0,0.0,0.0,0.0,0.0,0.0,0.0,0.0,0.0,0.0,0.0,0.0,0.0,0.0,0.0,0.0,0.0,0.0,0.0,0.0,0.0,0.0,0.0,0.0,0.0,0.0,0.0,0.0,0.0,0.0,0.0,0.0,0.0,0.0,0.0,0.0,0.0,0.0,0.0,0.0,0.0,0.0,0.0,0.0,0.0,0.0,0.0,0.0,0.0,0.0,0.0,0.0,0.0,0.0,0.0,0.0,0.0,0.0,0.0,0.0,0.0,0.0,0.0,0.0,0.0,0.0,0.0,0.0,0.0,0.0,0.0,0.0,0.0,0.0,0.0,0.0,0.0,0.0,0.0,0.0,0.0,0.0,0.0,0.0,0.0,0.0,0.0,0.0,0.0,0.0,0.0,0.0,0.0,0.0,0.0,0.0,0.0,0.0,0.0,0.0,0.0,0.0,0.0,0.0,0.0,0.0,0.0,0.0,0.0,0.0,0.0,0.0,0.0,0.0,0.0,0.0,0.0,0.0,0.0,0.0,0.0,0.0,0.0,0.0,0.0,0.0,0.0,0.0,0.0,0.0,0.0,0.0,0.0,0.0,0.0,0.0,0.0,0.0,0.0,0.0,0.0,0.0,0.0,0.0,0.0,0.0,0.0,0.0,0.0,0.0,0.0,0.0,0.0,0.0,0.0,0.0,0.0,0.0,0.0,0.0,0.0,0.0,0.0,0.0,0.0,0.0,0.0,0.0,0.0,0.0,0.0,0.0,0.0,0.0,0.0,0.0,0.0,0.0,0.0,0.0,0.0,0.0,0.0,0.0,0.0,0.0,0.0,0.0,0.0,0.0,0.0,0.0,0.0,0.0,0.0,0.0,0.0,0.0,0.0,0.0,0.0,0.0,0.0,0.0,0.0,0.0,0.0,0.0,0.0,0.0,0.0,0.0,0.0,0.0,0.0,0.0,0.0,0.0,0.0,0.0,0.0,0.0,0.0,0.0,0.0,0.0,0.0,0.0,0.0,0.0,0.0,0.0,0.0,0.0,0.0,0.0,0.0,0.0,0.0,0.0,0.0,0.0,0.0,0.0,0.0,0.0,0.0,0.0,0.0,0.0,0.0,0.0,0.0,0.0,0.0,0.0,0.0,0.0,0.0,0.0,0.0,0.0,0.0,0.0,0.0,0.0,0.0,0.0,0.0,0.0,0.0,0.0,0.0,0.0,0.0,0.0,0.0,0.0,0.0,0.0,0.0,0.0,0.0,0.0,0.0,0.0,0.0,0.0,0.0,0.0,0.0,0.0,0.0,0.0,0.0,0.0,0.0,0.0,0.0,0.0,0.0,0.0,0.0,0.0,0.0,0.0,0.0,0.0,0.0,0.0,0.0,0.0,0.0,0.0,0.0,0.0,0.0,0.0,0.0,0.0,0.0,0.0,0.0,0.0,0.0,0.0,0.0,0.0,0.0,0.0,0.0,0.0,0.0,0.0,0.0,0.0,0.0,0.0,0.0,0.0,0.0,0.0,0.0,0.0,0.0,0.0,0.0,0.0,0.0,0.0,0.0,0.0,0.0,0.0,0.0,0.0,0.0,0.0,0.0,0.0,0.0,0.0,0.0,0.0,0.0,0.0,0.0,0.0,0.0,0.0,0.0,0.0,0.0,0.0,0.0,0.0,0.0,0.0,0.0,0.0,0.0,0.0,0.0,0.0,0.0,0.0,0.0,0.0,0.0,0.0,0.0,0.0,0.0,0.0,0.0,0.0,0.0,0.0,0.0,0.0,0.0,0.0,0.0,0.0,0.0,0.0,0.0,0.0,0.0,0.0,0.0,0.0,0.0,0.0,0.0,0.0,0.0,0.0,0.0,0.0,0.0,0.0,0.0,0.0,0.0,0.0,0.0,0.0,0.0,0.0,0.0,0.0,0.0,0.0,0.0,0.0,0.0,0.0,0.0,0.0,0.0,0.0,0.0,0.0,0.0,0.0,0.0,0.0,0.0,0.0,0.0,0.0,0.0,0.0,0.0,0.0,0.0,0.0,0.0,0.0,0.0,0.0,0.0,0.0,0.0,0.0,0.0,0.0,0.0,0.0,0.0,0.0,0.0,0.0,0.0,0.0,0.0,0.0,0.0,0.0,0.0,0.0,0.0,0.0,0.0,0.0,0.0,0.0,0.0,0.0,0.0,0.0,0.0,0.0,0.0,0.0,0.0,0.0,0.0,0.0,0.0,0.0,0.0,0.0,0.0,0.0,0.0,0.0,0.0,0.0,0.0,0.0,0.0,0.0,0.0,0.0,0.0,0.0,0.0,0.0,0.0,0.0,0.0,0.0,0.0,0.0,0.0,0.0,0.0,0.0,0.0,0.0,0.0,0.0,0.0,0.0,0.0,0.0,0.0,0.0,0.0,0.0,0.0,0.0,0.0,0.0,0.0,0.0,0.0,0.0,0.0,0.0,0.0,0.0,0.0,0.0,0.0,0.0,0.0,0.0,0.0,0.0,0.0,0.0,0.0,0.0,0.0,0.0,0.0,0.0,0.0,0.0,0.0,0.0,0.0,0.0,0.0,0.0,0.0,0.0,0.0,0.0,0.0,0.0,0.0,0.0,0.0,0.0,0.0,0.0,0.0,0.0,0.0,0.0,0.0,0.0,0.0,0.0,0.0,0.0,0.0,0.0,0.0,0.0,0.0,0.0,0.0,0.0,0.0,0.0,0.0,0.0,0.0,0.0,0.0,0.0,0.0,0.0,0.0,0.0,0.0,0.0,0.0,0.0,0.0,0.0,0.0,0.0,0.0,0.0,0.0,0.0,0.0,0.0,0.0,0.0,0.0,0.0,0.0,0.0,0.0,0.0,0.0,0.0,0.0,0.0,0.0,0.0,0.0,0.0,0.0,0.0,0.0,0.0,0.0,0.0,0.0,0.0,0.0,0.0,0.0,0.0,0.0,0.0,0.0,0.0,0.0,0.0,0.0,0.0,0.0,0.0,0.0,0.0,0.0,0.0,0.0,0.0,0.0,0.0,0.0,0.0,0.0,0.0,0.0,0.0,0.0,0.0,0.0,0.0,0.0,0.0,0.0,0.0,0.0,0.0,0.0,0.0,0.0,0.0,0.0,0.0,0.0,0.0,0.0,0.0,0.0,0.0,0.0,0.0,0.0,0.0,0.0,0.0,0.0,0.0,0.0,0.0,0.0,0.0,0.0,0.0,0.0,0.0,0.0,0.0,0.0,0.0,0.0,0.0,0.0,0.0,0.0,0.0,0.0,0.0,0.0,0.0,0.0,0.0,0.0,0.0,0.0,0.0,0.0,0.0,0.0,0.0,0.0,0.0,0.0,0.0,0.0,0.0,0.0,0.0,0.0,0.0,0.0,0.0,0.0,0.0,0.0,0.0,0.0,0.0,0.0,0.0,0.0,0.0,0.0,0.0,0.0,0.0,0.0,0.0,0.0,0.0,0.0,0.0,0.0,0.0,0.0,0.0,0.0,0.0,0.0,0.0,0.0,0.0,0.0,0.0,0.0,0.0,0.0,0.0,0.0,0.0,0.0,0.0,0.0,0.0,0.0,0.0,0.0,0.0,0.0,0.0,0.0,0.0,0.0,0.0,0.0,0.0,0.0,0.0,0.0,0.0,0.0,0.0,0.0,0.0,0.0,0.0,0.0,0.0,0.0,0.0,0.0,0.0,0.0,0.0,0.0,0.0,0.0,0.0,0.0,0.0,0.0,0.0,0.0,0.0,0.0,0.0,0.0,0.0,0.0,0.0,0.0,0.0,0.0,0.0,0.0,0.0,0.0,0.0,0.0,0.0,0.0,0.0,0.0,0.0,0.0,0.0,0.0,0.0,0.0,0.0,0.0,0.0,0.0,0.0,0.0,0.0,0.0,0.0,0.0,0.0,0.0,0.0,0.0,0.0,0.0,0.0,0.0,0.0,0.0,0.0,0.0,0.0,0.0,0.0,0.0,0.0,0.0,0.0,0.0,0.0,0.0,0.0,0.0,0.0,0.0,0.0,0.0,0.0,0.0,0.0,0.0,0.0,0.0,0.0,0.0,0.0,0.0,0.0,0.0,0.0,0.0,0.0,0.0,0.0,0.0,0.0,0.0,0.0,0.0,0.0,0.0,0.0,0.0,0.0,0.0,0.0,0.0,0.0,0.0,0.0,0.0,0.0,0.0,0.0,0.0,0.0,0.0,0.0,0.0,0.0,0.0,0.0,0.0,0.0,0.0,0.0,0.0,0.0,0.0,0.0,0.0,0.0,0.0,0.0,0.0,0.0,0.0,0.0,0.0,0.0,0.0,0.0,0.0,0.0,0.0,0.0,0.0,0.0,0.0,0.0,0.0,0.0,0.0,0.0,0.0,0.0,0.0,0.0,0.0,0.0,0.0,0.0,0.0,0.0,0.0,0.0,0.0,0.0,0.0,0.0,0.0,0.0,0.0,0.0,0.0,0.0,0.0,0.0,0.0,0.0,0.0,0.0,0.0,0.0,0.0,0.0,0.0,0.0,0.0,0.0,0.0,0.0,0.0,0.0,0.0,0.0,0.0,0.0,0.0,0.0,0.0,0.0,0.0,0.0,0.0,0.0,0.0,0.0,0.0,0.0,0.0,0.0,0.0,0.0,0.0,0.0,0.0,0.0,0.0,0.0,0.0,0.0,0.0,0.0,0.0,0.0,0.0,0.0,0.0,0.0,0.0,0.0,0.0,0.0,0.0,0.0,0.0,0.0,0.0,0.0,0.0,0.0,0.0,0.0,0.0,0.0,0.0,0.0,0.0,0.0,0.0,0.0,0.0,0.0,0.0,0.0,0.0,0.0,0.0,0.0,0.0,0.0,0.0,0.0,0.0,0.0,0.0,0.0,0.0,0.0,0.0,0.0,0.0,0.0,0.0,0.0,0.0,0.0,0.0,0.0,0.0,0.0,0.0,0.0,0.0,0.0,0.0,0.0,0.0,0.0,0.0,0.0,0.0,0.0,0.0,0.0,0.0,0.0,0.0,0.0,0.0,0.0,0.0,0.0,0.0,0.0,0.0,0.0,0.0,0.0,0.0,0.0,0.0,0.0,0.0,0.0,0.0,0.0,0.0,0.0,0.0,0.0,0.0,0.0,0.0,0.0,0.0,0.0,0.0,0.0,0.0,0.0,0.0,0.0,0.0,0.0,0.0,0.0,0.0,0.0,0.0,0.0,0.0,0.0,0.0,0.0,0.0,0.0,0.0,0.0,0.0,0.0,0.0,0.0,0.0,0.0,0.0,0.0,0.0,0.0,0.0,0.0,0.0,0.0,0.0,0.0,0.0,0.0,0.0,0.0,0.0,0.0,0.0,0.0,0.0,0.0,0.0,0.0,-3.2692,-3.2238,0.0,0.0,0.0,0.0,0.0,0.0,0.0,0.0,0.0,0.0,0.0,0.0,0.0,0.0,0.0,0.0,0.0,0.0,0.0,0.0,0.0,0.0,0.0,0.0,0.0,0.0,0.0,0.0,0.0,0.0,0.0,0.0,0.0,0.0,0.0,0.0,0.0,-3.7974,-3.7974,-3.7974,-3.7974,-3.7388,-3.7584,-3.8431,0.0,0.0,0.0,0.0,0.0,0.0,0.0,0.0,0.0,0.0,0.0,0.0,0.0,0.0,0.0,0.0,0.0,0.0,0.0,0.0,0.0,0.0,0.0,0.0,0.0,0.0,0.0,0.0,0.0,0.0,0.0,0.0,0.0,0.0,0.0,0.0,0.0,0.0,0.0,0.0,0.0,0.0,0.0,0.0,0.0,0.0,0.0,0.0,0.0,0.0,0.0,0.0,0.0,0.0,0.0,0.0,0.0,0.0,0.0,0.0,0.0,0.0,0.0,0.0,0.0,0.0,0.0,0.0,0.0,0.0,-3.1903,-3.1633,0.0,0.0,0.0,0.0,0.0,0.0,0.0,0.0,0.0,0.0,0.0,0.0,0.0,0.0,0.0,0.0,0.0,0.0,0.0,0.0,0.0,0.0,0.0,0.0,-3.7364,-3.7364,-3.7364,-3.7495,0.0,0.0,0.0,0.0,0.0,0.0,0.0,-3.7814,-3.7708,-3.7708,-3.7708,-3.7708,-3.7655,-3.6881,-3.7066,-3.7974,-3.7548,0.0,0.0,0.0,0.0,0.0,0.0,0.0,0.0,0.0,0.0,0.0,0.0,0.0,0.0,0.0,0.0,0.0,0.0,0.0,0.0,0.0,0.0,0.0,0.0,0.0,0.0,0.0,0.0,0.0,0.0,0.0,0.0,0.0,0.0,0.0,0.0,0.0,0.0,0.0,0.0,0.0,0.0,0.0,0.0,0.0,0.0,0.0,0.0,0.0,0.0,0.0,0.0,0.0,0.0,0.0,0.0,0.0,0.0,0.0,0.0,0.0,0.0,0.0,-3.1377,-3.1377,-3.1377,-3.1377,-3.1377,-3.1377,-3.1377,-3.1377,-3.1377,-3.1377,0.0,0.0,0.0,0.0,0.0,0.0,0.0,0.0,0.0,0.0,0.0,0.0,0.0,0.0,0.0,0.0,0.0,0.0,0.0,0.0,0.0,-3.4781,-3.4891,-3.4891,-3.4891,-3.5333,0.0,0.0,0.0,0.0,0.0,0.0,-3.7974,-3.6989,-3.6449,-3.6449,-3.6449,-3.6449,-3.6449,-3.7334,-3.7868,-3.7921,-3.5827,-3.4891,-3.4947,0.0,0.0,0.0,0.0,0.0,0.0,0.0,0.0,0.0,0.0,0.0,0.0,0.0,0.0,0.0,0.0,0.0,0.0,0.0,0.0,0.0,0.0,0.0,0.0,0.0,0.0,0.0,0.0,0.0,0.0,0.0,0.0,0.0,0.0,0.0,0.0,0.0,0.0,0.0,0.0,0.0,-3.5152,-3.5293,0.0,0.0,0.0,0.0,0.0,0.0,0.0,0.0,0.0,0.0,0.0,0.0,0.0,-3.1699,-3.1699,-3.1506,-3.1377,-3.1377,-3.1377,-3.1377,-3.1377,-3.1377,-3.1377,-3.1377,-3.1377,0.0,-3.1377,-3.1377,0.0,0.0,0.0,0.0,0.0,0.0,0.0,0.0,0.0,0.0,0.0,0.0,0.0,0.0,0.0,0.0,0.0,0.0,0.0,0.0,0.0,-3.4,-3.4391,-3.4391,-3.4391,-3.4614,-3.5168,-3.5168,0.0,0.0,0.0,-3.5991,-3.5991,-3.5443,-3.5168,-3.5168,-3.5168,-3.5168,-3.5168,-3.5057,-3.5002,-3.4947,-3.3233,-3.3572,-3.5388,-3.5223,0.0,0.0,0.0,0.0,0.0,0.0,0.0,0.0,0.0,0.0,0.0,0.0,0.0,0.0,0.0,0.0,0.0,0.0,0.0,0.0,0.0,0.0,0.0,0.0,0.0,0.0,0.0,0.0,0.0,0.0,0.0,0.0,0.0,0.0,0.0,0.0,0.0,0.0,0.0,-3.3237,-3.3562,-3.4348,-3.4075,-3.4487,0.0,0.0,0.0,0.0,0.0,0.0,0.0,0.0,0.0,-3.1442,-3.1377,-3.1377,-3.1377,-3.1377,-3.1377,-3.1377,-3.1377,-3.1377,-3.1377,-3.1377,-3.1377,-3.1377,-3.1377,-3.1377,-3.1377,-3.1377,-3.1377,-3.1377,0.0,0.0,0.0,0.0,-3.1377,-3.1377,0.0,0.0,0.0,0.0,0.0,0.0,0.0,0.0,0.0,0.0,0.0,0.0,-3.2342,-3.3006,-3.3494,-3.3494,-3.3494,-3.3628,-3.3944,-3.3944,0.0,-3.4391,-3.4391,-3.4391,-3.4391,-3.4112,-3.3776,-3.3494,-3.3776,-3.3944,-3.3944,-3.3402,-3.3119,-3.3063,-3.1903,-3.2685,-3.4803,-3.4224,-3.3944,-3.4,0.0,0.0,0.0,0.0,0.0,0.0,0.0,0.0,0.0,0.0,0.0,0.0,0.0,0.0,0.0,0.0,0.0,0.0,0.0,0.0,0.0,0.0,0.0,0.0,0.0,0.0,0.0,0.0,0.0,0.0,0.0,0.0,0.0,0.0,0.0,0.0,0.0,-3.2166,-3.2466,-3.3272,-3.2594,-3.2785,0.0,0.0,0.0,0.0,0.0,0.0,-3.1442,-3.2384,-3.2447,-3.1442,-3.1488,-3.1543,-3.1543,-3.1634,-3.1689,-3.1689,-3.1689,-3.1689,-3.1689,-3.1689,-3.1689,-3.1689,-3.1689,-3.1689,-3.1671,-3.1469,-3.1377,-3.1377,-3.1377,-3.1377,-3.1377,-3.1377,-3.1377,-3.1377,0.0,0.0,0.0,0.0,0.0,0.0,0.0,0.0,0.0,0.0,0.0,-3.1054,-3.1015,-3.1054,-3.1054,-3.1054,-3.1054,-3.1556,-3.2685,-3.2799,-3.3289,-3.4336,-3.4391,-3.4391,-3.4391,-3.3346,-3.2227,-3.1054,-3.2227,-3.2799,-3.2799,-3.3832,-3.4336,-3.428,-3.3119,-3.2076,-3.1228,-3.2285,-3.2799,-3.2913,-3.3944,0.0,0.0,0.0,0.0,0.0,0.0,0.0,0.0,0.0,0.0,0.0,0.0,0.0,0.0,0.0,0.0,0.0,0.0,0.0,0.0,0.0,0.0,0.0,0.0,0.0,0.0,0.0,0.0,0.0,0.0,0.0,0.0,0.0,0.0,0.0,0.0,0.0,0.0,-3.2038,-3.223,0.0,0.0,0.0,0.0,-3.3316,-3.2256,-3.1506,-3.1377,-3.1442,-3.1442,-3.1377,-3.1763,-3.1983,-3.1983,-3.2349,-3.2533,-3.2533,-3.2533,-3.2533,-3.2533,-3.2533,-3.2533,-3.2533,-3.2533,-3.2533,-3.2478,-3.1689,-3.1377,-3.1377,-3.1377,-3.1377,-3.1377,-3.1377,-3.1377,-3.1377,0.0,0.0,0.0,0.0,0.0,0.0,0.0,0.0,-3.0898,-3.0898,-3.0898,-3.0898,-3.0898,-3.0898,-3.0898,-3.0898,-3.0898,-3.1054,-3.1498,-3.1556,-3.173,-3.2113,-3.217,-3.217,-3.217,-3.173,-3.1344,-3.0898,-3.1344,-3.1556,-3.1576,-3.196,-3.217,-3.2113,-3.173,-3.1286,-3.0957,-3.1344,-3.1556,-3.1556,-3.1998,-3.1903,0.0,0.0,0.0,0.0,0.0,0.0,0.0,0.0,0.0,0.0,0.0,0.0,0.0,0.0,0.0,0.0,0.0,0.0,0.0,0.0,0.0,0.0,0.0,0.0,0.0,0.0,0.0,0.0,0.0,0.0,0.0,0.0,0.0,0.0,0.0,0.0,0.0,-3.1974,-3.2166,0.0,-3.2128,-3.1891,-3.1827,-3.2065,-3.1891,-3.1764,-3.1763,-3.1781,-3.1891,-3.2148,-3.2313,-3.2386,-3.2386,-3.2533,-3.2588,-3.2588,-3.2588,-3.2588,-3.2588,-3.2588,-3.2588,-3.2588,-3.2588,-3.2588,-3.257,-3.2276,-3.2166,-3.2166,-3.2166,-3.2166,-3.2166,-3.2166,-3.2166,-3.2166,0.0,0.0,0.0,0.0,0.0,0.0,0.0,0.0,-3.084,-3.0762,-3.082,-3.084,-3.0762,-3.082,-3.0898,-3.0898,-3.0898,-3.0898,-3.0898,-3.0898,-3.0898,-3.0898,-3.0898,-3.0898,-3.0898,-3.0898,-3.0898,-3.0898,-3.0898,-3.0898,-3.0898,-3.0898,-3.0898,-3.0898,-3.0898,-3.0898,-3.0898,-3.0898,-3.0898,-3.0898,-3.0898,-3.0898,-3.0918,0.0,0.0,0.0,0.0,0.0,0.0,0.0,0.0,0.0,0.0,0.0,0.0,0.0,0.0,0.0,0.0,0.0,0.0,0.0,0.0,0.0,0.0,0.0,0.0,0.0,0.0,0.0,0.0,0.0,0.0,0.0,0.0,0.0,0.0,-3.2422,-3.2549,-3.1974,-3.2102,-3.2038,-3.1442,-3.1718,-3.1857,-3.1598,-3.1921,-3.2189,-3.2184,-3.2203,-3.2331,-3.2588,-3.2735,-3.2808,-3.2808,-3.2936,-3.301,-3.301,-3.301,-3.301,-3.301,-3.301,-3.301,-3.301,-3.301,-3.301,-3.301,-3.301,-3.301,-3.2973,-3.2698,-3.2588,-3.2588,-3.2588,-3.2588,-3.2588,0.0,0.0,0.0,0.0,0.0,0.0,0.0,-3.0898,-3.0762,-3.045,-3.0704,-3.0762,-3.045,-3.0704,-3.0898,-3.0898,-3.0898,-3.0898,-3.0898,-3.0898,-3.0898,-3.0898,-3.0898,-3.0898,-3.0898,-3.0898,-3.0898,-3.0898,-3.0898,-3.0898,-3.0898,-3.0898,-3.0898,-3.0898,-3.0898,-3.0898,-3.0898,-3.0898,-3.0898,-3.0898,-3.0898,-3.0898,-3.0898,0.0,0.0,0.0,0.0,0.0,0.0,0.0,0.0,0.0,0.0,0.0,0.0,0.0,0.0,0.0,0.0,0.0,0.0,0.0,0.0,0.0,0.0,0.0,0.0,0.0,0.0,0.0,0.0,0.0,0.0,0.0,0.0,0.0,-3.2422,-3.2441,-3.2313,-3.1993,-3.1947,-3.1819,-3.1479,-3.1781,-3.2019,-3.2019,-3.2386,-3.2606,-3.2625,-3.2625,-3.2625,-3.2625,-3.3028,-3.3248,-3.3248,-3.3633,-3.3835,-3.3835,-3.3853,-3.3853,-3.3853,-3.3853,-3.3853,-3.3853,-3.3853,-3.3853,-3.3853,-3.3853,-3.3853,-3.378,-3.2955,-3.2625,-3.2625,-3.2625,-3.2625,-3.2625,0.0,0.0,0.0,0.0,0.0,0.0,0.0,-3.0898,-3.0762,-3.045,-3.0704,-3.0762,-3.045,-3.045,-3.0645,-3.0898,-3.0704,-3.0645,-3.0898,-3.0898,-3.0898,-3.0898,-3.0898,-3.0898,-3.0898,-3.0898,-3.0898,-3.0898,-3.0898,-3.0898,-3.0898,-3.0898,-3.0898,-3.0898,-3.0898,-3.0898,-3.0898,-3.0898,-3.0898,-3.0898,-3.0898,-3.0898,-3.0898,0.0,0.0,0.0,0.0,0.0,0.0,0.0,0.0,0.0,0.0,0.0,0.0,0.0,0.0,0.0,0.0,0.0,0.0,0.0,0.0,0.0,0.0,0.0,0.0,0.0,0.0,0.0,0.0,0.0,0.0,0.0,-3.3019,-3.2891,-3.2778,-3.2796,-3.2792,-3.2728,-3.273,-3.2654,-3.2324,-3.2368,-3.2441,-3.2441,-3.2533,-3.2735,-3.3028,-3.3046,-3.3193,-3.3468,-3.3596,-3.3651,-3.3651,-3.4037,-3.4238,-3.4238,-3.455,-3.4697,-3.4697,-3.4697,-3.4697,-3.4697,-3.4697,-3.4697,-3.4697,-3.4697,-3.4697,-3.4605,-3.3798,-3.3486,-3.3486,-3.3486,-3.3486,-3.3486,0.0,0.0,0.0,0.0,0.0,0.0,0.0,-3.082,-3.0704,-3.0274,-3.0587,-3.0762,-3.045,-3.0509,-3.0704,-3.0898,-3.0704,-3.0704,-3.0898,-3.0898,-3.0898,-3.0898,-3.0898,-3.0898,-3.0898,-3.0898,-3.0898,-3.0898,-3.0898,-3.0898,-3.0898,-3.0898,-3.0898,-3.0898,-3.0898,-3.0898,-3.0898,-3.0898,-3.0898,-3.0898,-3.0898,-3.0898,-3.0898,-3.0898,-3.0898,-3.0879,-3.0704,-3.0645,-3.0509,-3.0039,0.0,0.0,0.0,0.0,0.0,0.0,0.0,0.0,0.0,0.0,0.0,0.0,0.0,0.0,0.0,0.0,0.0,0.0,0.0,0.0,0.0,0.0,0.0,0.0,-3.3595,-3.3413,-3.3618,-3.3337,-3.3162,-3.3293,-3.3039,-3.2855,-3.2855,-3.3021,-3.3065,-3.2863,-3.3145,-3.3348,-3.345,-3.3468,-3.3651,-3.4055,-3.4055,-3.4147,-3.433,-3.455,-3.466,-3.466,-3.4917,-3.5027,-3.5027,-3.5027,-3.5027,-3.5027,-3.5027,-3.5027,-3.5027,-3.5027,-3.5027,0.0,0.0,0.0,0.0,0.0,-3.433,-3.4293,0.0,0.0,0.0,0.0,0.0,0.0,0.0,-3.0704,-3.0645,-3.0039,-3.047,-3.0704,-3.045,-3.0587,-3.0762,-3.0898,-3.082,-3.082,-3.0898,-3.0898,-3.0898,-3.0898,-3.0898,-3.0898,-3.0898,-3.0898,-3.0898,-3.0898,-3.0898,-3.0898,-3.0898,-3.0898,-3.0898,-3.0898,-3.0898,-3.0898,-3.0898,-3.0898,-3.0898,-3.0898,-3.0898,-3.0898,-3.0898,-3.0898,-3.0898,-3.0898,-3.084,-3.082,-3.0762,-3.0392,0.0,0.0,0.0,0.0,0.0,0.0,0.0,0.0,0.0,0.0,0.0,0.0,0.0,0.0,0.0,0.0,0.0,0.0,0.0,0.0,0.0,0.0,0.0,0.0,-3.4032,-3.4013,-3.4646,-3.3937,-3.3452,-3.3747,-3.3233,-3.3003,-3.3271,-3.3692,-3.3712,-3.3353,-3.3959,-3.4181,-3.3872,-3.3872,0.0,0.0,0.0,-3.466,-3.5027,-3.5082,-3.51,-3.51,-3.5137,-3.5174,-3.5174,-3.5174,-3.5174,-3.5174,-3.5174,-3.5174,-3.5174,-3.5174,-3.5174,-3.5155,-3.5064,-3.5027,-3.5027,-3.5027,-3.5027,-3.4972,0.0,0.0,0.0,0.0,0.0,0.0,0.0,-3.084,-3.0762,-3.0333,-3.0392,-3.045,-3.0392,-3.0039,-3.0098,-3.082,-3.0411,-3.0352,-3.084,-3.0898,-3.0898,-3.0898,-3.0898,-3.0898,-3.0898,-3.0898,-3.0898,-3.0898,-3.0898,-3.0898,-3.0898,-3.0898,-3.0898,-3.0898,-3.0898,-3.0898,-3.0898,-3.0898,-3.0898,-3.0898,-3.0898,-3.0898,-3.0898,-3.0898,-3.0898,-3.0879,-3.0567,-3.0509,-3.0392,-2.9863,-3.0189,-3.0792,-3.0347,-3.102,0.0,0.0,0.0,0.0,0.0,0.0,0.0,0.0,0.0,0.0,0.0,0.0,0.0,0.0,0.0,0.0,0.0,0.0,0.0,-3.463,-3.4459,-3.4364,-3.4823,-3.447,-3.4153,-3.4153,-3.4331,-3.4402,-3.4196,-3.4221,-3.4258,-3.419,-3.3988,-3.4015,-3.4275,-3.4293,-3.4477,-3.4899,-3.4917,-3.4954,-3.5027,-3.5339,-3.5504,-3.5504,-3.5834,0.0,-3.5981,-3.5981,-3.5981,-3.5981,-3.5981,-3.5981,-3.5981,-3.5981,-3.5981,-3.5925,-3.5284,-3.5027,-3.5027,-3.5027,-3.5027,-3.5027,0.0,0.0,0.0,0.0,0.0,0.0,0.0,-3.0762,-3.0762,-3.045,-3.0567,-3.0645,-3.0645,-3.0411,-3.0411,-3.084,-3.0587,-3.0528,-3.0898,-3.0898,-3.0898,-3.0898,-3.0898,-3.0898,-3.0898,-3.0898,-3.0898,-3.0898,-3.0898,-3.0898,-3.0898,-3.0898,-3.0898,-3.0898,-3.0898,-3.0898,-3.0898,-3.0898,-3.0898,-3.0898,-3.0898,-3.0898,-3.0898,-3.0898,-3.0898,-3.0898,-3.0704,-3.0645,-3.0587,-3.0274,-3.068,-3.1244,-3.1175,-3.1796,-3.2521,0.0,0.0,0.0,0.0,0.0,0.0,0.0,0.0,0.0,0.0,0.0,0.0,0.0,0.0,-3.4059,-3.432,0.0,-3.4361,-3.4846,-3.4888,-3.4967,-3.5177,-3.5196,-3.512,-3.491,-3.472,-3.4646,-3.4646,-3.4853,-3.4809,-3.4441,-3.4529,-3.4696,-3.4697,-3.4715,-3.4899,-3.532,-3.532,-3.543,-3.5614,-3.5815,-3.5907,-3.5907,-3.6109,-3.6201,-3.6201,-3.6201,-3.6201,-3.6201,-3.6201,-3.6201,-3.6201,-3.6201,-3.6201,-3.6164,-3.5779,-3.5614,-3.5614,-3.5614,-3.5614,-3.5595,0.0,0.0,0.0,0.0,0.0,0.0,0.0,-3.0704,-3.082,-3.0509,-3.0704,-3.082,-3.0898,-3.0762,-3.0704,-3.082,-3.084,-3.0898,-3.0898,-3.0898,-3.0898,-3.0898,-3.0898,-3.0898,-3.0898,-3.0898,-3.0898,-3.0898,-3.0898,-3.0898,-3.0898,-3.0898,-3.0898,-3.0898,-3.0898,-3.0898,-3.0898,-3.0898,-3.0898,-3.0898,-3.0898,-3.0898,-3.0898,-3.0898,-3.0898,-3.0898,-3.0898,-3.0898,-3.0898,-3.0918,-3.123,-3.1719,-3.2088,-3.2516,-3.2926,-3.3005,-3.2975,0.0,0.0,0.0,0.0,0.0,0.0,0.0,0.0,-3.3974,-3.3813,-3.3902,-3.4169,-3.4456,-3.4521,-3.4646,-3.4853,-3.4921,-3.5059,-3.5264,-3.5489,-3.5606,-3.5675,-3.5606,-3.5059,-3.4784,-3.499,-3.5341,-3.5237,-3.4667,-3.5112,-3.5336,-3.5119,-3.5137,-3.532,-3.5724,-3.5724,-3.5889,-3.6201,-3.6201,-3.6201,-3.6201,-3.6201,-3.6256,-3.6329,-3.6329,-3.6366,-3.6439,-3.6439,-3.6439,-3.6439,-3.6439,-3.6439,-3.6439,-3.6439,-3.6439,-3.6421,-3.6274,-3.6201,-3.6164,0.0,0.0,0.0,0.0,0.0,0.0,0.0,0.0,-3.0898,-3.082,-3.0645,-3.0567,-3.0879,-3.0352,-3.0098,-3.045,-3.0704,-3.0898,-3.0898,-3.0898,-3.0898,-3.0898,-3.0898,-3.0898,-3.0898,-3.0898,-3.0898,-3.0898,-3.0898,-3.0898,-3.0898,-3.0898,-3.0898,-3.0898,-3.0898,-3.0898,-3.0898,-3.0898,-3.0898,-3.0898,-3.0898,-3.0898,-3.0898,-3.0898,-3.0898,-3.0898,-3.0898,-3.0898,-3.0879,-3.0993,-3.1479,-3.2107,-3.2227,-3.2758,-3.3359,-3.3335,-3.3355,-3.3355,-3.3292,-3.3038,-3.2836,-3.2757,-3.2851,-3.316,0.0,-3.4003,-3.4221,-3.4259,-3.458,-3.4865,-3.4834,-3.4646,-3.4577,-3.4853,-3.437,-3.437,-3.5352,-3.499,-3.4921,-3.5811,-3.5879,-3.5743,-3.547,-3.5451,-3.5471,-3.5387,-3.5179,-3.5209,-3.5522,-3.5559,-3.5724,-3.6127,-3.6146,-3.6164,-3.6201,-3.6201,-3.6201,-3.6201,-3.6201,-3.6402,-3.6769,-3.6769,-3.6952,-3.7283,-3.7283,-3.7283,-3.7283,-3.7283,-3.7283,-3.7283,-3.7283,-3.7283,-3.7209,-3.6476,-3.6201,-3.6201,0.0,0.0,0.0,0.0,0.0,0.0,0.0,0.0,0.0,-3.0879,-3.0645,-3.0509,-3.0879,-3.0645,-3.0528,-3.0704,-3.082,-3.0898,-3.0898,-3.0898,-3.0898,-3.0898,-3.0898,-3.0898,-3.0898,-3.0898,-3.0898,-3.0898,-3.0898,-3.0898,-3.0898,-3.0898,-3.0898,-3.0898,-3.0898,-3.0898,-3.0898,-3.0898,-3.0898,-3.0898,-3.0898,-3.0898,-3.0898,-3.0898,-3.0898,-3.0898,-3.0898,-3.1055,0.0,-3.1028,-3.167,-3.2497,-3.2363,-3.2836,-3.3418,-3.3418,-3.3418,-3.3355,-3.3165,-3.304,-3.307,-3.3424,-3.353,-3.3765,-3.4585,-3.4524,-3.4383,-3.4383,-3.4515,-3.4508,-3.4301,-3.4508,-3.4577,-3.4301,-3.4577,-3.4853,-3.5127,-3.5264,-3.5635,-3.6298,-3.6406,-3.6269,-3.5904,-3.629,-3.6496,-3.6299,-3.6149,-3.6141,-3.6312,-3.611,-3.6036,-3.6201,-3.6201,-3.6201,-3.6201,-3.6457,-3.6567,-3.6567,-3.6806,-3.7007,-3.7173,-3.7173,-3.7264,-3.7429,-3.7429,-3.7429,-3.7429,-3.7429,-3.7429,-3.7429,-3.7429,-3.7429,-3.7374,-3.7044,-3.6916,-3.6916,0.0,0.0,0.0,0.0,0.0,0.0,0.0,0.0,0.0,0.0,-3.0567,-3.0509,-3.0762,-3.082,-3.0898,-3.0898,-3.0898,-3.084,-3.0762,-3.082,-3.084,-3.0762,-3.082,-3.0898,-3.0898,-3.0898,-3.0898,-3.0898,-3.0898,-3.0898,-3.0898,-3.0898,-3.0898,-3.0898,-3.0898,-3.082,-3.0762,-3.084,-3.0762,-3.0645,-3.0704,-3.0704,-3.0645,-3.0645,-3.0704,-3.0762,-3.0879,-3.1152,-3.1483,-3.1361,-3.2005,-3.275,-3.2618,-3.2995,-3.3418,-3.3418,-3.3433,-3.3339,-3.3021,-3.3005,-3.3312,-3.3927,-3.4002,-3.4158,-3.51,-3.4921,-3.4508,-3.4439,-3.4439,-3.437,-3.3886,-3.4301,-3.4577,-3.4024,-3.4646,-3.5196,-3.5059,-3.5635,-3.6171,-3.6483,-3.6805,-3.6872,-3.6521,-3.7003,-3.7171,-3.6831,-3.6818,-3.6734,-3.6645,-3.6349,-3.6201,-3.6201,-3.6201,-3.6256,-3.6384,-3.6677,-3.6897,-3.7007,-3.7283,-3.7484,-3.7594,-3.7704,-3.7759,-3.7759,-3.7759,-3.7759,-3.7759,-3.7759,-3.7759,-3.7759,-3.7759,-3.7759,-3.7759,-3.7759,-3.7613,-3.7429,0.0,0.0,0.0,0.0,0.0,0.0,0.0,0.0,0.0,0.0,0.0,0.0,0.0,-3.0704,-3.0898,-3.0898,-3.0898,-3.0762,-3.045,-3.0704,-3.0762,-3.045,-3.0704,-3.0898,-3.0898,-3.0898,-3.0898,-3.0898,-3.0898,-3.0898,-3.0898,-3.0898,-3.0898,-3.0898,-3.0898,-3.0704,-3.045,-3.0762,-3.0528,-2.9981,-3.0274,-3.0216,-2.9922,-2.9922,-3.0157,-3.045,-3.0762,-3.1152,-3.1582,-3.2012,-3.2441,-3.2871,-3.3281,-3.3355,-3.3418,-3.3418,-3.3456,-3.3398,-3.3074,-3.3265,-3.3633,-3.3778,-3.4026,-3.441,-3.4827,-3.4921,-3.4784,-3.4439,-3.4646,-3.4646,-3.3955,-3.4163,-3.4439,-3.437,-3.4439,-3.4646,-3.5401,-3.5816,-3.6085,-3.6105,-3.7171,-3.7747,-3.7388,-3.7408,-3.7211,-3.6796,-3.679,-3.6645,-3.6201,-3.6201,-3.6201,-3.6201,-3.6201,-3.6402,-3.6824,-3.6749,-3.7026,-3.7411,-3.7411,-3.7631,-3.8016,-3.842,-3.8524,-3.8524,-3.8524,-3.8524,-3.8524,-3.8524,-3.8524,-3.8524,-3.8524,-3.8524,-3.8524,-3.8524,-3.8108,-3.7429,0.0,0.0,0.0,0.0,0.0,0.0,0.0,0.0,0.0,0.0,0.0,0.0,0.0,0.0,0.0,0.0,-3.0567,-3.0626,-3.0704,-3.0411,-3.0411,-3.0704,-3.0411,-3.047,-3.0898,-3.0704,-3.0704,-3.0898,-3.0898,-3.0898,-3.0898,-3.0704,-3.0704,-3.0898,-3.0704,-3.0509,-3.0392,-3.0509,-3.0333,-2.9922,-3.0039,-2.9981,-2.9922,-2.9922,-2.9981,-3.0136,0.0,-3.1204,-3.1973,-3.1866,-3.2432,-3.3179,-3.3126,-3.3228,-3.3355,-3.3102,-3.3071,-3.3072,-3.2757,-3.2936,-3.3367,-3.373,-3.3911,-3.4065,-3.4471,-3.437,-3.4163,-3.4024,-3.4094,-3.4094,-3.3817,-3.3886,-3.4094,-3.437,-3.437,-3.474,-3.5785,-3.58,-3.6087,-3.7139,-3.7468,-3.7615,-3.7759,-3.7797,-3.7724,-3.7578,-3.7106,-3.6738,-3.659,-3.6367,-3.6329,-3.6622,-3.6622,-3.6824,-3.7228,-3.7484,-3.7686,-3.7814,-3.8108,-3.831,-3.8438,-3.8505,-3.856,-3.856,-3.856,-3.856,-3.856,-3.856,-3.856,-3.856,-3.856,-3.856,-3.856,-3.856,-3.8475,-3.8236,0.0,0.0,0.0,0.0,0.0,0.0,0.0,0.0,0.0,0.0,0.0,0.0,0.0,0.0,0.0,0.0,0.0,-3.0274,-3.0411,-3.0117,-3.0098,-3.0528,-3.0117,-3.0216,-3.0898,-3.0567,-3.0567,-3.0898,-3.0898,-3.082,-3.0704,-3.0509,-3.045,-3.0528,-3.0333,-3.0157,-3.0098,-3.0157,-2.9981,-2.9568,-2.9686,-2.9686,-2.9568,-2.9568,-2.9627,0.0,-3.0216,-3.1073,-3.2005,-3.1731,-3.2354,-3.3165,-3.2975,-3.3102,-3.3355,-3.2975,-3.3014,-3.3108,-3.2787,-3.3007,-3.3422,-3.3718,-3.384,-3.3886,-3.4094,-3.3955,-3.3817,-3.3817,-3.3817,-3.3817,-3.3817,-3.3955,-3.4094,-3.437,-3.4639,-3.5105,-3.5997,-3.6144,-3.6598,-3.7584,-3.7778,-3.7846,-3.799,-3.8009,-3.7862,-3.7568,-3.7107,-3.6738,-3.659,-3.6349,-3.6402,-3.6824,-3.6842,-3.7099,-3.7631,-3.7888,-3.8089,-3.8236,-3.8511,-3.856,-3.856,-3.856,-3.856,-3.856,-3.856,-3.856,-3.856,-3.856,-3.856,-3.856,-3.856,-3.856,-3.856,-3.856,-3.856,-3.856,0.0,0.0,0.0,0.0,0.0,0.0,0.0,0.0,0.0,0.0,0.0,0.0,0.0,0.0,0.0,0.0,0.0,0.0,-2.9568,-2.9745,-2.9863,-2.9922,-2.9863,-3.0176,-3.082,-3.0567,-3.0567,-3.0879,-3.0879,-3.0704,-3.0392,-3.0392,-3.0216,-2.9922,-2.9863,-2.9745,-2.9509,-2.9745,-2.9509,-2.9035,-2.9331,-2.9272,-2.8975,-2.8975,-2.9213,-2.9505,-2.9953,-3.0789,-3.1696,-3.1808,-3.227,-3.2867,-3.2867,-3.3102,-3.3292,-3.2912,-3.3184,-3.3454,-3.3188,-3.3447,-3.378,-3.3798,-3.3817,-3.3817,-3.3817,-3.3817,-3.3817,-3.3817,-3.3817,-3.3817,-3.3817,-3.4094,-3.437,-3.4439,-3.5054,-3.5597,-3.6124,-3.6836,-3.7355,-3.7465,-3.8103,-3.8428,-3.8009,-3.8009,-3.7642,-3.6886,-3.6812,-3.6664,-3.6275,-3.6219,-3.6439,-3.6861,-3.6879,-3.7264,-3.8034,-3.8053,-3.8236,-3.856,-3.856,-3.856,-3.856,-3.856,-3.856,-3.856,-3.856,-3.856,-3.856,-3.856,-3.856,-3.856,-3.856,-3.856,-3.856,-3.856,-3.856,-3.856,0.0,0.0,0.0,0.0,0.0,0.0,0.0,0.0,0.0,0.0,0.0,0.0,0.0,0.0,0.0,0.0,0.0,0.0,-2.9804,-2.945,-2.945,-2.9863,-2.9686,-2.9804,-3.0176,-3.0333,-3.045,-3.0509,-3.0509,-3.045,-3.0392,-2.9922,-2.9804,-2.9863,-2.9686,-2.9568,-2.9509,-2.9568,-2.939,-2.8993,-2.9094,-2.9094,-2.8975,-2.8975,-2.9035,-2.9186,-2.9904,-3.0544,-3.1063,-3.1602,-3.2144,-3.2549,-3.2549,-3.2613,-3.2613,-3.223,-3.2477,-3.2749,-3.2714,-3.3041,-3.345,-3.3743,-3.3817,-3.3817,-3.3817,-3.3817,-3.3817,-3.3817,-3.3817,-3.3817,-3.3817,-3.3886,-3.4163,-3.4715,-3.4984,-3.5571,-3.6809,-3.6937,-3.7326,-3.8161,-3.8224,-3.8082,-3.8009,-3.8009,-3.7789,-3.7255,-3.7255,-3.7034,-3.6664,-3.6942,-3.7144,-3.7264,-3.7558,-3.7961,-3.8475,-3.8475,-3.853,-3.856,-3.856,-3.856,-3.856,-3.856,-3.856,-3.856,-3.856,-3.856,-3.856,-3.856,-3.856,-3.856,-3.856,-3.856,-3.856,-3.856,-3.856,-3.856,0.0,0.0,0.0,0.0,0.0,0.0,0.0,0.0,0.0,0.0,0.0,0.0,0.0,0.0,0.0,0.0,0.0,0.0,0.0,-2.9153,-2.9213,-2.9686,-2.945,-2.9568,-3.0098,-3.0039,-3.0157,-3.0392,-3.0274,-3.0098,-2.9981,-2.9686,-2.9509,-2.9509,-2.9331,-2.9272,-2.9272,-2.9272,-2.9153,0.0,0.0,-2.8975,-2.8975,-2.8975,-2.9085,-2.9324,-2.9965,-3.0549,-3.1069,-3.1626,-3.1978,-3.2166,-3.2166,-3.2294,-3.2358,-3.1974,-3.232,-3.2757,-3.26,-3.3028,-3.3541,-3.3762,-3.3817,-3.3817,-3.3817,-3.3817,-3.3817,-3.3817,-3.3817,-3.3872,-3.4037,-3.4066,-3.4274,-3.5046,-3.5238,-3.575,-3.7164,-3.7158,-3.7429,-3.8482,-3.8428,-3.8302,-3.8302,-3.8302,-3.8159,-3.7963,-3.7442,-3.7109,-3.7073,-3.7147,-3.7309,-3.7668,-3.7888,-3.8218,-3.864,-3.856,-3.856,-3.856,-3.856,-3.856,-3.856,-3.856,-3.856,-3.856,-3.856,-3.856,-3.856,-3.856,-3.856,-3.856,-3.856,-3.856,-3.856,-3.856,-3.856,-3.856,0.0,0.0,0.0,0.0,0.0,0.0,0.0,0.0,0.0,0.0,0.0,0.0,0.0,0.0,0.0,0.0,0.0,0.0,0.0,0.0,-2.9153,-2.945,-2.9213,-2.945,-3.0216,-2.9804,-2.9804,-3.0274,-2.9981,-2.9745,-2.9509,-2.945,-2.9272,-2.8975,-2.8975,-2.8975,-2.8975,-2.8975,-2.8975,-2.8975,-2.8975,-2.8975,-2.8975,0.0,-2.9232,-2.9635,-3.0112,-3.0754,-3.1442,-3.1717,-3.1846,-3.1846,-3.1846,-3.2038,-3.223,-3.191,-3.2422,-3.2988,-3.2655,-3.3193,-3.3817,-3.3817,-3.3817,-3.3817,-3.3817,-3.3817,-3.3817,-3.3817,-3.3817,-3.3927,-3.433,-3.4408,-3.4706,-3.5523,-3.5709,-3.6093,-3.7297,-3.7429,-3.7696,-3.8501,-3.8574,-3.8521,-3.8652,-3.8652,-3.8681,-3.8682,-3.7707,-3.7203,-3.7464,-3.718,-3.7338,-3.8071,-3.8089,-3.8273,-3.864,-3.856,-3.856,-3.856,-3.856,-3.856,-3.856,-3.856,-3.856,-3.856,-3.856,-3.856,-3.856,-3.856,-3.856,-3.856,-3.856,-3.856,-3.856,-3.856,-3.856,-3.856,0.0,0.0,0.0,0.0,0.0,0.0,0.0,0.0,0.0,0.0,-2.9331,-2.939,0.0,0.0,0.0,0.0,0.0,0.0,0.0,0.0,0.0,-2.9094,-2.9272,-2.9331,-2.9272,-2.9627,-2.9745,-2.9686,-2.9627,-2.9568,-2.9509,-2.9213,-2.9035,-2.8975,-2.8975,-2.8975,-2.8975,-2.8975,-2.8975,-2.8975,-2.8975,-2.8975,-2.8975,-2.8975,0.0,0.0,-3.0424,-3.0992,-3.1377,-3.1442,-3.1506,-3.1506,-3.1506,-3.1506,-3.157,-3.1506,-3.2095,-3.2655,-3.2588,-3.3193,-3.3817,-3.3817,-3.3817,-3.3817,-3.3817,-3.3817,-3.3817,-3.3817,-3.3817,-3.3927,-3.433,-3.4419,-3.4741,-3.5934,-3.6096,-3.6485,-3.7623,-3.7575,-3.7696,-3.8501,-3.8302,-3.8364,-3.9062,-3.9101,-3.9129,-3.9105,-3.8633,-3.8235,-3.793,-3.817,-3.8346,-3.8511,-3.853,-3.8487,-3.856,-3.856,-3.856,-3.856,-3.856,-3.856,-3.856,-3.856,-3.856,-3.856,-3.856,0.0,-3.856,-3.856,-3.856,-3.856,-3.856,-3.856,-3.856,-3.856,-3.856,-3.856,0.0,0.0,0.0,0.0,0.0,0.0,0.0,-2.9094,-2.8975,-2.8975,-2.9153,-2.9153,-2.9035,-2.8975,-2.8975,0.0,0.0,0.0,0.0,0.0,0.0,0.0,-2.9153,0.0,-2.9272,-2.939,-2.945,-2.9509,0.0,-2.9213,-2.9213,-2.9094,-2.8975,-2.8975,-2.8975,-2.8975,-2.8975,-2.8975,-2.8975,-2.8975,-2.8975,-2.8975,-2.9012,0.0,0.0,0.0,-3.0882,-3.1212,-3.1377,-3.1377,-3.1377,-3.1377,-3.1377,-3.1377,-3.1414,-3.1634,-3.2129,-3.2643,-3.2863,-3.3358,-3.3817,-3.3817,-3.3817,-3.3817,-3.3817,-3.3817,-3.3817,-3.3817,-3.3817,-3.4,-3.4623,-3.455,-3.4892,-3.6302,-3.6143,-3.6344,-3.7735,-3.7435,-3.7476,-3.8501,-3.8422,-3.8561,-3.9106,-3.919,-3.9275,-3.9548,-3.9204,-3.8839,-3.8359,-3.8517,-3.8596,-3.864,-3.856,-3.856,-3.856,-3.856,-3.856,-3.856,-3.856,-3.856,-3.856,-3.856,-3.856,-3.856,-3.856,-3.856,-3.856,-3.856,-3.856,-3.856,-3.856,-3.856,-3.856,-3.856,-3.856,-3.856,0.0,0.0,0.0,0.0,0.0,0.0,0.0,-2.8975,-2.8975,-2.8975,-2.8975,-2.8975,-2.8975,-2.8975,-2.8975,0.0,0.0,0.0,0.0,0.0,0.0,0.0,0.0,0.0,0.0,0.0,0.0,-2.939,-2.9153,0.0,0.0,0.0,0.0,0.0,-2.8975,-2.8975,-2.8975,-2.8975,-2.8975,0.0,0.0,-2.8975,0.0,0.0,0.0,0.0,0.0,-3.1377,-3.1377,-3.1377,-3.1377,-3.1377,-3.1377,-3.1377,-3.1469,-3.1873,-3.2276,-3.2698,-3.3101,-3.3505,-3.3817,-3.3817,-3.3817,-3.3817,-3.3817,-3.3817,-3.3817,-3.3817,-3.3817,-3.4055,-3.488,-3.4752,-3.5042,-3.6552,-3.6165,-3.6219,-3.7824,-3.7255,-3.7181,-3.8428,-3.8522,-3.8663,-3.9187,-3.937,-3.9567,-3.9836,-3.9584,-3.9273,-3.8769,-3.8614,-3.856,-3.856,-3.856,-3.856,-3.856,-3.856,-3.856,-3.856,-3.856,-3.856,-3.856,-3.856,-3.856,-3.856,-3.856,-3.856,-3.856,-3.856,-3.856,-3.856,-3.856,-3.856,-3.856,-3.856,-3.856,-3.856,0.0,0.0,0.0,0.0,0.0,0.0,0.0,-2.8975,-2.8975,-2.8975,-2.8975,-2.8975,-2.8975,-2.8975,-2.8975,0.0,0.0,0.0,0.0,0.0,0.0,0.0,0.0,0.0,0.0,0.0,0.0,-2.9035,-2.9035,0.0,0.0,0.0,0.0,0.0,0.0,-2.8975,-2.8975,-2.8975,0.0,0.0,0.0,0.0,0.0,0.0,0.0,0.0,0.0,-3.1377,-3.1377,-3.1377,-3.1377,-3.1377,-3.1377,-3.1377,-3.1469,-3.1873,-3.2276,-3.2698,-3.3101,-3.3505,-3.3817,-3.3817,-3.3817,-3.3817,-3.3817,-3.3817,-3.3817,-3.3817,-3.3817,-3.4055,-3.488,-3.499,-3.5319,-3.6589,-3.6405,-3.6608,-3.7862,-3.696,-3.6867,-3.8428,-3.8281,-3.8385,-3.9163,-3.9891,-4.026,-3.9886,-3.9845,-3.9688,-3.9295,-3.8859,-3.856,-3.856,-3.856,-3.856,-3.856,-3.856,-3.856,-3.856,-3.856,-3.856,-3.856,-3.856,-3.856,-3.856,-3.856,-3.856,0.0,-3.856,-3.856,-3.856,-3.856,-3.856,-3.856,-3.856,-3.856,-3.856,0.0,0.0,0.0,0.0,0.0,0.0,-2.8975,-2.8975,-2.8975,-2.8975,-2.8975,-2.8975,-2.8975,-2.8975,-2.8975,-2.8975,0.0,0.0,0.0,0.0,0.0,0.0,0.0,0.0,0.0,0.0,-2.8975,-2.8975,-2.8975,0.0,0.0,0.0,0.0,0.0,0.0,-2.8975,-2.8975,-2.8975,0.0,0.0,0.0,0.0,0.0,0.0,0.0,0.0,0.0,0.0,-3.1377,-3.1377,-3.1377,-3.1377,-3.1377,-3.1377,-3.1506,-3.2166,-3.2478,-3.2735,-3.3395,-3.3688,-3.3817,-3.3817,-3.3817,-3.3817,-3.3817,-3.3817,-3.3817,-3.3817,-3.3817,-3.4055,-3.488,-3.5027,-3.5284,-3.6294,-3.6275,-3.6423,-3.7181,-3.6664,-3.6738,-3.8082,-3.8382,-3.8765,-3.9562,-4.0182,-4.0414,-4.0275,-4.0275,-4.0137,-3.9666,-3.9272,-3.9035,-3.9035,-3.8719,-3.856,-3.856,-3.856,-3.856,-3.856,-3.856,-3.856,-3.856,-3.856,-3.856,-3.856,-3.856,-3.856,0.0,-3.856,-3.856,-3.856,-3.856,-3.856,-3.856,-3.856,-3.856,-3.856,0.0,0.0,0.0,0.0,0.0,-2.8975,-2.8975,-2.8975,-2.8975,-2.8975,-2.8975,-2.8975,-2.8975,-2.8975,-2.8975,-2.8975,-2.8975,0.0,0.0,0.0,0.0,0.0,0.0,0.0,0.0,0.0,-2.8975,-2.8975,-2.8975,-2.8975,0.0,0.0,-2.8975,-2.8975,0.0,0.0,0.0,0.0,0.0,0.0,0.0,0.0,0.0,0.0,0.0,0.0,0.0,0.0,0.0,0.0,0.0,-3.1377,-3.1377,-3.1377,-3.1543,-3.2349,-3.2588,-3.2771,-3.3596,-3.3817,-3.3817,-3.3817,-3.3817,-3.3817,-3.3817,-3.3817,-3.3817,-3.3817,-3.3817,-3.4018,-3.4715,-3.4954,-3.5247,-3.5925,-3.6127,-3.6349,-3.6738,-3.659,-3.6775,-3.7887,-3.8442,-3.8937,-3.9699,-4.0183,-4.0588,-4.0685,-4.0685,-4.0529,-4.0137,-3.9666,-3.9351,-3.9114,-3.8798,-3.856,-3.856,-3.856,-3.856,-3.856,-3.856,-3.856,-3.856,-3.856,-3.856,-3.856,-3.856,-3.856,0.0,-3.856,-3.856,-3.856,-3.856,-3.856,-3.856,-3.856,-3.856,-3.856,0.0,0.0,0.0,0.0,0.0,0.0,-2.8975,-2.8975,-2.8975,-2.8975,-2.8975,-2.8975,-2.8975,-2.8975,-2.8975,-2.8975,-2.8975,0.0,0.0,0.0,0.0,0.0,0.0,0.0,0.0,0.0,-2.8975,-2.8975,-2.8975,-2.8975,-2.8975,-2.8975,-2.8975,-2.8975,0.0,0.0,0.0,0.0,0.0,0.0,0.0,0.0,0.0,0.0,0.0,0.0,0.0,0.0,0.0,0.0,0.0,0.0,0.0,-3.1377,-3.1543,-3.2349,-3.2588,-3.2771,-3.3596,-3.3817,-3.3817,-3.3817,-3.3817,-3.3817,-3.3817,-3.3817,-3.3817,-3.3817,-3.3817,-3.3927,-3.433,-3.4752,-3.5155,-3.5559,-3.5944,-3.6349,-3.6738,-3.6812,-3.711,-3.7896,-3.8387,-3.8899,-3.9258,-4.0045,-4.0666,-4.1172,-4.1172,-4.0997,-4.0509,-4.0137,-3.9509,-3.864,-3.856,-3.856,-3.856,-3.856,-3.856,-3.856,-3.856,-3.856,-3.856,-3.856,-3.856,-3.856,-3.856,-3.856,0.0,-3.856,-3.856,-3.856,-3.856,-3.856,-3.856,-3.856,-3.856,-3.856,0.0,0.0,0.0,0.0,0.0,0.0,0.0,-2.8975,-2.8975,-2.8975,-2.8975,-2.8975,-2.8975,-2.8975,-2.8975,-2.8975,-2.8975,0.0,0.0,0.0,0.0,0.0,0.0,0.0,0.0,0.0,-2.8975,-2.8975,-2.8975,-2.8975,-2.8975,-2.8975,-2.8975,-2.8975,-2.8975,-2.8975,0.0,0.0,0.0,0.0,0.0,0.0,0.0,0.0,0.0,0.0,0.0,0.0,0.0,0.0,0.0,0.0,0.0,0.0,0.0,-3.2349,-3.2588,-3.2716,-3.3266,-3.3615,-3.3817,-3.3817,-3.3817,-3.3817,-3.3817,-3.3817,-3.3817,-3.3817,-3.3817,-3.3927,-3.433,-3.4752,-3.5155,-3.5559,-3.5944,-3.6201,-3.6349,-3.6664,-3.7016,-3.7518,-3.8761,-3.9679,-4.0105,-4.0686,-4.1016,-4.1172,-4.1172,-4.086,-4.0137,-3.9981,-3.9666,-3.9114,-3.8798,-3.856,-3.856,-3.856,-3.856,-3.856,-3.856,-3.856,-3.856,-3.856,-3.856,-3.856,-3.856,-3.856,-3.856,-3.856,-3.856,-3.856,-3.856,-3.856,-3.856,-3.856,-3.856,-3.856,0.0,0.0,0.0,0.0,0.0,0.0,0.0,-2.8975,-2.8975,-2.8975,-2.8975,-2.8975,-2.8975,-2.8975,-2.8975,-2.8975,-2.8975,0.0,0.0,0.0,0.0,0.0,0.0,0.0,-2.8975,-2.8975,-2.8975,-2.8975,-2.8975,-2.8975,-2.8975,-2.8975,-2.8975,-2.8975,-2.8975,-2.8975,0.0,0.0,0.0,0.0,0.0,0.0,-3.0259,0.0,0.0,0.0,0.0,0.0,0.0,0.0,0.0,0.0,0.0,0.0,0.0,0.0,-3.2478,-3.2716,-3.3285,-3.3633,-3.3817,-3.3817,-3.3817,-3.3817,-3.3817,-3.3817,-3.3817,-3.3817,-3.3817,-3.389,-3.4128,-3.4642,-3.5119,-3.5357,-3.5852,-3.6275,-3.6442,-3.6812,-3.7238,-3.7777,-3.893,-3.9754,-4.0006,-4.0587,-4.0918,-4.0918,-4.1074,-4.086,-3.9981,-3.9902,-3.9666,-3.9035,-3.8719,-3.856,-3.856,-3.856,-3.856,-3.856,-3.856,-3.856,-3.856,-3.856,-3.856,-3.856,-3.856,-3.856,0.0,-3.856,-3.856,-3.856,-3.856,-3.856,-3.856,-3.856,-3.856,-3.856,0.0,0.0,0.0,0.0,0.0,0.0,0.0,-2.8975,-2.8975,-2.8975,-2.8975,-2.8975,-2.8975,-2.8975,-2.8975,-2.8975,0.0,0.0,0.0,0.0,0.0,0.0,0.0,0.0,-2.8975,-2.8975,-2.8975,-2.8975,-2.8975,-2.8975,-2.8975,-2.8975,-2.8975,-2.8975,-2.8975,-2.8975,-2.8975,-2.8975,-2.8993,-2.9085,-2.9892,-3.0222,0.0,0.0,0.0,0.0,0.0,0.0,0.0,0.0,0.0,0.0,0.0,0.0,0.0,0.0,0.0,0.0,0.0,-3.3798,-3.3817,-3.3817,-3.3817,-3.3817,-3.3817,-3.3817,0.0,-3.3817,-3.3817,-3.3817,-3.3853,-3.4495,-3.5045,-3.5064,-3.5705,-3.6349,-3.6738,-3.7181,-3.7701,-3.8473,-3.8951,-3.9201,-3.9126,-3.993,-4.0527,-4.0527,-4.0918,-4.086,-3.9981,-3.9902,-3.9509,-3.864,-3.856,-3.864,-3.864,-3.864,-3.864,-3.864,-3.864,-3.856,-3.856,-3.856,-3.856,0.0,-3.856,-3.856,-3.856,-3.856,-3.856,-3.856,-3.856,-3.856,-3.856,-3.856,-3.856,-3.856,0.0,0.0,0.0,0.0,0.0,0.0,0.0,0.0,0.0,0.0,-2.8975,-2.8975,-2.8975,-2.8975,-2.8975,0.0,0.0,0.0,0.0,0.0,0.0,0.0,0.0,0.0,-2.8975,-2.8975,-2.8975,-2.8975,-2.8975,-2.8975,-2.8975,-2.8975,-2.8975,-2.8975,-2.8975,-2.8975,-2.8975,-2.8975,-2.9159,-2.947,-3.0002,-3.0387,0.0,0.0,0.0,0.0,-3.1377,-3.1377,0.0,0.0,0.0,0.0,0.0,0.0,0.0,0.0,-3.2276,-3.2698,-3.323,0.0,-3.3817,-3.3817,-3.3817,-3.3817,0.0,-3.3817,-3.3817,-3.3817,-3.3817,-3.3908,-3.4202,-3.4678,-3.5119,-3.543,-3.5889,-3.6349,-3.6738,-3.7402,-3.7901,-3.8144,-3.8732,-3.9058,-3.8778,-3.9851,-4.0527,-4.0527,-4.0918,-4.086,-3.9981,-3.9902,-3.9509,-3.864,-3.856,-3.8798,-3.9114,-3.8798,-3.8798,-3.9114,-3.8798,-3.856,-3.856,-3.856,-3.856,-3.856,-3.856,-3.856,-3.856,-3.856,-3.856,-3.856,-3.856,-3.856,-3.856,-3.856,-3.856,-3.856,0.0,0.0,0.0,0.0,0.0,0.0,0.0,0.0,0.0,0.0,0.0,0.0,0.0,0.0,0.0,0.0,0.0,0.0,0.0,0.0,0.0,0.0,0.0,-2.8975,-2.8975,-2.8975,-2.8975,-2.8975,-2.8975,-2.8975,-2.8975,-2.8975,-2.8975,-2.8975,-2.8975,-2.8975,-2.8993,-2.9177,-2.9379,-2.9617,-3.0222,0.0,0.0,0.0,0.0,0.0,-3.1377,-3.1377,0.0,-3.1377,-3.1377,-3.1377,0.0,0.0,0.0,0.0,-3.2423,-3.2735,-3.3321,-3.3651,-3.3817,-3.3817,-3.3817,-3.3817,-3.3817,-3.3817,-3.3817,-3.3817,-3.3817,-3.3927,-3.433,-3.4752,-3.5155,-3.5559,-3.5944,-3.6349,-3.6738,-3.7329,-3.7789,-3.8009,-3.8348,-3.8631,-3.8631,-3.9576,-4.0234,-4.0234,-4.082,-4.086,-3.9981,-3.9902,-3.9509,-3.864,-3.856,-3.8719,-3.8956,-3.8956,-3.8956,-3.8956,-3.8956,-3.8798,-3.856,-3.856,-3.856,-3.856,-3.856,-3.856,-3.856,-3.856,-3.856,-3.856,-3.856,-3.856,-3.856,-3.856,-3.856,-3.856,0.0,0.0,0.0,0.0,0.0,0.0,0.0,0.0,0.0,0.0,0.0,0.0,0.0,0.0,0.0,0.0,0.0,0.0,0.0,0.0,0.0,0.0,-2.8975,-2.8975,-2.8975,-2.8975,-2.8975,-2.8975,-2.8975,-2.8975,-2.8975,-2.8975,-2.8975,-2.8975,-2.8975,-2.9012,-2.9085,-2.9494,-2.9654,-2.9819,-3.0516,0.0,0.0,0.0,0.0,0.0,0.0,0.0,0.0,-3.1377,-3.1377,-3.1377,-3.1377,0.0,0.0,0.0,0.0,0.0,-3.3523,-3.3762,-3.3817,-3.3817,-3.3817,-3.3817,-3.3817,-3.3817,-3.3817,-3.3817,-3.3817,-3.3945,-3.4403,-3.4574,-3.4885,-3.5559,-3.6073,-3.6516,-3.6738,-3.7255,-3.7642,-3.7862,-3.8009,-3.8228,-3.8501,-3.9375,-3.9902,-3.9902,-4.0684,-4.086,-3.9981,-3.9902,-3.9509,-3.864,-3.864,-3.864,-3.856,-3.9035,-3.9114,-3.8719,-3.9114,-3.9035,-3.856,-3.856,-3.856,-3.856,-3.856,0.0,-3.856,-3.856,-3.856,-3.856,-3.856,-3.856,-3.856,-3.856,-3.856,-3.856,0.0,0.0,0.0,0.0,0.0,0.0,0.0,0.0,0.0,0.0,0.0,0.0,0.0,0.0,0.0,0.0,0.0,0.0,0.0,0.0,0.0,-2.8975,-2.8975,-2.8975,-2.8975,-2.8975,-2.8975,-2.8975,-2.8975,-2.8975,-2.8975,-2.8975,-2.8975,-2.8975,-2.8975,-2.9177,-2.9489,-2.9544,-2.9965,-3.0607,-3.0736,0.0,0.0,0.0,0.0,0.0,0.0,0.0,0.0,-3.1377,-3.1377,-3.1377,-3.1377,0.0,0.0,0.0,0.0,0.0,-3.3193,-3.356,-3.3817,-3.3817,-3.3817,-3.3817,-3.3817,-3.3817,-3.3817,-3.3817,-3.3817,-3.4037,-3.4788,-3.3873,-3.3629,-3.5777,-3.6701,-3.7107,-3.6812,-3.777,-3.8209,-3.7568,-3.8063,-3.8428,-3.8155,-3.9171,-3.9902,-3.9902,-4.0684,-4.086,-3.9981,-3.9902,-3.9509,-3.864,-3.8956,-3.9035,-3.856,-3.9035,-3.9272,-3.9193,-3.9272,-3.9035,-3.856,-3.856,-3.856,-3.856,0.0,-3.856,-3.856,-3.856,-3.856,-3.856,-3.856,-3.856,-3.856,-3.856,-3.856,-3.856,0.0,0.0,0.0,0.0,0.0,0.0,0.0,0.0,0.0,0.0,0.0,0.0,0.0,0.0,0.0,0.0,0.0,0.0,0.0,0.0,-2.8975,-2.8975,-2.8975,-2.8975,-2.8975,-2.8975,-2.8975,-2.8975,-2.8975,-2.8975,-2.8975,-2.8975,-2.8975,-2.8993,-2.9214,-2.9397,-2.9659,-3.0039,-3.0442,-3.0809,0.0,0.0,0.0,0.0,0.0,0.0,0.0,0.0,0.0,0.0,-3.0908,-3.039,-3.1184,0.0,0.0,0.0,0.0,0.0,-3.3376,-3.367,-3.3817,-3.3817,-3.3817,-3.3817,-3.3817,-3.3817,-3.3817,-3.3817,-3.3982,-3.4312,-3.4917,-3.4758,-3.5011,-3.6331,-3.7034,-3.7255,-3.6886,-3.7476,-3.7936,-3.7715,-3.8082,-3.8302,-3.8302,-3.93,-3.9902,-3.9902,-4.0684,-4.086,-3.9981,-3.9902,-3.9509,-3.864,-3.9035,-3.9193,-3.8956,-3.943,-3.9351,-3.8956,-3.943,-3.9272,-3.856,-3.856,-3.856,-3.856,0.0,-3.856,-3.856,-3.856,-3.856,-3.856,-3.856,-3.856,-3.856,-3.856,-3.856,-3.856,0.0,0.0,0.0,0.0,0.0,0.0,0.0,0.0,0.0,0.0,0.0,0.0,0.0,0.0,0.0,0.0,0.0,0.0,0.0,-2.903,-2.8975,-2.8975,-2.8975,-2.8975,-2.8975,-2.8975,-2.8975,-2.8975,-2.8975,-2.8975,-2.8975,-2.9085,-2.9122,-2.914,-2.9544,-2.9764,-2.9892,-3.0516,-3.0846,-3.0956,0.0,0.0,0.0,0.0,0.0,0.0,0.0,0.0,0.0,0.0,0.0,0.0,0.0,0.0,0.0,-3.1951,-3.2588,-3.2771,-3.3596,-3.3817,-3.3817,-3.3817,-3.3817,-3.3817,-3.3817,-3.3817,-3.3835,-3.3927,-3.4202,-3.455,-3.5082,-3.5704,-3.6146,-3.6071,-3.6719,-3.7107,-3.6738,-3.7181,-3.7642,-3.7862,-3.7936,-3.8155,-3.8428,-3.9226,-3.9732,-3.9732,-4.053,-4.0685,-3.9902,-3.9823,-3.943,-3.864,-3.9035,-3.9272,-3.9272,-3.9823,-3.9588,-3.8798,-3.943,-3.9351,-3.856,-3.856,-3.856,-3.856,-3.856,-3.856,-3.856,-3.856,-3.856,-3.856,-3.856,-3.856,-3.856,-3.856,-3.856,-3.856,0.0,0.0,0.0,0.0,0.0,0.0,0.0,0.0,0.0,0.0,0.0,0.0,0.0,0.0,0.0,0.0,0.0,0.0,0.0,-2.9195,-2.8975,-2.8975,-2.8975,-2.8975,-2.8975,-2.8975,-2.8975,-2.8975,-2.8975,-2.8975,-2.8993,-2.936,-2.9586,-2.9544,-2.9965,-3.0351,-3.0699,-3.0772,-3.1011,-3.1277,-2.9982,0.0,0.0,0.0,0.0,0.0,0.0,0.0,0.0,0.0,0.0,0.0,0.0,0.0,-2.9747,-3.1951,-3.2588,-3.2771,-3.3596,-3.3817,-3.3817,-3.3817,-3.3817,-3.3817,-3.3817,-3.3817,-3.3908,-3.4275,-3.4385,-3.4642,-3.543,-3.5907,-3.5718,-3.4221,-3.5587,-3.6738,-3.6275,-3.7255,-3.7862,-3.7495,-3.7789,-3.8009,-3.8009,-3.8853,-3.9354,-3.9354,-4.0125,-4.0353,-3.9902,-3.9588,-3.9114,-3.864,-3.9035,-3.9272,-3.9272,-4.004,-4.004,-3.9272,-3.9351,-3.9114,-3.856,-3.856,-3.856,-3.856,-3.856,-3.856,-3.856,-3.856,-3.856,-3.856,-3.856,-3.856,-3.856,-3.856,-3.856,-3.856,0.0,0.0,0.0,0.0,0.0,0.0,0.0,0.0,0.0,0.0,0.0,0.0,0.0,0.0,0.0,0.0,0.0,0.0,0.0,-2.9819,-2.9745,-2.9745,-2.9745,-2.9745,-2.9745,-2.9489,-2.947,-2.9745,-2.9745,-2.9745,-2.9745,-2.9892,-2.9965,-2.9984,-3.0387,-3.0644,-3.0809,-3.1047,-3.1249,-3.1377,-3.0843,-3.0908,0.0,0.0,0.0,0.0,0.0,0.0,0.0,0.0,-2.8657,-2.7982,-2.8575,-2.9138,-2.9926,-3.1,-3.2097,-3.3101,-3.367,-3.3817,-3.3817,-3.3817,-3.3817,-3.3817,-3.3817,-3.4,-3.422,-3.4367,-3.4807,-3.5393,-3.6183,-3.6479,-3.6349,-3.5736,-3.6497,-3.7034,-3.6664,-3.7421,-3.7936,-3.7789,-3.7936,-3.8009,-3.8009,-3.8778,-3.9278,-3.9278,-4.0048,-4.0353,-3.9902,-3.9509,-3.9114,-3.864,-3.9035,-3.943,-3.9666,-3.9981,-4.0118,-4.004,-3.9823,-3.943,-3.9035,-3.8719,-3.856,-3.856,-3.856,-3.856,-3.856,-3.856,-3.856,-3.856,-3.856,-3.856,-3.856,-3.856,-3.856,-3.856,0.0,0.0,0.0,0.0,0.0,0.0,0.0,0.0,0.0,0.0,0.0,0.0,0.0,0.0,0.0,0.0,0.0,0.0,-3.0387,-3.0277,-3.0204,-3.0204,-3.0204,-3.0259,-3.0387,-3.0112,-3.0039,-3.0204,-3.0204,-3.0204,-3.0204,-3.0332,-3.0387,-3.0406,-3.0791,-3.0974,-3.0992,-3.1267,-3.1377,-3.1313,-3.0437,-3.0307,0.0,0.0,0.0,0.0,0.0,0.0,0.0,0.0,-2.7585,-2.7105,-2.7105,-2.8361,-2.9965,-3.036,-3.1779,-3.3303,-3.3707,-3.3817,-3.3817,-3.3817,-3.3817,-3.3853,-3.3963,-3.4202,-3.444,-3.4568,-3.5247,-3.5962,-3.6534,-3.659,-3.659,-3.659,-3.6812,-3.696,-3.6664,-3.7181,-3.7642,-3.7642,-3.7642,-3.7642,-3.7642,-3.8404,-3.8975,-3.9108,-3.9739,-4.004,-3.9902,-3.9351,-3.8956,-3.864,-3.8877,-3.9272,-3.9745,-3.9745,-3.9902,-4.0275,-3.9902,-3.9588,-3.9272,-3.8798,-3.856,-3.856,-3.856,-3.856,-3.856,-3.856,-3.856,-3.856,-3.856,-3.856,-3.856,-3.856,-3.856,-3.856,0.0,0.0,0.0,0.0,0.0,0.0,0.0,0.0,0.0,0.0,0.0,0.0,0.0,0.0,0.0,0.0,0.0,0.0,-3.0791,-3.0424,-3.0204,-3.0204,-3.0204,-3.0387,-3.0791,-3.0791,-3.0607,-3.0204,-3.0204,-3.0204,-3.0222,-3.0607,-3.0791,-3.0809,-3.1194,-3.1377,-3.1377,-3.1377,-3.1377,-3.1102,-2.8246,-2.7982,-2.8806,0.0,0.0,0.0,0.0,0.0,0.0,0.0,-2.5935,-2.7105,-2.7039,-2.8361,-2.9965,-3.036,-3.1797,-3.3321,-3.3707,-3.3817,-3.3817,-3.3817,-3.3817,-3.3908,-3.4312,-3.4403,-3.4532,-3.4954,-3.5669,-3.6201,-3.6201,-3.6201,-3.6201,-3.6201,-3.6201,-3.6201,-3.6201,-3.659,-3.6812,-3.6812,-3.6812,-3.6812,-3.6812,-3.7576,-3.829,-3.8652,-3.904,-3.9509,-3.9902,-3.9035,-3.856,-3.856,-3.856,-3.8798,-3.9272,-3.9272,-3.9509,-3.9902,-3.9509,-3.9272,-3.9272,-3.8798,-3.856,-3.856,-3.856,-3.856,-3.856,-3.856,-3.856,-3.856,-3.856,-3.856,-3.856,-3.856,-3.856,-3.856,0.0,0.0,0.0,0.0,0.0,0.0,0.0,0.0,0.0,0.0,0.0,0.0,0.0,0.0,0.0,0.0,0.0,0.0,-3.1194,-3.1102,-3.1029,-3.1029,-3.1029,-3.1084,-3.1194,-3.1194,-3.1139,-3.1029,-3.1029,-3.1029,-3.1029,-3.1157,-3.1194,-3.1212,-3.1322,-3.1377,-3.1313,-3.0325,-2.9935,-2.9787,-2.785,-2.7387,-2.7519,0.0,0.0,0.0,0.0,0.0,0.0,0.0,0.0,0.0,-2.4467,-2.6993,-3.0105,-2.9253,-3.1184,-3.367,-3.378,-3.3817,-3.3817,-3.3817,-3.3817,-3.3908,-3.4312,-3.4623,-3.5045,-3.5724,-3.6276,-3.6516,-3.6275,-3.6423,-3.6516,-3.6293,-3.6201,-3.6201,-3.6201,-3.659,-3.6812,-3.6812,-3.6812,-3.6812,-3.6812,-3.7576,-3.8137,-3.829,-3.8884,-3.9351,-3.9509,-3.8956,-3.856,-3.856,-3.856,-3.8798,-3.9272,-3.9272,-3.9509,-3.9902,-3.9509,-3.9272,-3.9272,-3.8798,-3.856,-3.856,-3.856,-3.856,-3.856,-3.856,-3.856,-3.856,-3.856,-3.856,-3.856,-3.856,-3.856,-3.856,0.0,0.0,0.0,0.0,0.0,0.0,0.0,0.0,0.0,0.0,-3.1377,-3.1377,0.0,0.0,0.0,0.0,0.0,0.0,0.0,-3.1377,-3.1377,-3.1377,-3.1377,-3.1377,-3.1377,-3.1377,-3.1377,-3.1377,-3.1377,-3.1377,-3.1377,-3.1377,-3.1377,-3.1377,-3.1377,-3.1377,-3.1313,-3.052,-3.013,-3.0,-2.7916,-2.7105,-2.6922,0.0,0.0,0.0,0.0,0.0,0.0,0.0,0.0,0.0,-2.3338,-2.6406,-3.0191,-2.8721,-3.0909,-3.3817,-3.3817,-3.3817,-3.3817,-3.3817,-3.3817,-3.3963,-3.4532,-3.4972,-3.5449,-3.6072,-3.6349,-3.6516,-3.6201,-3.6442,-3.6516,-3.6201,-3.6201,-3.6201,-3.6201,-3.6442,-3.659,-3.659,-3.659,-3.659,-3.659,-3.7331,-3.7908,-3.8079,-3.8669,-3.9114,-3.9272,-3.8877,-3.856,-3.856,-3.856,-3.8719,-3.9035,-3.9035,-3.9114,-3.9351,-3.9114,-3.9035,-3.9035,-3.8719,-3.856,-3.856,-3.856,-3.856,-3.856,-3.856,-3.856,-3.856,-3.856,-3.856,-3.856,-3.856,-3.856,-3.8579,0.0,0.0,0.0,0.0,0.0,0.0,0.0,0.0,0.0,0.0,-3.1377,-3.1377,0.0,0.0,0.0,0.0,0.0,0.0,0.0,0.0,-3.1377,-3.1377,-3.1377,-3.1377,-3.1377,-3.1377,-3.1313,-3.1184,-3.1313,-3.1313,-3.1184,-3.1313,-3.1313,-3.1184,-3.1313,-3.1313,-3.1184,-3.1037,-3.0908,-3.0584,-2.785,-2.6737,-2.6501,-2.3912,0.0,0.0,0.0,0.0,0.0,0.0,0.0,0.0,-2.3297,-2.6353,-3.0054,-2.8769,-3.0943,-3.3817,-3.3817,-3.3817,-3.3817,-3.3817,-3.3872,-3.4198,-3.4899,-3.5394,-3.5852,-3.6201,-3.6275,-3.6275,-3.6275,-3.6275,-3.6201,-3.6201,-3.6201,-3.6201,-3.6201,-3.6201,-3.6201,-3.6201,-3.6201,-3.6201,-3.6201,-3.6916,-3.7546,-3.7984,-3.8319,-3.8761,-3.9193,-3.8798,-3.856,-3.856,-3.856,-3.856,-3.856,-3.856,-3.856,-3.856,-3.856,-3.856,-3.856,-3.856,-3.856,-3.856,-3.856,-3.856,-3.856,-3.856,-3.856,-3.856,-3.856,-3.856,-3.856,-3.856,-3.8481,-3.8456,0.0,0.0,0.0,0.0,0.0,0.0,0.0,0.0,0.0,0.0,0.0,0.0,0.0,0.0,0.0,0.0,0.0,0.0,0.0,0.0,-3.1377,-3.1377,-3.1377,-3.1377,-3.1377,-3.1377,-3.0843,-2.9722,-3.0843,-3.0843,-2.9805,-3.0843,-3.0779,-2.9805,-3.0908,-3.0779,-2.9674,-2.8509,-2.7387,-2.6203,-2.4535,-2.3941,-2.4039,-2.3429,-2.3429,0.0,0.0,0.0,0.0,0.0,0.0,0.0,-2.3209,-2.579,-2.8785,-2.8713,-3.1148,-3.3817,-3.3817,-3.3817,-3.3817,-3.3817,-3.4486,-3.5237,-3.5448,-3.6017,-3.6553,-3.6645,-3.6664,-3.6664,-3.6664,-3.6664,-3.659,-3.6275,-3.6201,-3.6201,-3.6201,-3.6201,-3.6201,-3.6201,-3.6201,-3.6201,-3.6201,-3.6659,-3.7099,-3.7488,-3.7869,-3.8291,-3.87,-3.864,-3.856,-3.856,-3.856,-3.856,-3.856,-3.856,-3.856,-3.856,-3.856,-3.856,-3.856,-3.856,-3.856,-3.856,-3.856,-3.856,-3.856,-3.856,-3.856,-3.856,-3.856,-3.856,-3.856,-3.856,-3.7729,-3.6626,0.0,0.0,0.0,0.0,0.0,0.0,0.0,0.0,0.0,0.0,0.0,0.0,0.0,0.0,0.0,0.0,0.0,0.0,0.0,0.0,-3.1469,-3.1671,-3.1854,-3.1964,-3.1964,-3.1271,-3.0875,-3.0893,-3.0875,-3.0351,-2.933,-3.0714,-3.0649,-2.933,-3.0065,-3.0088,-2.9473,-2.7994,-2.7403,-2.7358,-2.5186,-2.4414,-2.4498,-2.3809,-2.3541,-2.3541,-2.3541,0.0,0.0,0.0,0.0,0.0,0.0,0.0,-2.8595,-2.8787,-3.064,-3.2736,-3.2736,-3.2736,-3.2911,-3.3827,-3.4692,-3.5335,-3.5522,-3.6073,-3.659,-3.6738,-3.6664,-3.6497,-3.6497,-3.6497,-3.6442,-3.6201,-3.6201,-3.6201,-3.6201,-3.6201,-3.6201,-3.6201,-3.6201,-3.6201,-3.6201,-3.6586,-3.7007,-3.7393,-3.7796,-3.8199,-3.8542,-3.856,-3.856,-3.856,-3.856,-3.856,-3.856,-3.856,-3.856,-3.856,-3.856,-3.856,-3.856,-3.856,-3.856,-3.856,-3.856,-3.856,-3.856,-3.856,-3.856,-3.856,-3.856,-3.856,-3.856,-3.856,-3.7614,-3.6255,0.0,0.0,0.0,0.0,0.0,0.0,0.0,0.0,0.0,0.0,0.0,0.0,0.0,0.0,0.0,0.0,0.0,0.0,0.0,0.0,0.0,-3.2093,-3.2138,-3.2168,-3.2168,-3.092,-3.0785,-3.1832,-3.0785,-2.9918,-2.9123,-3.052,-3.0324,-2.8726,-2.8991,-2.916,-2.9093,-2.7825,-2.8052,-2.8927,-2.6519,-2.5596,-2.5498,-2.4334,-2.3848,-2.3919,-2.4191,-2.4222,-2.4181,-2.4181,0.0,0.0,0.0,0.0,-2.8428,-2.8491,-2.9916,-3.1508,-3.1508,-3.1719,-3.2333,-3.4103,-3.4841,-3.5227,-3.5614,-3.5981,-3.6349,-3.6664,-3.6423,-3.6201,-3.6275,-3.6293,-3.6201,-3.6201,-3.6201,-3.6201,-3.6201,-3.6201,-3.6201,-3.6201,-3.6201,-3.6201,-3.6201,-3.6531,-3.6916,-3.7393,-3.7723,-3.8126,-3.8542,-3.856,-3.856,-3.856,-3.856,-3.856,-3.856,-3.856,-3.856,-3.856,-3.856,-3.856,-3.856,-3.856,-3.856,-3.856,-3.856,-3.856,-3.856,-3.856,-3.856,-3.856,-3.856,-3.8402,-3.8145,-3.8145,-3.7095,-3.5658,0.0,0.0,0.0,0.0,0.0,0.0,0.0,0.0,0.0,0.0,-3.1377,-3.1377,0.0,0.0,0.0,0.0,0.0,0.0,0.0,0.0,0.0,-3.2514,-3.1308,-3.0581,-3.0581,-3.0446,-2.9816,-2.8806,-2.9816,-2.963,-2.8386,-2.9817,-2.8985,-2.6384,-2.763,-2.7523,-2.6459,-2.618,-2.5594,-2.4607,-2.4252,-2.4201,-2.4431,-2.4214,-2.4142,-2.4286,-2.5684,-2.5981,-2.5678,-2.5678,-2.5678,0.0,0.0,0.0,-2.6843,-2.7067,-2.9186,-3.1508,-3.1508,-3.2438,-3.3702,-3.4681,-3.5187,-3.5624,-3.6036,-3.6386,-3.6664,-3.6349,-3.6201,-3.6293,-3.6664,-3.6442,-3.6201,-3.6201,-3.6201,-3.6201,-3.6201,-3.6201,-3.6201,-3.6201,-3.6201,-3.6201,-3.6201,-3.6256,-3.6604,-3.7374,-3.7466,-3.7833,-3.8524,-3.856,-3.856,-3.856,-3.856,-3.856,-3.856,-3.856,-3.856,-3.856,-3.856,-3.856,-3.856,-3.856,-3.856,-3.856,-3.856,-3.856,-3.856,-3.856,-3.856,-3.856,-3.856,-3.7649,-3.6333,-3.6333,-3.4441,-3.1975,0.0,0.0,0.0,0.0,0.0,0.0,0.0,0.0,0.0,0.0,0.0,-3.1818,0.0,0.0,0.0,-3.2331,0.0,0.0,0.0,0.0,0.0,-3.2955,-3.2525,-3.2289,-3.2289,-3.0578,-2.981,-3.0037,-2.8969,-2.8067,-2.7499,-2.8138,-2.7498,-2.5903,-2.6519,-2.6623,-2.6152,-2.5328,-2.5154,-2.5466,-2.4612,-2.4329,-2.4449,-2.4449,-2.4449,-2.4509,-2.5226,-2.5347,-2.5235,-2.5235,-2.5235,-2.5249,-2.562,0.0,0.0,0.0,-2.8429,-3.043,-3.1296,-3.2,-3.2914,-3.4611,-3.5099,-3.5445,-3.6036,-3.6349,-3.6423,-3.6201,-3.6201,-3.6275,-3.6423,-3.6275,-3.6201,-3.6201,-3.6201,-3.6201,-3.6201,-3.6201,-3.6201,-3.6201,-3.6201,-3.6201,-3.6201,-3.6201,-3.6549,-3.7356,-3.7429,-3.7778,-3.8524,-3.856,-3.856,-3.856,-3.856,-3.856,-3.856,-3.856,-3.856,-3.856,-3.856,-3.856,-3.856,-3.856,-3.856,-3.856,-3.856,-3.856,-3.856,-3.856,-3.7986,-3.7152,-3.7152,-3.6092,-3.4538,-3.4538,-3.325,-3.1464,0.0,0.0,0.0,0.0,0.0,0.0,0.0,0.0,0.0,0.0,0.0,0.0,0.0,0.0,0.0,0.0,-3.2845,0.0,0.0,0.0,0.0,-3.2809,-3.308,-3.2876,-3.2088,-3.0217,-2.9576,-3.0359,-2.8012,-2.6867,-2.6867,-2.6502,-2.6041,-2.5584,-2.5584,-2.5712,-2.5927,-2.4811,-2.508,-2.6225,-2.5065,-2.4857,-2.5139,-2.4784,-2.4844,-2.5212,-2.5212,-2.5212,-2.5212,-2.5212,-2.5212,-2.5286,-2.6078,-2.6298,0.0,0.0,0.0,-2.9075,-3.0997,-3.1209,-3.1537,-3.4306,-3.4739,-3.4722,-3.5943,-3.6201,-3.6201,-3.6201,-3.6201,-3.6201,-3.6201,-3.6201,-3.6201,-3.6201,-3.6201,-3.6201,-3.6201,-3.6201,-3.6201,-3.6201,-3.6201,-3.6201,-3.6201,-3.6201,-3.6512,-3.7228,-3.7374,-3.7741,-3.8438,-3.8505,-3.856,-3.856,-3.856,-3.856,-3.856,-3.856,-3.856,-3.856,-3.856,-3.856,-3.856,-3.856,-3.856,-3.856,-3.856,-3.856,-3.856,-3.856,-3.7809,-3.6654,-3.6155,-3.4944,-3.3315,-3.2905,-3.2023,-3.0981,0.0,0.0,0.0,0.0,0.0,0.0,0.0,0.0,0.0,0.0,0.0,0.0,-3.2588,-3.2955,-3.3193,-3.3193,-3.3541,-3.3743,-3.3743,-3.378,0.0,-3.1614,-3.1649,0.0,-2.7303,-2.8501,-2.8501,-2.7157,-2.7012,-2.6867,-2.6867,-2.5433,-2.4683,-2.4656,-2.4656,-2.467,-2.4683,-2.4609,-2.4623,-2.471,-2.4636,-2.5506,-2.6648,-2.5139,-2.5506,-2.6794,-2.6794,-2.6794,-2.6794,-2.6794,-2.6794,-2.6517,-2.5139,-2.471,-2.471,0.0,0.0,0.0,-3.0643,-3.043,-3.0238,-3.4091,-3.3909,-3.343,-3.5647,-3.6201,-3.6201,-3.6201,-3.6201,-3.6201,-3.6201,-3.6201,-3.6201,-3.6201,-3.6201,-3.6201,-3.6201,-3.6201,-3.6201,-3.6201,-3.6201,-3.6201,-3.6201,-3.6201,-3.6384,-3.6824,-3.7209,-3.7613,-3.8016,-3.842,-3.856,-3.856,-3.856,-3.856,-3.856,-3.856,-3.856,-3.856,-3.856,-3.856,-3.856,-3.856,-3.856,-3.856,-3.856,-3.856,-3.856,-3.856,-3.856,-3.8322,-3.6654,-3.4944,-3.3233,-3.152,-3.0198,-2.9119,0.0,0.0,0.0,0.0,0.0,0.0,0.0,0.0,0.0,0.0,0.0,0.0,0.0,-3.3505,-3.3182,-3.2175,-3.1352,-3.0855,-3.0855,-3.0855,0.0,-3.0075,-2.9987,-2.9504,-2.8429,-2.7939,-2.7433,-2.6867,-2.5932,-2.5433,-2.5433,-2.4857,-2.4636,-2.4636,-2.4636,-2.4636,-2.4636,-2.4636,-2.4636,-2.4636,-2.4636,-2.4931,-2.5359,-2.4784,-2.4918,-2.558,-2.6502,-2.6298,-2.558,-2.659,-2.6225,-2.5359,-2.4784,-2.4636,-2.4784,-2.5786,-2.5786,-2.6064,-2.9218,-2.8932,-2.8381,-3.1284,-3.2346,-3.3064,-3.4346,-3.5438,-3.6201,-3.6201,-3.6201,-3.6201,-3.6201,-3.6201,-3.6201,-3.6201,-3.6201,-3.6201,-3.6201,-3.6201,-3.6201,-3.6201,-3.6201,-3.6201,-3.6201,-3.6201,-3.6384,-3.6806,-3.7209,-3.7594,-3.7998,-3.842,-3.856,-3.856,-3.856,-3.856,-3.856,-3.856,-3.856,-3.856,-3.856,-3.856,-3.856,-3.856,-3.856,-3.856,-3.856,-3.856,-3.856,-3.856,-3.725,-3.5187,-3.462,-3.2577,-2.9955,-2.9384,-2.9108,-2.9045,0.0,0.0,0.0,0.0,0.0,0.0,0.0,0.0,0.0,-3.2603,0.0,0.0,0.0,0.0,-3.186,-3.0785,-2.9774,-2.9202,-2.9202,-2.9202,-2.8988,-2.8429,-2.8916,-2.8701,-2.7707,-2.7143,-2.6648,-2.6152,-2.5065,-2.4636,-2.4636,-2.4636,-2.4636,-2.4636,-2.4636,-2.4636,-2.4636,-2.4636,-2.4636,-2.4636,-2.4636,-2.4931,-2.5286,-2.4784,-2.4918,-2.5433,-2.5932,-2.5506,-2.4857,-2.6371,-2.5859,-2.471,-2.5212,-2.4991,-2.4784,-2.5859,-2.5433,-2.5139,-2.7707,-2.7288,-2.6807,-2.9591,-3.0711,-3.1573,-3.3354,-3.4597,-3.5512,-3.6052,-3.6201,-3.6201,-3.6201,-3.6201,-3.6201,-3.6201,-3.6201,-3.6293,-3.6349,-3.6293,-3.6275,-3.6367,-3.6275,-3.6201,-3.6201,-3.6275,-3.6478,-3.6604,-3.7065,-3.7623,-3.8028,-3.8453,-3.8669,-3.8798,-3.8719,-3.864,-3.8798,-3.864,-3.8719,-3.8798,-3.864,-3.856,-3.856,-3.856,-3.856,-3.856,-3.856,-3.856,-3.856,-3.856,-3.6912,-3.4197,-3.3642,-3.1587,-2.8964,-2.8389,-2.8524,-2.9045,0.0,0.0,0.0,0.0,0.0,0.0,0.0,0.0,-3.1437,-3.1437,0.0,0.0,0.0,0.0,0.0,-2.9131,-2.9059,-2.9059,-2.9059,-2.9059,-2.8429,-2.6867,0.0,0.0,-2.4636,-2.6078,-2.6078,-2.4636,-2.4636,-2.4636,-2.4636,-2.4636,-2.4636,-2.4636,-2.4636,-2.4636,-2.4649,-2.4562,-2.4636,-2.4636,-2.4649,-2.5506,-2.6648,-2.5152,-2.558,-2.6721,-2.5286,-2.471,-2.4991,-2.6502,-2.6005,-2.4918,-2.6371,-2.5786,-2.4636,-2.4636,-2.4636,-2.4931,0.0,0.0,0.0,-2.922,-2.9091,-2.8973,-3.2827,-3.3676,-3.4221,-3.5829,-3.6126,-3.6126,-3.6201,-3.6201,-3.6201,-3.6201,-3.6201,-3.6349,-3.6738,-3.6442,-3.6349,-3.6738,-3.6442,-3.6201,-3.6201,-3.659,-3.6664,-3.6293,-3.696,-3.7613,-3.8119,-3.8471,-3.8862,-3.9254,-3.8877,-3.8798,-3.9272,-3.8798,-3.8798,-3.9272,-3.8798,-3.856,-3.856,-3.856,-3.856,-3.856,-3.856,-3.856,-3.856,-3.856,-3.757,-3.5753,-3.405,-3.233,-3.0538,-2.881,-2.8524,-2.9032,0.0,0.0,0.0,0.0,0.0,-2.9747,-2.9845,-2.9845,-2.9845,0.0,0.0,0.0,-2.9202,-2.8213,-2.7505,-2.7505,-2.6502,-2.5845,-2.5845,-2.5845,-2.5712,-2.5286,-2.5639,-2.5492,-2.4636,-2.4991,-2.4991,-2.4636,-2.4636,-2.4636,-2.4636,-2.4636,-2.4636,-2.4636,-2.4636,-2.4756,-2.4943,-2.473,-2.4636,-2.4649,-2.4863,-2.5046,-2.5239,-2.5026,-2.5774,-2.7012,-2.7707,-2.7924,-2.8141,-2.9718,-2.8444,-2.6152,-2.5433,-2.4918,-2.4636,-2.4636,-2.4636,-2.471,-2.5139,0.0,0.0,0.0,0.0,0.0,-2.9992,-3.1146,-3.2446,-3.4145,-3.4446,-3.4822,-3.5978,-3.6201,-3.6201,-3.6201,-3.6201,-3.6201,-3.6349,-3.6275,-3.6201,-3.6349,-3.6293,-3.6201,-3.6201,-3.6275,-3.6442,0.0,-3.7087,-3.7759,-3.85,-3.8946,-3.916,-3.9254,-3.8877,-3.8798,-3.9272,-3.8798,-3.8798,-3.9272,-3.8798,-3.856,-3.856,-3.856,-3.856,-3.856,-3.856,-3.856,-3.856,-3.856,-3.6832,-3.405,-3.356,-3.1587,-2.8894,-2.8389,-2.839,-2.8764,0.0,0.0,0.0,0.0,0.0,-2.8213,-2.8213,-2.8213,-2.8213,0.0,0.0,0.0,-2.7288,-2.6502,-2.5932,-2.5932,-2.5139,-2.4636,-2.4636,-2.4636,-2.4636,-2.4636,-2.4636,-2.4636,-2.4636,-2.4636,-2.4636,-2.4636,-2.4636,-2.4636,-2.4636,-2.4636,-2.4703,-2.4823,-2.4823,-2.4983,-2.5251,-2.5077,-2.4997,-2.501,-2.5184,-2.5157,-2.5024,-2.5197,-2.5671,-2.6461,-2.732,-2.7688,-2.7909,-2.9429,-2.8788,-2.698,-2.5446,-2.4997,-2.4997,-2.4997,-2.4997,-2.4997,-2.4997,-2.513,-2.5331,-2.5625,0.0,0.0,-2.8705,-2.9619,-3.0993,-3.3297,-3.3844,-3.4296,-3.5903,-3.6201,-3.6201,-3.6201,-3.6201,-3.6275,-3.6442,-3.6293,-3.6275,-3.6423,-3.6275,-3.6201,-3.6201,-3.6349,-3.6645,-3.7054,-3.7426,-3.8083,-3.9128,-3.9464,-3.9666,-3.9805,-3.9193,-3.9193,-3.9805,-3.9351,-3.9272,-3.9588,-3.9114,-3.8798,-3.856,-3.856,-3.8719,-3.8877,-3.8877,-3.8877,-3.8877,-3.8877,-3.7152,-3.4457,-3.3724,-3.167,-2.9216,-2.8473,-2.8337,-2.8644,0.0,0.0,-2.4636,-2.4636,-2.5712,-2.6648,-2.6648,-2.6648,-2.6648,0.0,-2.5433,-2.4636,-2.4636,-2.4663,-2.469,-2.469,-2.4716,-2.473,-2.473,-2.473,-2.473,-2.473,-2.473,-2.473,-2.473,-2.473,-2.473,-2.473,-2.473,-2.473,-2.473,-2.473,-2.4877,-2.513,-2.513,-2.5291,-2.5558,-2.5558,-2.5585,-2.5611,-2.5571,-2.5545,-2.5518,-2.5545,-2.5621,-2.5734,-2.5734,-2.5886,-2.6191,-2.7377,-2.783,-2.7528,-2.5963,-2.5518,-2.5518,-2.5518,-2.5518,-2.5518,-2.5518,-2.5545,-2.5625,-2.597,-2.5985,0.0,-2.8253,-2.8622,-2.9464,-3.2614,-3.3222,-3.3751,-3.5363,-3.5662,-3.5662,-3.5662,-3.5829,-3.6126,-3.6664,-3.6442,-3.6349,-3.6664,-3.6442,-3.6201,-3.6201,-3.6627,-3.7036,-3.7484,-3.7878,-3.8652,-3.9913,-3.9928,-4.0059,-4.0509,-3.9726,-3.9726,-4.0509,-4.0137,-3.9902,-3.9902,-3.9509,-3.9114,-3.864,-3.864,-3.8956,-3.9351,-3.9272,-3.9272,-3.9351,-3.9272,-3.795,-3.5833,-3.405,-3.233,-3.0622,-2.881,-2.8323,-2.8591,0.0,-2.4636,-2.4636,-2.4636,-2.4857,-2.5065,-2.5065,-2.5065,-2.5065,-2.5065,-2.4784,-2.4636,-2.4636,-2.485,-2.4997,-2.4997,-2.5211,-2.5344,-2.5344,-2.5344,-2.5344,-2.5344,-2.5344,-2.5344,-2.5344,-2.5344,-2.5344,-2.5344,-2.5344,-2.5344,-2.5344,-2.5344,-2.5371,-2.5424,-2.5424,-2.5598,-2.5865,-2.5865,-2.5999,-2.6199,-2.5959,-2.5732,-2.5545,-2.5785,-2.6474,-2.7377,-2.7377,-2.8131,-2.9091,-2.8131,-2.783,-2.7528,-2.5963,-2.5518,-2.5518,-2.5518,-2.5518,-2.5518,-2.5518,-2.5692,-2.5879,-2.5945,-2.6132,0.0,-2.6833,-2.686,-2.7476,-2.9464,-2.9851,-3.0315,-3.1988,-3.2293,-3.2293,-3.2293,-3.3373,-3.4747,-3.6126,-3.6293,-3.6201,-3.6293,-3.6293,-3.6201,-3.6201,-3.6886,-3.7409,-3.7408,-3.8424,-3.9413,-4.0356,-4.0099,-4.0059,-4.0509,-4.0059,-3.9981,-4.0509,-4.0137,-3.9902,-3.9902,-3.9823,-3.9588,-3.9193,-3.9193,-3.943,-3.9745,-3.9035,-3.9114,-3.9745,-3.9035,-3.7649,-3.5833,-3.405,-3.233,-3.0622,-2.881,-2.8261,-2.8283,-2.4636,-2.4636,-2.4636,-2.4636,-2.4636,-2.4636,-2.4636,-2.4636,-2.4636,-2.4636,-2.477,-2.4917,-2.505,-2.5211,-2.5291,-2.5291,-2.5424,-2.5518,-2.5518,-2.5518,-2.5518,-2.5518,-2.5518,-2.5518,-2.5518,-2.5518,-2.5518,-2.5518,-2.5518,-2.5518,-2.5518,-2.5518,-2.5585,-2.5732,-2.5732,-2.5905,-2.6172,-2.6172,-2.6253,-2.6373,-2.6226,-2.6079,-2.5972,-2.6119,-2.6612,-2.7094,-2.7094,-2.762,-2.8158,-2.7389,-2.7094,-2.694,-2.6179,-2.5945,-2.5945,-2.5945,-2.5945,-2.5945,-2.5945,-2.6052,-2.6172,-2.6172,-2.6279,0.0,0.0,-2.6386,-2.6847,-2.8544,-2.8934,-2.9386,-3.0993,-3.13,-3.13,-3.13,-3.269,-3.3751,-3.3751,-3.5214,-3.6201,-3.6201,-3.6201,-3.6292,-3.6494,-3.709,-3.7821,-3.8614,-3.9452,-4.0142,-4.0821,-4.0451,-4.0372,-4.0841,-4.0451,-4.0451,-4.0841,-4.0607,-4.0451,-4.0216,-4.0216,-3.9981,-3.9588,-3.9588,-3.9823,-4.0197,-3.9726,-3.9823,-4.0137,-3.9509,-3.8047,-3.6075,-3.4132,-3.233,-3.0622,-2.881,-2.8221,-2.8274,-2.4636,-2.4636,-2.4636,-2.4636,-2.4636,-2.4636,-2.4636,-2.4636,-2.4589,-2.4716,-2.4983,-2.5251,-2.5491,-2.5558,-2.5598,-2.5598,-2.5651,-2.5678,-2.5678,-2.5678,-2.5678,-2.5678,-2.5678,-2.5678,-2.5678,-2.5678,-2.5678,-2.5678,-2.5678,-2.5678,-2.5678,-2.5678,-2.5812,-2.6117,-2.6117,-2.6172,-2.6386,-2.6386,-2.6386,-2.6386,-2.6386,-2.6386,-2.6386,-2.6386,-2.6386,-2.6386,-2.6386,-2.6386,-2.6386,-2.6386,-2.6386,-2.6386,-2.6386,-2.6386,-2.6386,-2.6386,-2.6386,-2.6386,-2.6386,-2.6386,-2.6386,-2.6386,-2.6386,-2.6386,0.0,0.0,0.0,-2.8168,-2.8388,-2.8856,-3.0145,-3.0377,-3.0361,-3.03,0.0,0.0,0.0,-3.385,0.0,-3.5754,-3.605,-3.6457,-3.6806,-3.7349,-3.8348,-3.9875,-4.0239,-4.0607,-4.1172,-4.0763,-4.0763,-4.1172,-4.0841,-4.0841,-4.1172,-4.1172,-4.0919,-4.0509,-4.0588,-4.0451,-4.0059,-4.0059,-4.0216,-4.0588,-4.0431,-4.0509,-4.0588,-4.0137,-3.8524,-3.6155,-3.4197,-3.233,-3.0622,-2.881,-2.8221,-2.8261,-2.4636,-2.4636,-2.4636,-2.4636,-2.4636,-2.4636,-2.4636,-2.4636,-2.473,-2.4997,-2.5277,-2.5478,-2.5504,-2.5745,-2.5905,-2.5905,-2.6146,-2.6293,-2.6293,-2.6293,-2.6293,-2.6293,-2.6293,-2.6293,-2.6293,-2.6293,-2.6293,-2.6293,-2.6293,-2.6293,-2.6293,-2.6293,-2.6306,-2.6333,-2.6333,-2.636,-2.6386,-2.6386,-2.6386,-2.6386,-2.6386,-2.6386,-2.6386,-2.6386,-2.6386,-2.6386,-2.6386,-2.6386,-2.6386,-2.6386,-2.6386,-2.6386,-2.6386,-2.6386,-2.6386,-2.6386,-2.6386,-2.6386,-2.6386,-2.6386,0.0,0.0,-2.6386,-2.6386,-2.6386,0.0,-2.6465,-2.6623,0.0,-2.6781,-2.6925,0.0,0.0,0.0,0.0,0.0,-2.8998,-3.3003,-3.5662,-3.4221,-3.561,-3.6787,-3.6824,-3.7868,-3.9101,-4.0335,-4.0099,-4.0294,-4.1172,-4.0763,-4.0763,-4.1172,-4.1172,-4.1172,-4.1172,-4.1172,-4.0919,-4.0509,-4.0919,-4.0841,-4.0431,-4.0431,-4.0685,-4.1094,-4.0294,-4.0372,-4.1094,-4.0235,-3.8109,-3.5332,-3.3969,-3.233,-3.0622,-2.881,-2.8221,-2.8234,-2.4636,-2.4636,-2.4636,-2.4636,-2.4636,-2.4636,-2.4636,-2.4783,-2.5064,-2.5531,-2.5692,-2.5838,-2.5999,-2.6132,-2.6213,-2.6213,-2.6319,-2.6386,-2.6386,-2.6386,-2.6386,-2.6386,-2.6386,-2.6386,-2.6386,-2.6386,-2.6386,-2.6386,-2.6386,-2.6386,-2.6386,-2.6386,-2.6386,-2.6386,-2.6386,-2.6386,-2.6386,-2.6386,-2.6386,-2.6386,-2.6386,-2.6386,-2.6386,-2.6386,-2.6386,-2.6386,-2.6386,-2.6386,-2.6386,-2.6386,-2.6386,-2.6386,-2.6386,-2.6386,-2.6386,-2.6386,0.0,0.0,0.0,0.0,0.0,0.0,0.0,0.0,-2.6386,0.0,-2.6386,0.0,0.0,0.0,0.0,0.0,0.0,0.0,-2.8302,0.0,0.0,0.0,-3.4521,-3.3919,0.0,0.0,-3.7792,-3.8365,-3.9164,-4.0412,-4.0137,-4.0313,-4.1172,-4.0997,-4.1016,-4.1172,-4.1172,-4.1172,-4.1172,-4.1172,-4.1094,-4.0919,-4.1094,-4.1094,-4.0919,-4.0919,-4.0997,-4.1172,-4.0782,-4.086,-4.1094,-3.9393,-3.7374,-3.5089,-3.3331,-3.1369,-2.9565,-2.8558,-2.8221,-2.8221,-2.4636,-2.4636,-2.4636,-2.4636,-2.4636,-2.4663,-2.4743,-2.5077,-2.5478,-2.5905,-2.6026,-2.6159,-2.6373,-2.6386,-2.6386,-2.6386,-2.6386,-2.6386,-2.6386,-2.6386,-2.6386,-2.6386,-2.6386,-2.6386,-2.6386,-2.6386,-2.6386,-2.6386,-2.6386,-2.6386,-2.6386,-2.6386,-2.6386,-2.6386,-2.6386,-2.6386,-2.6386,-2.6386,-2.6386,-2.6386,-2.6386,-2.644,-2.6493,-2.6413,-2.644,-2.6507,-2.6507,-2.656,-2.6627,-2.6627,-2.6627,-2.6627,-2.6627,-2.6627,-2.6627,0.0,0.0,0.0,-2.6627,0.0,0.0,0.0,0.0,0.0,0.0,0.0,0.0,0.0,0.0,0.0,0.0,0.0,-2.636,-2.6279,0.0,-2.8281,0.0,-3.0253,0.0,0.0,0.0,0.0,0.0,-3.8716,-3.9193,-4.0118,-4.0118,-4.0372,-4.0997,-4.1094,-4.1172,-4.1172,-4.1172,-4.1172,-4.1172,-4.1172,-4.1172,-4.1172,-4.1172,-4.1172,-4.1172,-4.1172,-4.1172,-4.1172,-4.1172,-4.1172,-4.1016,-3.898,-3.7037,-3.5251,-3.3085,-3.0969,-2.9076,-2.8571,-2.8403,-2.8318,-2.4636,-2.4636,-2.4636,-2.4636,-2.4636,-2.473,-2.5024,-2.5558,-2.601,-2.6037,-2.6199,-2.6373,-2.6386,-2.6386,-2.6386,-2.6386,-2.6386,-2.6386,-2.6386,-2.6386,-2.6386,-2.6386,-2.6386,-2.6386,-2.6386,-2.6386,-2.6386,-2.6386,-2.6386,-2.6386,-2.6386,-2.6386,-2.6386,-2.6386,-2.6386,-2.6386,-2.6386,-2.6386,-2.6386,-2.6386,-2.6386,-2.656,-2.6774,-2.6493,-2.656,-2.6814,-2.6814,-2.6987,-2.7241,-2.7241,-2.7241,-2.7241,0.0,0.0,0.0,0.0,0.0,0.0,0.0,0.0,0.0,-2.7241,0.0,0.0,0.0,0.0,-2.6386,0.0,0.0,0.0,0.0,0.0,-2.6306,-2.609,-2.7657,0.0,0.0,0.0,0.0,0.0,0.0,0.0,0.0,-3.8776,-3.9272,-3.9351,-4.004,-4.0509,-4.0509,-4.0919,-4.1172,-4.1172,-4.1172,-4.1172,-4.1172,-4.1172,-4.1172,-4.1172,-4.1172,-4.1172,-4.1172,-4.1172,-4.1172,-4.1172,-4.1172,-4.1172,-4.1094,-3.9295,-3.7516,-3.5753,-3.3544,-3.1617,-3.0012,-2.9076,-2.874,-2.874,-2.4636,-2.4636,-2.4636,-2.4636,-2.4796,-2.509,-2.5585,-2.5903,-2.6026,-2.6213,-2.6333,-2.6386,-2.6386,-2.6386,-2.6386,-2.6386,-2.6386,-2.6386,-2.6386,-2.6386,-2.6386,-2.6386,-2.6386,-2.6386,-2.6386,-2.6386,-2.6386,-2.6386,-2.6386,-2.6386,-2.6386,-2.6386,-2.6386,-2.6386,-2.6386,-2.6386,-2.6386,-2.6386,-2.6386,-2.6413,-2.66,-2.6854,-2.7081,-2.6787,-2.6854,-2.7108,-2.7108,-2.7987,-2.9029,-2.9029,-2.9822,-3.0771,-3.0771,-3.0771,-3.0771,-3.0771,-3.0771,-3.0771,0.0,0.0,-3.045,-2.9353,0.0,0.0,0.0,0.0,0.0,0.0,0.0,0.0,0.0,0.0,-2.636,-2.6266,-2.6792,-2.7056,0.0,0.0,0.0,0.0,0.0,0.0,0.0,0.0,-3.943,-3.9666,-4.0197,-4.0666,-4.0919,-4.1094,-4.1172,-4.1172,-4.1172,-4.1172,-4.1172,-4.1172,-4.1172,-4.1172,-4.1172,-4.1172,-4.1172,-4.1172,-4.1172,-4.1172,-4.1172,-4.1172,-4.1016,-3.8091,-3.6557,-3.5672,-3.2674,-3.1067,-3.0499,-2.9565,-2.923,-2.9244,-2.4636,-2.4636,-2.4636,-2.4636,-2.497,-2.5398,-2.5879,-2.6039,-2.6172,-2.636,-2.6386,-2.6386,-2.6386,-2.6386,-2.6386,-2.6386,-2.6386,-2.6386,-2.6386,-2.6386,-2.6386,-2.6386,-2.6386,-2.6386,-2.6386,-2.6386,-2.6386,-2.6386,-2.6386,-2.6386,-2.6386,-2.6386,-2.6386,-2.6386,-2.6386,-2.6386,-2.64,-2.6507,-2.6547,-2.6573,-2.6867,-2.7161,-2.7402,-2.7201,-2.7255,-2.7497,-2.8139,-2.8781,-2.9439,-3.0728,-3.1442,-3.2006,-3.2649,-3.2794,-3.2794,-3.2794,-3.2794,-3.2794,-3.2794,-3.2794,0.0,-3.1457,-3.1043,0.0,-2.8793,0.0,-2.8177,0.0,0.0,0.0,0.0,0.0,-2.693,-2.8182,-2.7231,-2.6386,0.0,-2.9231,0.0,-3.4221,-3.6106,-3.7374,0.0,-3.8494,-3.9105,-3.9823,-4.0137,-4.0451,-4.0919,-4.1094,-4.1172,-4.1172,-4.1172,-4.1172,-4.1172,-4.1172,-4.1172,-4.1172,-4.1172,-4.1172,-4.1172,-4.1172,-4.1172,-4.1172,-4.1172,-4.0841,-4.0021,-3.7197,-3.5591,-3.4799,-3.1963,-3.0817,-3.0734,-2.9998,-2.9649,-2.9398,-2.4636,-2.4649,-2.4663,-2.469,-2.5157,-2.5638,-2.5932,-2.6213,-2.6386,-2.6386,-2.6386,-2.6386,-2.6386,-2.6386,-2.6386,-2.6386,-2.6386,-2.6386,-2.6386,-2.6386,-2.6386,-2.6386,-2.6386,-2.6386,-2.6386,-2.6386,-2.6386,-2.6386,-2.6386,-2.6386,-2.6386,-2.6386,-2.6386,-2.6386,-2.6386,-2.64,-2.6426,-2.6707,-2.6841,-2.6894,-2.7175,-2.7455,-2.7722,-2.7722,-2.7722,-2.7971,-2.9596,-2.9381,-2.8796,-3.2165,-3.2247,-3.1354,-3.2987,-3.356,-3.3642,-3.3642,-3.3642,-3.3642,-3.3642,-3.3642,-3.3642,-3.356,-3.3305,0.0,0.0,0.0,-3.0027,0.0,0.0,0.0,0.0,0.0,0.0,-3.1167,-2.8776,-2.6558,-2.6623,0.0,-3.1453,-3.1529,-3.4644,-3.7159,-3.7947,-3.8028,-3.8572,-3.9805,-3.9902,-4.0137,0.0,-4.0919,-4.1172,-4.1172,-4.1172,-4.1172,-4.1172,-4.1172,-4.1172,-4.1172,-4.1172,-4.1172,-4.1172,-4.1172,-4.1172,-4.1172,-4.1172,-4.0275,-3.8566,-3.6717,-3.5042,-3.3347,-3.1467,-3.0817,-3.0734,-3.0332,-2.9914,-2.9481,-2.4636,-2.481,-2.5104,-2.5545,-2.5745,-2.5945,-2.6239,-2.6346,-2.6386,-2.6386,-2.6386,-2.6386,-2.6386,-2.6386,-2.6386,-2.6386,-2.6386,-2.6386,-2.6386,-2.6386,-2.6386,-2.6386,-2.6386,-2.6386,-2.6386,-2.6386,-2.6386,-2.6386,-2.6386,-2.6386,-2.6386,-2.6386,-2.6386,-2.6386,-2.6386,-2.6507,-2.672,-2.6787,-2.7068,-2.7482,-2.7562,-2.7762,-2.8114,-2.8114,-2.8114,-2.8114,-2.8603,-2.9314,-3.0289,-3.1203,-3.2905,-3.4782,-3.5187,-3.6253,-3.725,-3.725,-3.725,-3.725,-3.725,-3.725,-3.6912,-3.5672,-3.5282,-3.4795,0.0,0.0,0.0,0.0,0.0,0.0,0.0,0.0,0.0,0.0,0.0,0.0,0.0,0.0,0.0,-3.4822,0.0,0.0,-3.7546,-3.8183,-3.8903,-3.9805,-4.0216,-4.0529,-4.1016,0.0,-4.1172,-4.1172,-4.1172,-4.1172,-4.1172,-4.1172,-4.1172,-4.1172,-4.1172,-4.1172,-4.1172,-4.1172,-4.1172,-4.1172,-4.1172,-4.0938,-4.0275,-3.7277,-3.5753,-3.5025,-3.1963,-3.0817,-3.0832,-3.0665,-3.0415,-2.9998,-2.481,-2.517,-2.5571,-2.597,-2.6066,-2.6199,-2.636,-2.6386,-2.6386,-2.6386,-2.6386,-2.6386,-2.6386,-2.6386,-2.6386,-2.6386,-2.6386,-2.6386,-2.6386,-2.6386,-2.6386,-2.6386,-2.6386,-2.6386,-2.6386,-2.6386,-2.6386,-2.6386,-2.6386,-2.6386,-2.6386,-2.6386,-2.6453,-2.6573,-2.6573,-2.6747,-2.7028,-2.7148,-2.7468,-2.7896,-2.7896,-2.7989,0.0,-2.8221,-2.8221,-2.8221,-2.8221,-2.881,-3.0038,-3.233,-3.3887,-3.5106,-3.6654,-3.7809,-3.856,-3.856,-3.856,-3.856,-3.856,-3.856,-3.8402,-3.741,-3.7152,-3.6654,-3.4944,-3.4538,-3.4473,0.0,-3.3678,-3.329,0.0,0.0,0.0,0.0,0.0,0.0,0.0,0.0,0.0,0.0,-3.6707,0.0,-3.7649,-3.8294,-3.9,-3.9883,-3.9981,0.0,0.0,0.0,-4.0997,-4.1172,-4.1172,-4.1172,-4.1172,-4.1172,-4.1172,-4.1172,-4.1172,-4.1172,-4.1172,-4.1172,-4.1172,-4.1172,-4.1172,-4.0372,-3.8743,-3.6797,-3.5106,-3.3495,-3.155,-3.0817,-3.0817,-3.0817,-3.0665,-3.0415,-2.513,-2.5611,-2.605,-2.609,-2.6226,-2.6386,-2.6386,-2.6386,-2.6386,-2.6386,-2.6386,-2.6386,-2.6386,-2.6386,-2.6386,-2.6386,-2.6386,-2.6386,-2.6386,-2.6386,-2.6386,-2.6386,-2.6386,-2.6386,-2.6386,-2.6386,-2.6386,-2.6386,-2.6386,-2.6413,-2.6453,-2.6453,-2.66,-2.6881,-2.6881,-2.7041,-2.7348,-2.7629,-2.7909,-2.8221,-2.8221,-2.8221,-2.8221,-2.8221,-2.8305,-2.8473,-2.8305,-2.8305,-2.9216,-3.3789,-3.4457,-3.3969,-3.725,-3.8225,-3.8322,-3.856,-3.856,-3.856,-3.856,-3.856,-3.856,-3.856,-3.856,-3.8225,-3.6654,-3.6333,-3.6333,-3.6333,-3.5106,-3.4944,-3.7729,0.0,0.0,0.0,0.0,0.0,0.0,0.0,0.0,0.0,0.0,0.0,-3.7979,-3.8346,-3.8981,-3.9805,-3.9588,0.0,0.0,0.0,-4.0763,-4.1172,-4.1172,-4.1172,-4.1172,-4.1172,-4.1172,-4.1172,-4.1172,-4.1172,-4.1172,-4.1172,-4.1172,-4.1172,-4.1172,-3.9471,-3.6637,-3.6155,-3.3985,-3.0817,-3.0817,-3.0817,-3.0817,-3.0817,-3.0817,-3.0734,-2.5692,-2.597,-2.6039,-2.6266,-2.636,-2.6386,-2.6386,-2.6386,-2.6386,-2.6386,-2.6386,-2.6386,-2.6386,-2.6386,-2.6386,-2.6386,-2.6386,-2.6386,-2.6386,-2.6386,-2.6386,-2.6386,-2.6386,-2.6386,-2.6386,-2.6386,-2.6386,-2.6386,-2.6386,-2.6507,-2.6747,-2.6747,-2.6907,-2.7188,-2.7188,-2.7348,-2.7642,-2.7936,-2.8181,-2.8221,-2.8221,-2.8221,-2.8221,-2.8221,-2.9048,-3.0122,-2.8726,-2.9132,-3.0455,-3.1437,-3.2494,-3.3724,-3.5833,-3.6494,-3.6735,-3.8145,-3.856,-3.856,-3.856,-3.856,-3.856,-3.856,-3.856,-3.856,-3.8225,-3.8145,-3.8145,-3.8145,-3.7906,-3.741,-3.6574,0.0,0.0,0.0,0.0,0.0,0.0,0.0,0.0,0.0,0.0,-3.835,0.0,0.0,0.0,0.0,0.0,0.0,0.0,0.0,-4.1094,0.0,-4.1172,-4.1172,0.0,0.0,-4.1172,-4.1172,-4.1172,-4.1172,-4.1172,-4.1172,-4.1172,-4.1172,-4.1172,-4.0841,-4.004,-3.7215,-3.3985,-3.0817,-3.0817,-3.0817,-3.0817,-3.0817,-3.0817,-3.0832,-2.5905,-2.6079,-2.6226,-2.636,-2.6386,-2.6386,-2.6386,-2.6386,-2.6386,-2.6386,-2.6386,-2.6386,-2.6386,-2.6386,-2.6386,-2.6386,-2.6386,-2.6386,-2.6386,-2.6386,-2.6386,-2.6386,-2.6386,-2.6466,-2.6613,-2.6613,-2.6694,-2.6841,-2.6841,-2.6921,-2.7054,-2.7054,-2.7215,-2.7495,-2.7655,-2.7886,-2.7936,-2.8167,-2.8221,-2.8221,-2.8221,-2.8221,-2.8305,-2.9216,-3.0038,-3.0788,-3.0856,-3.2,-3.3397,-3.2412,-3.2741,-3.3887,-3.6494,-3.7312,-3.749,-3.8304,-3.856,-3.856,-3.856,-3.856,-3.856,-3.856,-3.856,-3.856,-3.856,-3.856,-3.856,-3.856,-3.856,-3.8066,-3.6316,-3.6092,0.0,0.0,0.0,0.0,0.0,0.0,-3.8053,0.0,0.0,0.0,0.0,0.0,0.0,0.0,0.0,0.0,0.0,0.0,-4.0919,0.0,0.0,0.0,-4.1172,0.0,-4.1172,-4.1172,-4.1172,-4.1172,-4.1172,-4.1172,-4.1172,-4.1172,-4.1172,-4.0685,-3.9629,-3.7037,-3.4457,-3.2128,-3.2128,-3.1632,-3.0817,-3.0817,-3.0817,-3.0817,-2.613,-2.6239,-2.6386,-2.6386,-2.6386,-2.6386,-2.6386,-2.6386,-2.6386,-2.6386,-2.6386,-2.6386,-2.6386,-2.644,-2.648,-2.648,-2.6533,-2.6573,-2.6573,-2.6573,-2.6573,-2.6573,-2.6573,-2.668,-2.6907,-2.6921,-2.7028,0.0,0.0,-2.7228,-2.7175,-2.7295,-2.7509,-2.7802,-2.8043,-2.8221,-2.8221,-2.8642,-2.8558,-2.8221,-2.9048,-2.9048,-2.8964,-3.0705,-3.1602,-3.2015,-3.3069,-3.4538,-3.5753,-3.4457,-3.3952,-3.4538,-3.7649,-3.8322,-3.8145,-3.8481,-3.856,-3.856,-3.856,-3.856,-3.856,-3.856,-3.856,-3.856,-3.856,-3.856,-3.856,-3.856,-3.856,-3.8066,-3.6316,-3.741,0.0,0.0,0.0,0.0,0.0,0.0,0.0,0.0,0.0,0.0,-3.8798,0.0,0.0,0.0,0.0,0.0,-4.0588,0.0,0.0,0.0,0.0,-4.1172,-4.1172,0.0,-4.1172,-4.1172,-4.1172,-4.1172,-4.1172,-4.1172,-4.1172,-4.1172,-4.1172,-4.0197,-3.8469,-3.7117,-3.5268,-3.3429,-3.3429,-3.2376,-3.0817,-3.0817,-3.0817,-3.0817,-2.6346,-2.6373,-2.6386,-2.6386,-2.6386,-2.6386,-2.6386,-2.6386,-2.6386,-2.6386,-2.6386,-2.6386,-2.6386,-2.6627,-2.6787,-2.6787,-2.7028,-2.7188,-2.7188,-2.7188,-2.7188,-2.7188,-2.7188,-2.7201,-2.7228,-2.7228,-2.7241,0.0,0.0,-2.7134,-2.6867,-2.7415,-2.7816,-2.8181,-2.8221,-2.8221,0.0,-2.9886,-2.9635,-2.8473,-3.167,-3.2,-3.0788,-3.2494,-3.4132,-3.5349,-3.3887,-3.4538,-3.5994,-3.5833,-3.5753,-3.6075,-3.7986,-3.749,-3.6574,-3.8145,-3.856,-3.856,-3.856,-3.856,-3.856,-3.856,-3.856,-3.856,-3.856,-3.856,-3.856,-3.856,-3.856,-3.8066,-3.6316,-3.741,-3.8066,0.0,0.0,0.0,0.0,0.0,-3.6975,-3.9017,0.0,0.0,-3.943,-3.8029,0.0,0.0,-4.0353,0.0,0.0,0.0,0.0,-4.1172,-4.1172,-4.1172,-4.1172,-4.1172,-4.1172,-4.1172,-4.1172,-4.1172,-4.1172,-4.1172,-4.1172,-4.1172,-4.1172,-4.0197,-3.8566,-3.8408,-3.6396,-3.3429,-3.3429,-3.2376,-3.0817,-3.0817,-3.0817,-3.0817,-2.6386,-2.6386,-2.6386,-2.6386,-2.6386,-2.6453,-2.6627,-2.6653,-2.6707,-2.6894,-2.676,-2.672,-2.6894,-2.7014,-2.7094,-2.7094,-2.7201,-2.7268,-2.7268,-2.7268,-2.7268,-2.7268,-2.7268,-2.7348,-2.7522,-2.7522,-2.7615,0.0,0.0,0.0,0.0,-2.7856,-2.8603,-2.9802,0.0,-3.1339,-3.1339,-3.2083,-3.1918,-3.1422,-3.2823,-3.2987,-3.2577,-3.4294,-3.543,-3.6075,-3.6414,-3.6992,-3.757,-3.757,-3.6895,-3.6316,-3.8066,-3.8145,-3.7729,-3.8402,-3.856,-3.856,-3.856,-3.856,-3.856,-3.856,-3.856,-3.856,-3.856,-3.856,-3.856,-3.856,-3.856,-3.8481,-3.8047,-3.8542,-3.8859,-3.8444,0.0,0.0,0.0,0.0,0.0,-3.9588,0.0,-3.8249,0.0,-3.9569,-3.9707,0.0,0.0,0.0,0.0,0.0,0.0,-4.1172,0.0,-4.1172,-4.1172,-4.1172,-4.1172,-4.1172,-4.1172,-4.1172,-4.1172,-4.1172,-4.1172,-4.1172,-4.1172,-4.0763,-4.0197,-4.0197,-3.8724,-3.6396,-3.5349,-3.3903,-3.2211,-3.1233,-3.0817,-3.0817,-2.6386,-2.6386,-2.6413,-2.6507,-2.652,-2.6613,-2.6907,-2.6947,-2.7054,-2.7362,-2.7215,-2.7121,-2.7255,-2.7348,-2.7388,-2.7388,-2.7468,-2.7522,-2.7522,-2.7522,-2.7522,-2.7522,-2.7522,-2.7615,-2.7829,-2.7829,-2.7936,-2.8221,-2.8221,0.0,0.0,0.0,0.0,0.0,-3.2823,-3.3397,-3.3397,-3.3969,-3.3887,-3.3479,-3.4538,-3.462,-3.4376,-3.6092,-3.6735,-3.6912,-3.8145,-3.856,-3.856,-3.856,-3.7809,-3.6992,-3.8225,-3.856,-3.856,-3.856,-3.856,-3.856,-3.856,-3.856,-3.856,-3.856,-3.856,-3.856,-3.856,-3.856,-3.856,-3.856,-3.856,-3.8719,-3.9193,-3.9193,-3.9272,-3.9823,0.0,0.0,0.0,-3.949,0.0,0.0,-3.9216,-3.9059,-4.0137,-4.0118,-4.0275,-4.0666,-4.0685,0.0,0.0,0.0,0.0,0.0,0.0,0.0,-4.1172,-4.1172,-4.1172,-4.1172,-4.1172,-4.1172,-4.1172,-4.1172,-4.1172,-4.1172,-4.1172,-4.1172,-4.1172,-4.1172,-4.0197,-3.8408,-3.6717,-3.4944,-3.3183,-3.1482,-3.0817,-3.0817,-2.6386,-2.6386,-2.648,-2.6774,-2.6814,-2.6921,-2.7215,-2.7268,-2.7362,-2.7655,-2.7696,-2.7575,-2.7295,-2.7522,-2.7696,-2.7696,-2.7963,-2.8221,-2.8221,-2.8221,-2.8221,-2.8221,-2.8221,-2.8221,-2.8221,-2.8221,-2.8221,-2.8221,0.0,0.0,-2.9917,0.0,-3.281,-3.3397,-3.3397,-3.3397,-3.3479,-3.5268,-3.4944,-3.3724,-3.717,-3.749,-3.6155,-3.7888,-3.856,-3.856,-3.856,-3.856,-3.856,-3.856,-3.856,-3.856,-3.856,-3.856,-3.856,-3.856,-3.856,-3.856,-3.856,-3.856,-3.856,-3.856,-3.856,-3.856,-3.856,-3.856,-3.856,-3.856,-3.856,-3.8719,-3.9193,-3.8956,-3.8877,-3.9745,0.0,0.0,0.0,-3.8408,0.0,-4.0256,-3.67,-3.5977,-4.0685,-3.8882,-3.839,-4.1016,-4.1172,0.0,0.0,0.0,0.0,-4.1172,-4.1172,0.0,-4.1172,-4.1172,-4.1172,-4.1172,-4.1172,-4.1172,-4.1172,-4.1172,-4.1172,-4.1172,-4.1172,-4.1172,-4.1172,-4.1172,-4.0197,-3.8408,-3.6717,-3.4944,-3.3183,-3.1482,-3.0817,-3.0817,-2.668,-2.6854,-2.7014,-2.7108,-2.7121,-2.7228,-2.7522,-2.7562,-2.7669,-2.7963,-2.8003,-2.8047,-2.7953,-2.8033,-2.8003,-2.8003,-2.8167,-2.8221,-2.8221,-2.8221,-2.8221,-2.8221,-2.8221,-2.8221,-2.8221,-2.8221,-2.881,-2.9969,0.0,0.0,0.0,-3.4113,-3.4953,-3.5187,-3.6414,-3.6912,-3.701,-3.757,-3.749,-3.701,-3.8145,-3.8225,-3.7809,-3.8402,-3.856,-3.856,-3.856,-3.856,-3.856,-3.856,-3.856,-3.856,-3.856,-3.856,-3.856,-3.856,-3.856,-3.856,-3.856,-3.856,-3.856,-3.856,-3.856,-3.8719,-3.9035,-3.9272,-3.9509,-3.9509,-3.9509,-3.9588,-4.004,-3.9962,-4.0137,-4.0704,-4.0704,0.0,-4.0782,0.0,-4.0197,-4.0919,-3.9786,-3.955,-4.1094,-4.0431,0.0,0.0,0.0,0.0,0.0,0.0,0.0,0.0,-4.1172,0.0,-4.1172,-4.1172,-4.1172,-4.1172,-4.1172,-4.1172,-4.1172,-4.1172,-4.1172,-4.1172,-4.1172,-4.1172,-4.1172,-4.1172,-4.0841,-4.0197,-3.8487,-3.6717,-3.4961,-3.3183,-3.1798,-3.0817,-2.6987,-2.7134,-2.7308,-2.7415,-2.7428,-2.7522,-2.7816,-2.7869,-2.7936,-2.8207,-2.8221,-2.8221,-2.8221,-2.8221,-2.8221,-2.8221,-2.8221,-2.8221,-2.8221,-2.8221,-2.8473,-2.9132,-2.9216,-2.9467,-3.0107,-3.0122,0.0,-3.1768,-3.2412,-3.3315,-3.4457,-3.6172,-3.6992,-3.6992,-3.8145,-3.856,-3.856,-3.856,-3.856,-3.856,-3.856,-3.856,-3.856,-3.856,-3.856,-3.856,-3.856,-3.856,-3.856,-3.856,-3.856,-3.856,-3.856,-3.856,-3.856,-3.856,-3.856,-3.856,-3.856,-3.856,-3.864,-3.8798,-3.8877,-3.8956,-3.943,-3.9745,-3.9902,-3.9902,-3.9902,-4.0059,-4.0431,-4.0353,-4.0451,-4.1094,-4.1094,-4.1016,-4.1172,0.0,-4.1172,0.0,0.0,-4.0997,0.0,-4.1016,-4.0997,0.0,0.0,0.0,0.0,0.0,-4.1172,-4.1172,-4.1172,-4.1172,-4.1172,-4.1172,-4.1172,-4.1172,-4.1172,-4.1172,-4.1172,-4.1172,-4.1172,-4.1172,-4.1172,-4.1172,-4.1172,-4.1172,-4.1172,-4.1016,-3.9295,-3.7516,-3.5753,-3.4066,-3.2293,-3.0817,-2.7295,-2.7308,-2.7415,-2.7682,-2.7722,-2.7829,-2.8181,-2.8221,-2.8221,-2.8221,-2.8221,-2.8221,-2.8221,-2.8221,-2.8221,-2.8389,-2.8305,-2.8221,-2.8221,-2.8305,-2.9132,-3.0705,-3.0954,-3.1768,-3.3397,-3.3397,-3.3479,-3.356,-3.5349,-3.6155,-3.6236,-3.7809,-3.856,-3.856,-3.856,-3.856,-3.856,-3.856,-3.856,-3.856,-3.856,-3.856,-3.856,-3.856,-3.856,-3.856,-3.856,-3.856,-3.856,-3.856,-3.856,-3.856,-3.856,-3.856,-3.856,-3.856,-3.856,-3.856,-3.856,-3.856,-3.8719,-3.9114,-3.9272,-3.943,-3.9823,-3.9981,-3.9981,-3.9981,-3.9981,-4.0059,-4.0509,-4.0216,-4.0235,-4.1094,-4.0841,-4.0666,-4.1172,-4.1172,-4.1172,0.0,0.0,0.0,-4.1172,-4.0841,-4.0763,0.0,0.0,0.0,0.0,0.0,-4.1172,-4.1172,-4.1172,-4.1172,-4.1172,-4.1172,-4.1172,-4.1172,-4.1172,-4.1172,-4.1172,-4.1172,-4.1172,-4.1172,-4.1172,-4.1172,-4.1172,-4.1172,-4.1172,-4.1016,-3.9374,-3.7675,-3.5994,-3.4229,-3.2458,-3.0984,-2.7602,-2.7776,-2.8047,-2.8114,-2.8043,-2.814,-2.8221,-2.8221,-2.8221,-2.8221,-2.8221,-2.8221,-2.8221,-2.8221,-2.8726,-3.0038,-2.8978,-2.8221,-2.8221,-2.9467,-3.0372,-3.0788,-3.2098,-3.2987,-3.3397,-3.3397,-3.405,-3.5349,-3.7152,-3.7986,-3.7986,-3.8402,-3.856,-3.856,-3.856,-3.856,-3.856,-3.856,-3.856,-3.856,-3.856,-3.856,-3.856,-3.856,-3.856,-3.856,-3.856,-3.856,-3.856,-3.856,-3.856,-3.856,-3.856,-3.856,-3.856,-3.856,-3.856,-3.856,-3.856,-3.856,-3.864,-3.8719,-3.9272,-3.9902,-4.0275,-4.0607,-4.086,-4.086,-4.086,-4.0938,-4.1016,-4.0938,-4.0938,-4.1172,-4.1094,-4.1094,-4.1172,-4.1172,-4.1172,0.0,-4.1094,-4.1094,-4.1172,-4.1094,-4.1094,0.0,0.0,-4.1172,-4.1172,-4.1172,-4.1172,-4.1172,-4.1172,-4.1172,-4.1172,-4.1172,-4.1172,-4.1172,-4.1172,-4.1172,-4.1172,-4.1172,-4.1172,-4.1172,-4.1172,-4.1172,-4.1172,-4.1172,-4.1172,-4.1172,-4.0763,-3.955,-3.7755,-3.5994,-3.4311,-3.2608,-2.7896,-2.8114,-2.8221,-2.8221,-2.8221,-2.8221,-2.8221,-2.8221,-2.8221,-2.8221,-2.8221,-2.8473,-2.93,-2.9537,-3.0274,-3.185,-3.0372,-2.9704,-3.0524,-3.1437,-3.233,-3.3151,-3.4034,-3.4944,-3.577,-3.577,-3.6253,-3.7152,-3.8145,-3.856,-3.856,-3.856,-3.856,-3.856,-3.856,-3.856,-3.856,-3.856,-3.8719,-3.8877,-3.8719,-3.8719,-3.8877,-3.8719,-3.856,-3.856,-3.856,-3.856,-3.856,-3.856,-3.856,-3.856,-3.856,-3.856,-3.856,-3.856,-3.856,-3.856,-3.856,-3.856,-3.864,-3.8877,-3.9588,-4.0197,-4.0431,-4.0841,-4.1172,-4.1172,-4.1172,-4.1172,-4.1172,-4.1172,-4.1172,-4.1172,-4.1172,-4.1172,-4.1172,-4.1172,-4.1172,-4.1172,-4.1172,-4.1172,-4.1172,-4.1172,-4.1172,-4.1172,-4.1172,0.0,-4.1172,-4.1172,-4.1172,-4.1172,-4.1172,-4.1172,-4.1172,-4.1172,-4.1172,-4.1172,-4.1172,-4.1172,-4.1172,-4.1172,-4.1172,-4.1172,-4.1172,-4.1172,-4.1172,-4.1172,-4.1172,-4.1172,-4.1172,-4.0099,-3.8408,-3.6637,-3.488,-3.3183,-2.8221,-2.8221,-2.8221,-2.8221,-2.8221,-2.8221,-2.8221,-2.8221,-2.8221,-2.8221,-2.8221,-2.8894,-3.0622,-3.1091,-3.1985,-3.3708,-3.2494,-3.2165,-3.3397,-3.3789,-3.4684,-3.6155,-3.6477,-3.7312,-3.8798,-3.8798,-3.8798,-3.8719,-3.8719,-3.864,-3.856,-3.856,-3.864,-3.8719,-3.8719,-3.8719,-3.8798,-3.8798,-3.8956,-3.9272,-3.8877,-3.8877,-3.9114,-3.8719,-3.856,-3.856,-3.856,-3.856,-3.856,-3.856,-3.856,-3.856,-3.856,-3.856,-3.856,-3.856,-3.856,-3.856,-3.856,-3.856,-3.8719,-3.9272,-3.9883,-4.0431,-4.0588,-4.0919,-4.1172,-4.1172,-4.1172,-4.1172,-4.1172,-4.1172,-4.1172,-4.1172,-4.1172,-4.1172,-4.1172,0.0,-4.1172,-4.1172,-4.1172,-4.1172,-4.1172,-4.1172,-4.1172,-4.1172,-4.1172,-4.1172,-4.1172,-4.1172,-4.1172,-4.1172,-4.1172,-4.1172,-4.1172,-4.1172,-4.1172,-4.1172,-4.1172,-4.1172,-4.1172,-4.1172,-4.1172,-4.1172,-4.1172,-4.1172,-4.1172,-4.1172,-4.1172,-4.1172,-4.1172,-4.0099,-3.8408,-3.6637,-3.488,-3.3183,-2.8221,-2.8221,-2.8221,-2.8221,-2.8221,-2.8221,-2.8221,-2.8221,-2.8221,-2.8221,-2.8221,-2.8894,-3.0622,-3.0871,-3.233,-3.5816,-3.5833,-3.517,-3.3952,-3.5655,-3.686,-3.7099,-3.8505,-3.943,-3.9666,-3.9666,-3.9509,-3.9193,-3.9193,-3.8956,-3.856,-3.856,-3.8798,-3.9193,-3.9193,-3.9351,-3.9666,-3.9666,-3.9509,-3.9272,-3.9193,-3.9035,-3.8719,-3.864,-3.856,-3.856,-3.856,-3.856,-3.856,-3.856,-3.856,-3.856,-3.856,-3.856,-3.856,-3.856,-3.856,-3.856,-3.856,-3.856,-3.8798,-3.9588,-3.9902,-4.0216,-4.0938,-4.1172,-4.1172,-4.1172,-4.1172,-4.1172,-4.1172,-4.1172,-4.1172,-4.1172,-4.1172,-4.1172,-4.1172,0.0,-4.1172,-4.1172,-4.1172,-4.1172,-4.1172,-4.1172,-4.1172,-4.1172,-4.1172,-4.1172,-4.1172,-4.1172,-4.1172,-4.1172,-4.1172,-4.1172,-4.1172,-4.1172,-4.1172,-4.1172,-4.1172,-4.1172,-4.1172,-4.1172,-4.1172,-4.1172,-4.1172,-4.1172,-4.1172,-4.1172,-4.1172,-4.1172,-4.1172,-4.0099,-3.8408,-3.6637,-3.488,-3.3183,-2.8221,-2.8221,-2.8221,-2.8221,-2.8221,-2.8234,-2.8487,-2.8305,-2.8305,-2.8487,-2.8318,-2.9216,-3.1933,-3.2412,-3.405,-3.7711,-3.8426,-3.8249,-3.7215,-3.8091,-3.8664,-3.8664,-3.949,-3.9902,-3.9902,-3.9902,-3.9823,-3.9588,-3.9588,-3.9509,-3.9272,-3.9272,-3.943,-3.9588,-3.9588,-3.9745,-3.9902,-3.9902,-3.9902,-3.9962,-3.9745,-3.9588,-3.9569,-3.9351,-3.9272,-3.9272,-3.9272,-3.9193,-3.8956,-3.8956,-3.8956,-3.8956,-3.8956,-3.9114,-3.9272,-3.9272,-3.9114,-3.8956,-3.8956,-3.9114,-3.943,-3.9823,-4.0059,-4.0372,-4.0763,-4.1016,-4.1172,-4.1172,-4.1172,-4.1172,-4.1172,-4.1172,-4.1172,-4.1172,-4.1172,-4.1172,-4.1172,-4.1172,-4.1172,-4.1172,-4.1172,-4.1172,-4.1172,-4.1172,-4.1172,-4.1172,-4.1172,-4.1172,-4.1172,-4.1172,-4.1172,-4.1172,-4.1172,-4.1172,-4.1172,-4.1172,-4.1172,-4.1172,-4.1172,-4.1172,-4.1172,-4.1172,-4.1172,-4.1172,-4.1172,-4.1172,-4.1172,-4.1172,-4.1172,-4.1094,-4.0197,-3.9295,-3.831,-3.5591,-3.4066,-3.3183,-2.8221,-2.8221,-2.8221,-2.8221,-2.8221,-2.8318,-2.8655,-2.8487,-2.8487,-2.874,-2.8571,-2.9704,-3.3315,-3.3805,-3.5413,-3.9254,-4.004,-4.0294,-4.0216,-4.0216,-4.0137,-4.0059,-4.0137,-4.0216,-4.0216,-4.0216,-4.0137,-4.0059,-4.0059,-3.9981,-3.9902,-3.9902,-3.9981,-4.0059,-4.0059,-4.0059,-4.0216,-4.0216,-4.0294,-4.0509,-4.0137,-4.0216,-4.0353,-4.0059,-3.9902,-3.9902,-3.9902,-3.9666,-3.943,-3.943,-3.943,-3.943,-3.943,-3.9666,-3.9902,-3.9902,-3.9745,-3.9569,-3.943,-3.9666,-3.9902,-4.0059,-4.0275,-4.0509,-4.0666,-4.0919,-4.1172,-4.1172,-4.1172,-4.1172,-4.1172,-4.1172,-4.1172,-4.1172,0.0,-4.1172,-4.1172,-4.1172,-4.1172,-4.1172,-4.1172,-4.1172,-4.1172,-4.1172,-4.1172,-4.1172,-4.1172,-4.1172,-4.1172,-4.1172,-4.1172,-4.1172,-4.1172,-4.1172,-4.1172,-4.1172,-4.1172,-4.1172,-4.1172,-4.1172,-4.1172,-4.1172,-4.1172,-4.1172,-4.1172,-4.1172,-4.1172,-4.1172,-4.1172,-4.1016,-3.9295,-3.831,-3.7596,-3.4555,-3.3101,-3.2623,-2.8221,-2.8221,-2.8221,-2.8221,-2.8221,-2.8234,-2.8234,-2.8571,-2.874,-2.8824,-2.874,-3.0205,-3.4213,-3.3887,-3.5332,-4.0021,-4.0137,-4.0294,-4.1016,-4.1094,-4.0919,-4.0509,-4.0841,-4.1094,-4.1094,-4.1094,-4.0919,-4.0431,-4.0431,-4.0294,-3.9902,-3.9902,-4.0137,-4.0431,-4.0431,-4.0685,-4.1094,-4.1094,-4.0841,-4.0509,-4.0509,-4.0294,-3.9902,-3.9902,-3.9902,-3.9902,-3.9902,-3.9902,-3.9823,-3.9823,-3.9823,-3.9823,-3.9823,-3.9902,-3.9902,-3.9902,-4.0118,-4.0353,-3.9981,-3.9902,-3.9981,-4.0353,-4.0509,-4.0588,-4.1094,-4.1172,-4.1172,-4.1172,-4.1172,-4.1172,-4.1172,-4.1172,-4.1172,-4.1172,0.0,0.0,-4.1172,-4.1172,-4.1172,-4.1172,-4.1172,-4.1172,-4.1172,-4.1172,-4.1172,-4.1172,-4.1172,-4.1172,-4.1172,-4.1172,-4.1172,-4.1172,-4.1172,-4.1172,-4.1172,-4.1172,-4.1172,-4.1172,-4.1172,-4.1172,-4.1172,-4.1172,-4.1172,-4.1172,-4.1172,-4.1172,-4.1172,-4.1172,-4.1172,-4.1016,-3.9295,-3.7596,-3.5994,-3.4066,-3.2376,-3.0984,-2.8221,-2.8221,-2.8221,-2.8221,-2.8221,-2.8305,-2.8571,-2.874,-2.8824,-2.8824,-2.9076,-3.0538,-3.3871,-3.3249,-3.4294,-3.8505,-3.8743,-3.884,-3.9156,-4.0451,-4.1094,-4.0919,-4.1094,-4.1172,-4.1172,-4.1172,-4.1094,-4.0919,-4.0919,-4.086,-4.0704,-4.0704,-4.0782,-4.0919,-4.0919,-4.0997,-4.1172,-4.1172,-4.1094,-4.0919,-4.0919,-4.0841,-4.0704,-4.0704,-4.0704,-4.0704,-4.0704,-4.0529,-4.0275,-4.0275,-4.0275,-4.0275,-4.0275,-4.0451,-4.0704,-4.0704,-4.0841,-4.0919,-4.0782,-4.0704,-4.0782,-4.0919,-4.0919,-4.0997,-4.1172,-4.1172,-4.1172,-4.1172,-4.1172,-4.1172,-4.1172,-4.1172,-4.1172,-4.1172,0.0,-4.1172,-4.1172,-4.1172,-4.1172,-4.1172,-4.1172,-4.1172,-4.1172,-4.1172,-4.1172,-4.1172,-4.1172,-4.1172,-4.1172,-4.1172,-4.1172,-4.1172,-4.1172,-4.1172,-4.1172,-4.1172,-4.1172,-4.1172,-4.1172,-4.1172,-4.1172,-4.1172,-4.1172,-4.1172,-4.1172,-4.1172,-4.1172,-4.1172,-4.1172,-4.0919,-3.8091,-3.6557,-3.5672,-3.2854,-3.1399,-3.0817,-2.8221,-2.8221,-2.8221,-2.8221,-2.8221,-2.8305,-2.874,-2.8824,-2.8824,-2.8992,-2.9816,-3.1354,-3.4115,-3.3969,-3.5106,-3.8664,-3.8664,-3.8664,-3.8901,-4.0372,-4.1172,-4.1172,-4.1172,-4.1172,-4.1172,-4.1172,-4.1172,-4.1172,-4.1172,-4.1172,-4.1172,-4.1172,-4.1172,-4.1172,-4.1172,-4.1172,-4.1172,-4.1172,-4.1172,-4.1172,-4.1172,-4.1172,-4.1172,-4.1172,-4.1172,-4.1172,-4.1172,-4.0997,-4.0763,-4.0763,-4.0763,-4.0763,-4.0763,-4.0919,-4.1172,-4.1172,-4.1172,-4.1172,-4.1172,-4.1172,-4.1172,-4.1172,-4.1172,-4.1172,-4.1172,-4.1172,-4.1172,-4.1172,-4.1172,-4.1172,-4.1172,-4.1172,-4.1172,-4.1172,-4.1172,-4.1172,-4.1172,-4.1172,-4.1172,-4.1172,-4.1172,-4.1172,-4.1172,-4.1172,-4.1172,-4.1172,-4.1172,-4.1172,-4.1172,-4.1172,-4.1172,-4.1172,-4.1172,-4.1172,-4.1172,-4.1172,-4.1172,-4.1172,-4.1172,-4.1172,-4.1172,-4.1172,-4.1172,-4.1172,-4.1172,-4.1172,-4.1172,-4.1172,-4.1172,-4.0841,-3.7374,-3.5994,-3.5591,-3.2113,-3.0817,-3.0817,-2.8221,-2.8221,-2.8221,-2.8221,-2.8221,-2.8305,-2.874,-2.8824,-2.8992,-2.9481,-3.1037,-3.2905,-3.5089,-3.6459,-3.831,-4.0919,-4.0391,-4.0216,-4.1172,-4.1172,-4.1172,-4.1172,-4.1172,-4.1172,-4.1172,-4.1172,-4.1172,-4.1172,-4.1172,-4.1172,-4.1172,-4.1172,-4.1172,-4.1172,-4.1172,-4.1172,-4.1172,-4.1172,-4.1172,-4.1172,-4.1172,-4.1172,-4.1172,-4.1172,-4.1172,-4.1172,-4.1172,-4.1172,-4.1172,-4.1172,-4.1172,-4.1172,-4.1172,-4.1172,-4.1172,-4.1172,-4.1172,-4.1172,-4.1172,-4.1172,-4.1172,-4.1172,-4.1172,-4.1172,-4.1172,-4.1172,-4.1172,-4.1172,-4.1172,-4.1172,-4.1172,-4.1172,-4.1172,-4.1172,-4.1172,-4.1172,-4.1172,-4.1172,-4.1172,-4.1172,-4.1172,-4.1172,-4.1172,-4.1172,-4.1172,-4.1172,-4.1172,-4.1172,-4.1172,-4.1172,-4.1172,-4.1172,-4.1172,-4.1172,-4.1172,-4.1172,-4.1172,-4.1172,-4.1172,-4.1172,-4.1172,-4.1172,-4.1172,-4.1172,-4.1172,-4.1172,-4.1172,-4.1172,-4.1172,-4.0841,-3.7374,-3.5994,-3.5591,-3.2113,-3.0817,-3.0832,-2.8221,-2.8221,-2.8221,-2.8221,-2.8221,-2.8305,-2.874,-2.9076,-2.9649,-3.0705,-3.2098,-3.3969,-3.6459,-3.5154,-3.5009,-3.7374,-3.7037,-3.7932,-4.1016,-4.1172,-4.1172,-4.1172,-4.1172,-4.1172,-4.1172,-4.1172,-4.1172,-4.1172,-4.1172,-4.1172,-4.1172,-4.1172,-4.1172,-4.1172,-4.1172,-4.1172,-4.1172,-4.1172,-4.1172,-4.1172,-4.1172,-4.1172,-4.1172,-4.1172,-4.1172,-4.1172,-4.1172,-4.1172,-4.1172,-4.1172,-4.1172,-4.1172,-4.1172,-4.1172,-4.1172,-4.1172,-4.1172,-4.1172,-4.1172,-4.1172,-4.1172,-4.1172,-4.1172,-4.1172,-4.1172,-4.1172,-4.1172,-4.1172,-4.1172,-4.1172,-4.1172,-4.1172,-4.1172,-4.1172,-4.1172,-4.1172,-4.1172,-4.1172,-4.1172,-4.1172,-4.1172,-4.1172,-4.1172,-4.1172,-4.1172,-4.1172,-4.1172,-4.1172,-4.1172,-4.1172,-4.1172,-4.1172,-4.1172,-4.1172,-4.1172,-4.1172,-4.1172,-4.1172,-4.1172,-4.1172,-4.1172,-4.1172,-4.1172,-4.1172,-4.1172,-4.1172,-4.1172,-4.1172,-4.1172,-4.0841,-3.7374,-3.5994,-3.5591,-3.2113,-3.0964,-3.1168,-2.8221,-2.8221,-2.8221,-2.8221,-2.8221,-2.8305,-2.874,-2.8908,-2.9398,-3.0538,-3.2577,-3.4294,-3.5396,-3.5234,-3.5332,-3.5914,-3.6396,-3.7516,-3.9707,-4.0685,-4.1172,-4.1172,-4.1172,-4.1172,-4.1172,-4.1172,-4.1172,-4.1172,-4.1172,-4.1172,-4.1172,-4.1172,-4.1172,-4.1172,-4.1172,-4.1172,-4.1172,-4.1172,-4.1172,-4.1172,-4.1172,-4.1172,-4.1172,-4.1172,-4.1172,-4.1172,-4.1172,-4.1172,-4.1172,-4.1172,-4.1172,-4.1172,-4.1172,-4.1172,-4.1172,-4.1172,-4.1172,-4.1172,-4.1172,-4.1172,-4.1172,-4.1172,-4.1172,-4.1172,-4.1172,-4.1172,-4.1172,-4.1172,-4.1172,-4.1172,-4.1172,-4.1172,-4.1172,-4.1172,-4.1172,-4.1172,-4.1172,-4.1172,-4.1172,-4.1172,-4.1172,-4.1172,-4.1172,-4.1172,-4.1172,-4.1172,-4.1172,-4.1172,-4.1172,-4.1172,-4.1172,-4.1172,-4.1172,-4.1172,-4.1172,-4.1172,-4.1172,-4.1172,-4.1172,-4.1172,-4.1172,-4.1172,-4.1172,-4.1172,-4.1172,-4.1172,-4.1172,-4.1172,-4.0763,-3.9864,-3.7117,-3.5693,-3.485,-3.1994,-3.1227,-3.1505,-2.8221,-2.8221,-2.8221,-2.8221,-2.8221,-2.8305,-2.874,-2.8487,-2.8642,-2.9565,-3.2479,-3.4099,-3.2972,-3.5977,-3.7436,-3.5914,-3.7197,-3.8091,-3.7932,-3.9883,-4.1016,-4.1172,-4.1172,-4.1172,-4.1172,-4.1172,-4.1172,-4.1172,-4.1172,-4.1172,-4.1172,-4.1172,-4.1172,-4.1172,-4.1172,-4.1172,-4.1172,-4.1172,-4.1172,-4.1172,-4.1172,-4.1172,-4.1172,-4.1172,-4.1172,-4.1172,-4.1172,-4.1172,-4.1172,-4.1172,-4.1172,-4.1172,-4.1172,-4.1172,-4.1172,-4.1172,-4.1172,-4.1172,-4.1172,-4.1172,-4.1172,-4.1172,-4.1172,-4.1172,-4.1172,-4.1172,-4.1172,-4.1172,-4.1172,-4.1172,-4.1172,-4.1172,-4.1172,-4.1172,-4.1172,-4.1172,-4.1172,-4.1172,-4.1172,-4.1172,-4.1172,-4.1172,-4.1172,-4.1172,-4.1172,-4.1172,-4.1172,-4.1172,-4.1172,-4.1172,-4.1172,-4.1172,-4.1172,-4.1172,-4.1172,-4.1172,-4.1172,-4.1172,-4.1172,-4.1172,-4.1172,-4.1172,-4.1191,-4.123,-4.123,-4.1172,-4.1035,-4.1035,-4.0056,-3.8261,-3.6581,-3.5096,-3.375,-3.202,-3.1563,-3.1841,-2.8221,-2.8221,-2.8221,-2.8221,-2.8221,-2.8305,-2.874,-2.9062,-2.9635,-3.0871,-3.2247,-3.3381,-3.4197,-3.3789,-3.3642,-3.3903,-3.4311,-3.5672,-3.8249,-3.8882,-3.9786,-4.1172,-4.1172,-4.1172,-4.1172,-4.1172,-4.1172,-4.1172,-4.1172,-4.1172,-4.1172,-4.1172,-4.1172,-4.1172,-4.1172,-4.1172,-4.1172,-4.1172,-4.1172,-4.1172,-4.1172,-4.1172,-4.1172,-4.1172,-4.1172,-4.1172,-4.1172,-4.1172,-4.1172,-4.1172,-4.1172,-4.1172,-4.1172,-4.1172,-4.1172,-4.1172,-4.1172,-4.1172,-4.1172,-4.1172,-4.1172,-4.1172,-4.1172,-4.1172,-4.1172,-4.1172,-4.1172,-4.1172,-4.1172,-4.1172,-4.1172,-4.1172,-4.1172,-4.1172,-4.1172,-4.1172,-4.1172,-4.1172,-4.1172,-4.1172,-4.1172,-4.1172,-4.1172,-4.1172,-4.1172,-4.1172,-4.1172,-4.1172,-4.1172,-4.1172,-4.1172,-4.1172,-4.1172,-4.1172,-4.1172,-4.1172,-4.1172,-4.1172,-4.1172,-4.1172,-4.1172,-4.1172,-4.1348,-4.166,-4.166,-4.1024,-4.0005,-4.0005,-3.8933,-3.7132,-3.5476,-3.4522,-3.4097,-3.2349,-3.19,-3.2222,-2.8221,-2.8221,-2.8221,-2.8221,-2.8221,-2.8234,-2.8487,-2.8726,-2.923,-3.0053,-3.1256,-3.215,-3.2165,-3.233,-3.2345,-3.2211,-3.2936,-3.4148,-3.5994,-3.7675,-3.904,-3.9943,-3.9943,-4.0353,-4.1172,-4.0353,-4.0353,-4.1172,-4.1172,-4.1172,-4.1172,-4.1172,-4.1172,-4.1172,-4.1172,-4.1172,-4.1172,-4.1172,-4.1172,-4.1172,-4.1172,-4.1172,-4.1172,-4.1172,-4.1172,-4.1172,-4.1172,-4.1172,-4.1172,-4.1172,-4.1172,-4.1172,-4.1172,-4.1172,-4.1172,-4.1172,-4.1172,-4.1172,-4.1172,-4.1172,-4.1172,-4.1172,-4.1172,-4.1172,-4.1172,-4.1172,-4.1172,-4.1172,-4.1172,-4.1172,-4.1172,-4.1172,-4.1172,-4.1172,-4.1172,-4.1172,-4.1172,-4.1172,-4.1172,-4.1172,-4.1172,-4.1172,-4.1172,-4.1172,-4.1172,-4.1172,-4.1172,-4.1172,-4.1172,-4.1172,-4.1172,-4.1172,-4.1172,-4.1172,-4.1172,-4.1172,-4.1172,-4.1172,-4.1172,-4.1172,-4.1172,-4.1172,-4.1406,-4.1797,-4.1797,-4.1455,-4.0914,-4.0084,-3.8676,-3.6875,-3.5119,-3.3979,-3.3279,-3.2363,-3.2237,-3.2544,-2.8221,-2.8221,-2.8221,-2.8221,-2.8221,-2.8221,-2.8221,-2.8221,-2.8403,-2.8655,-3.0107,-3.0676,-2.9649,-3.1203,-3.185,-3.09,-3.2046,-3.3019,-3.3347,-3.6075,-3.7993,-3.8566,-3.831,-3.9138,-4.1172,-3.9453,-3.9453,-4.1172,-4.1172,-4.1172,-4.1172,-4.1172,-4.1172,-4.1172,-4.1172,-4.1172,-4.1172,-4.1172,-4.1172,-4.1172,-4.1172,-4.1172,-4.1172,-4.1172,-4.1172,-4.1172,-4.1172,-4.1172,-4.1172,-4.1172,-4.1172,-4.1172,-4.1172,-4.1172,-4.1172,-4.1172,-4.1172,-4.1172,-4.1172,-4.1172,-4.1172,-4.1172,-4.1172,-4.1172,-4.1172,-4.1172,-4.1172,-4.1172,-4.1172,-4.1172,-4.1172,-4.1172,-4.1172,-4.1172,-4.1172,-4.1172,-4.1172,-4.1172,-4.1172,-4.1172,-4.1172,-4.1172,-4.1172,-4.1172,-4.1172,-4.1172,-4.1172,-4.1172,-4.1172,-4.1172,-4.1172,-4.1172,-4.1172,-4.1172,-4.1172,-4.1172,-4.1172,-4.1172,-4.0919,-4.0763,-4.0763,-4.0451,-4.0543,-4.1002,-4.1002,-4.1109,-4.1059,-3.9632,-3.7979,-3.6224,-3.4721,-3.3386,-3.2368,-3.2368,-3.2544,-3.2778,-2.8221,-2.8221,-2.8221,-2.8221,-2.8221,-2.8221,-2.8221,-2.8487,-2.8655,-2.8318,-2.9146,-2.9718,-2.9481,-3.0165,-3.0582,-3.0734,-3.0665,-3.1399,-3.3265,-3.3838,-3.543,-3.8487,-3.7197,-3.7852,-4.1094,-3.9453,-3.9453,-4.1172,-4.1172,-4.1172,-4.1172,-4.1172,-4.1172,-4.1172,-4.1172,-4.1172,-4.1172,-4.1172,-4.1172,-4.1172,-4.1172,-4.1172,-4.1172,-4.1172,-4.1172,-4.1172,-4.1172,-4.1172,-4.1172,-4.1172,-4.1172,-4.1172,-4.1172,-4.1172,-4.1172,-4.1172,-4.1172,-4.1172,-4.1172,-4.1172,-4.1172,-4.1172,-4.1172,-4.1172,-4.1172,-4.1172,-4.1172,-4.1172,-4.1172,-4.1172,-4.1172,-4.1172,-4.1172,-4.1172,-4.1172,-4.1172,-4.1172,-4.1172,-4.1172,-4.1172,-4.1172,-4.1172,-4.1172,-4.1172,-4.1172,-4.1172,-4.1172,-4.1172,-4.1172,-4.1172,-4.1172,-4.1172,-4.1172,-4.1172,-4.1172,-4.1172,-4.1172,-4.1172,-3.9707,-3.8961,-3.8882,-3.7357,-3.7101,-3.77,-3.77,-3.7282,-3.6404,-3.6145,-3.5036,-3.332,-3.3145,-3.2925,-3.2705,-3.2705,-3.2734,-3.2778,-2.8221,-2.8221,-2.8221,-2.8221,-2.8221,-2.8221,-2.8221,-2.8318,-2.8487,-2.8571,-2.8908,-2.923,-2.9481,-2.9914,-3.0332,-3.0749,-3.0665,-3.09,-3.1881,-3.2854,-3.4066,-3.5591,-3.4961,-3.6155,-3.9707,-3.8011,-3.8487,-4.1172,-4.1172,-4.1172,-4.1172,-4.1172,-4.1172,-4.1172,-4.1172,-4.1172,-4.1172,-4.1172,-4.1172,-4.1172,-4.1172,-4.1172,-4.1172,-4.1172,-4.1172,-4.1172,-4.1172,-4.1172,-4.1172,-4.1172,-4.1172,-4.1172,-4.1172,-4.1172,-4.1172,-4.1172,-4.1172,-4.1172,-4.1172,-4.1172,-4.1172,-4.1172,-4.1172,-4.1172,-4.1172,-4.1172,-4.1172,-4.1172,-4.1172,-4.1172,-4.1172,-4.1172,-4.1172,-4.1172,-4.1172,-4.1172,-4.1172,-4.1172,-4.1172,-4.1172,-4.1172,-4.1172,-4.1172,-4.1172,-4.1172,-4.1172,-4.1172,-4.1172,-4.1172,-4.1172,-4.1172,-4.1172,-4.1172,-4.1172,-4.1172,-4.1172,-4.0685,-3.9707,-3.8011,-3.7675,-3.8566,-3.6797,-3.6405,-3.7107,-3.7107,-3.7048,-3.6966,-3.5944,-3.5003,-3.4216,-3.3205,-3.2778,-3.2778,-3.2778,-3.2778,-3.2778]},{"header":{"parameterUnit":"m.s-1","parameterCategory":1,"la1":30.6,"la2":28.766,"lo1":-90.7593,"lo2":-88.6598,"dy":0.0162,"dx":0.0183,"nx":116,"ny":114,"refTime":"2023-10-06T12:00:00:Z","depth":0,"parameterNumber":3,"parameterNumberName":"V-component_of_WINDS"},"data":[0.0,0.0,0.0,0.0,0.0,0.0,0.0,0.0,0.0,0.0,0.0,0.0,0.0,0.0,0.0,0.0,0.0,0.0,0.0,0.0,0.0,0.0,0.0,0.0,0.0,0.0,0.0,0.0,0.0,0.0,0.0,0.0,0.0,0.0,0.0,0.0,0.0,0.0,0.0,0.0,0.0,0.0,0.0,0.0,0.0,0.0,0.0,0.0,0.0,0.0,0.0,0.0,0.0,0.0,0.0,0.0,0.0,0.0,0.0,0.0,0.0,0.0,0.0,0.0,0.0,0.0,0.0,0.0,0.0,0.0,0.0,0.0,0.0,0.0,0.0,0.0,0.0,0.0,0.0,0.0,0.0,0.0,0.0,0.0,0.0,0.0,0.0,0.0,0.0,0.0,0.0,0.0,0.0,0.0,0.0,0.0,0.0,0.0,0.0,0.0,0.0,0.0,0.0,0.0,0.0,0.0,0.0,0.0,0.0,0.0,0.0,0.0,0.0,0.0,0.0,0.0,0.0,0.0,0.0,0.0,0.0,0.0,0.0,0.0,0.0,0.0,0.0,0.0,0.0,0.0,0.0,0.0,0.0,0.0,0.0,0.0,0.0,0.0,0.0,0.0,0.0,0.0,0.0,0.0,0.0,0.0,0.0,0.0,0.0,0.0,0.0,0.0,0.0,0.0,0.0,0.0,0.0,0.0,0.0,0.0,0.0,0.0,0.0,0.0,0.0,0.0,0.0,0.0,0.0,0.0,0.0,0.0,0.0,0.0,0.0,0.0,0.0,0.0,0.0,0.0,0.0,0.0,0.0,0.0,0.0,0.0,0.0,0.0,0.0,0.0,0.0,0.0,0.0,0.0,0.0,0.0,0.0,0.0,0.0,0.0,0.0,0.0,0.0,0.0,0.0,0.0,0.0,0.0,0.0,0.0,0.0,0.0,0.0,0.0,0.0,0.0,0.0,0.0,0.0,0.0,0.0,0.0,0.0,0.0,0.0,0.0,0.0,0.0,0.0,0.0,0.0,0.0,0.0,0.0,0.0,0.0,0.0,0.0,0.0,0.0,0.0,0.0,0.0,0.0,0.0,0.0,0.0,0.0,0.0,0.0,0.0,0.0,0.0,0.0,0.0,0.0,0.0,0.0,0.0,0.0,0.0,0.0,0.0,0.0,0.0,0.0,0.0,0.0,0.0,0.0,0.0,0.0,0.0,0.0,0.0,0.0,0.0,0.0,0.0,0.0,0.0,0.0,0.0,0.0,0.0,0.0,0.0,0.0,0.0,0.0,0.0,0.0,0.0,0.0,0.0,0.0,0.0,0.0,0.0,0.0,0.0,0.0,0.0,0.0,0.0,0.0,0.0,0.0,0.0,0.0,0.0,0.0,0.0,0.0,0.0,0.0,0.0,0.0,0.0,0.0,0.0,0.0,0.0,0.0,0.0,0.0,0.0,0.0,0.0,0.0,0.0,0.0,0.0,0.0,0.0,0.0,0.0,0.0,0.0,0.0,0.0,0.0,0.0,0.0,0.0,0.0,0.0,0.0,0.0,0.0,0.0,0.0,0.0,0.0,0.0,0.0,0.0,0.0,0.0,0.0,0.0,0.0,0.0,0.0,0.0,0.0,0.0,0.0,0.0,0.0,0.0,0.0,0.0,0.0,0.0,0.0,0.0,0.0,0.0,0.0,0.0,0.0,0.0,0.0,0.0,0.0,0.0,0.0,0.0,0.0,0.0,0.0,0.0,0.0,0.0,0.0,0.0,0.0,0.0,0.0,0.0,0.0,0.0,0.0,0.0,0.0,0.0,0.0,0.0,0.0,0.0,0.0,0.0,0.0,0.0,0.0,0.0,0.0,0.0,0.0,0.0,0.0,0.0,0.0,0.0,0.0,0.0,0.0,0.0,0.0,0.0,0.0,0.0,0.0,0.0,0.0,0.0,0.0,0.0,0.0,0.0,0.0,0.0,0.0,0.0,0.0,0.0,0.0,0.0,0.0,0.0,0.0,0.0,0.0,0.0,0.0,0.0,0.0,0.0,0.0,0.0,0.0,0.0,0.0,0.0,0.0,0.0,0.0,0.0,0.0,0.0,0.0,0.0,0.0,0.0,0.0,0.0,0.0,0.0,0.0,0.0,0.0,0.0,0.0,0.0,0.0,0.0,0.0,0.0,0.0,0.0,0.0,0.0,0.0,0.0,0.0,0.0,0.0,0.0,0.0,0.0,0.0,0.0,0.0,0.0,0.0,0.0,0.0,0.0,0.0,0.0,0.0,0.0,0.0,0.0,0.0,0.0,0.0,0.0,0.0,0.0,0.0,0.0,0.0,0.0,0.0,0.0,0.0,0.0,0.0,0.0,0.0,0.0,0.0,0.0,0.0,0.0,0.0,0.0,0.0,0.0,0.0,0.0,0.0,0.0,0.0,0.0,0.0,0.0,0.0,0.0,0.0,0.0,0.0,0.0,0.0,0.0,0.0,0.0,0.0,0.0,0.0,0.0,0.0,0.0,0.0,0.0,0.0,0.0,0.0,0.0,0.0,0.0,0.0,0.0,0.0,0.0,0.0,0.0,0.0,0.0,0.0,0.0,0.0,0.0,0.0,0.0,0.0,0.0,0.0,0.0,0.0,0.0,0.0,0.0,0.0,0.0,0.0,0.0,0.0,0.0,0.0,0.0,0.0,0.0,0.0,0.0,0.0,0.0,0.0,0.0,0.0,0.0,0.0,0.0,0.0,0.0,0.0,0.0,0.0,0.0,0.0,0.0,0.0,0.0,0.0,0.0,0.0,0.0,0.0,0.0,0.0,0.0,0.0,0.0,0.0,0.0,0.0,0.0,0.0,0.0,0.0,0.0,0.0,0.0,0.0,0.0,0.0,0.0,0.0,0.0,0.0,0.0,0.0,0.0,0.0,0.0,0.0,0.0,0.0,0.0,0.0,0.0,0.0,0.0,0.0,0.0,0.0,0.0,0.0,0.0,0.0,0.0,0.0,0.0,0.0,0.0,0.0,0.0,0.0,0.0,0.0,0.0,0.0,0.0,0.0,0.0,0.0,0.0,0.0,0.0,0.0,0.0,0.0,0.0,0.0,0.0,0.0,0.0,0.0,0.0,0.0,0.0,0.0,0.0,0.0,0.0,0.0,0.0,0.0,0.0,0.0,0.0,0.0,0.0,0.0,0.0,0.0,0.0,0.0,0.0,0.0,0.0,0.0,0.0,0.0,0.0,0.0,0.0,0.0,0.0,0.0,0.0,0.0,0.0,0.0,0.0,0.0,0.0,0.0,0.0,0.0,0.0,0.0,0.0,0.0,0.0,0.0,0.0,0.0,0.0,0.0,0.0,0.0,0.0,0.0,0.0,0.0,0.0,0.0,0.0,0.0,0.0,0.0,0.0,0.0,0.0,0.0,0.0,0.0,0.0,0.0,0.0,0.0,0.0,0.0,0.0,0.0,0.0,0.0,0.0,0.0,0.0,0.0,0.0,0.0,0.0,0.0,0.0,0.0,0.0,0.0,0.0,0.0,0.0,0.0,0.0,0.0,0.0,0.0,0.0,0.0,0.0,0.0,0.0,0.0,0.0,0.0,0.0,0.0,0.0,0.0,0.0,0.0,0.0,0.0,0.0,0.0,0.0,0.0,0.0,0.0,0.0,0.0,0.0,0.0,0.0,0.0,0.0,0.0,0.0,0.0,0.0,0.0,0.0,0.0,0.0,0.0,0.0,0.0,0.0,0.0,0.0,0.0,0.0,0.0,0.0,0.0,0.0,0.0,0.0,0.0,0.0,0.0,0.0,0.0,0.0,0.0,0.0,0.0,0.0,0.0,0.0,0.0,0.0,0.0,0.0,0.0,0.0,0.0,0.0,0.0,0.0,0.0,0.0,0.0,0.0,0.0,0.0,0.0,0.0,0.0,0.0,0.0,0.0,0.0,0.0,0.0,0.0,0.0,0.0,0.0,0.0,0.0,0.0,0.0,0.0,0.0,0.0,0.0,0.0,0.0,0.0,0.0,0.0,0.0,0.0,0.0,0.0,0.0,0.0,0.0,0.0,0.0,0.0,0.0,0.0,0.0,0.0,0.0,0.0,0.0,0.0,0.0,0.0,0.0,0.0,0.0,0.0,0.0,0.0,0.0,0.0,0.0,0.0,0.0,0.0,0.0,0.0,0.0,0.0,0.0,0.0,0.0,0.0,0.0,0.0,0.0,0.0,0.0,0.0,0.0,0.0,0.0,0.0,0.0,0.0,0.0,0.0,0.0,0.0,0.0,0.0,0.0,0.0,0.0,0.0,0.0,0.0,0.0,0.0,0.0,0.0,0.0,0.0,0.0,0.0,0.0,0.0,0.0,0.0,0.0,0.0,0.0,0.0,0.0,0.0,0.0,0.0,0.0,0.0,0.0,0.0,0.0,0.0,0.0,0.0,0.0,0.0,0.0,0.0,0.0,0.0,0.0,0.0,0.0,0.0,0.0,0.0,0.0,0.0,0.0,0.0,0.0,0.0,0.0,0.0,0.0,0.0,0.0,0.0,0.0,0.0,0.0,0.0,0.0,0.0,0.0,0.0,0.0,0.0,0.0,0.0,0.0,0.0,0.0,0.0,0.0,0.0,0.0,0.0,0.0,0.0,0.0,0.0,0.0,0.0,0.0,0.0,0.0,0.0,0.0,0.0,0.0,0.0,0.0,0.0,0.0,0.0,0.0,0.0,0.0,0.0,0.0,0.0,0.0,0.0,0.0,0.0,0.0,0.0,0.0,0.0,0.0,0.0,0.0,0.0,0.0,0.0,0.0,0.0,0.0,0.0,0.0,0.0,0.0,0.0,0.0,0.0,0.0,0.0,0.0,0.0,0.0,0.0,0.0,0.0,0.0,0.0,0.0,0.0,0.0,0.0,0.0,0.0,0.0,0.0,0.0,0.0,0.0,0.0,0.0,0.0,0.0,0.0,0.0,0.0,0.0,0.0,0.0,0.0,0.0,0.0,0.0,0.0,0.0,0.0,0.0,0.0,0.0,0.0,0.0,0.0,0.0,0.0,0.0,0.0,0.0,0.0,0.0,0.0,0.0,0.0,0.0,0.0,0.0,0.0,0.0,0.0,0.0,0.0,0.0,0.0,0.0,0.0,0.0,0.0,0.0,0.0,0.0,0.0,0.0,0.0,0.0,0.0,0.0,0.0,0.0,0.0,0.0,0.0,0.0,0.0,0.0,0.0,0.0,0.0,0.0,0.0,0.0,0.0,0.0,0.0,0.0,0.0,0.0,0.0,0.0,0.0,0.0,0.0,0.0,0.0,0.0,0.0,0.0,0.0,0.0,0.0,0.0,0.0,0.0,0.0,0.0,0.0,0.0,0.0,0.0,0.0,0.0,0.0,0.0,0.0,0.0,0.0,0.0,0.0,0.0,0.0,0.0,0.0,0.0,0.0,0.0,0.0,0.0,0.0,0.0,0.0,0.0,0.0,0.0,0.0,0.0,0.0,0.0,0.0,0.0,0.0,0.0,0.0,0.0,0.0,0.0,0.0,0.0,0.0,0.0,0.0,0.0,0.0,0.0,0.0,0.0,0.0,0.0,0.0,0.0,0.0,0.0,0.0,0.0,0.0,0.0,0.0,0.0,0.0,0.0,0.0,0.0,0.0,0.0,0.0,0.0,0.0,0.0,0.0,0.0,0.0,0.0,0.0,0.0,0.0,0.0,0.0,0.0,0.0,0.0,0.0,0.0,0.0,0.0,0.0,0.0,0.0,0.0,0.0,0.0,0.0,0.0,0.0,0.0,0.0,0.0,0.0,0.0,0.0,0.0,0.0,0.0,0.0,0.0,0.0,0.0,0.0,0.0,0.0,0.0,0.0,0.0,0.0,0.0,0.0,0.0,0.0,0.0,0.0,0.0,0.0,0.0,0.0,0.0,0.0,0.0,0.0,0.0,0.0,0.0,0.0,0.0,0.0,0.0,0.0,0.0,0.0,0.0,0.0,0.0,0.0,0.0,0.0,0.0,0.0,0.0,0.0,0.0,0.0,0.0,0.0,0.0,0.0,0.0,0.0,0.0,0.0,0.0,0.0,0.0,0.0,0.0,0.0,0.0,0.0,0.0,0.0,0.0,0.0,0.0,0.0,0.0,5.6767,5.6262,0.0,0.0,0.0,0.0,0.0,0.0,0.0,0.0,0.0,0.0,0.0,0.0,0.0,0.0,0.0,0.0,0.0,0.0,0.0,0.0,0.0,0.0,0.0,0.0,0.0,0.0,0.0,0.0,0.0,0.0,0.0,0.0,0.0,0.0,0.0,0.0,0.0,4.8604,4.8604,4.8604,4.8604,4.9056,4.9202,4.9189,0.0,0.0,0.0,0.0,0.0,0.0,0.0,0.0,0.0,0.0,0.0,0.0,0.0,0.0,0.0,0.0,0.0,0.0,0.0,0.0,0.0,0.0,0.0,0.0,0.0,0.0,0.0,0.0,0.0,0.0,0.0,0.0,0.0,0.0,0.0,0.0,0.0,0.0,0.0,0.0,0.0,0.0,0.0,0.0,0.0,0.0,0.0,0.0,0.0,0.0,0.0,0.0,0.0,0.0,0.0,0.0,0.0,0.0,0.0,0.0,0.0,0.0,0.0,0.0,0.0,0.0,0.0,0.0,0.0,0.0,5.8152,5.7809,0.0,0.0,0.0,0.0,0.0,0.0,0.0,0.0,0.0,0.0,0.0,0.0,0.0,0.0,0.0,0.0,0.0,0.0,0.0,0.0,0.0,0.0,0.0,0.0,4.9025,4.9025,4.9025,4.8975,0.0,0.0,0.0,0.0,0.0,0.0,0.0,4.8728,4.8811,4.8811,4.8811,4.8811,4.8852,4.939,4.93,4.8604,4.8934,0.0,0.0,0.0,0.0,0.0,0.0,0.0,0.0,0.0,0.0,0.0,0.0,0.0,0.0,0.0,0.0,0.0,0.0,0.0,0.0,0.0,0.0,0.0,0.0,0.0,0.0,0.0,0.0,0.0,0.0,0.0,0.0,0.0,0.0,0.0,0.0,0.0,0.0,0.0,0.0,0.0,0.0,0.0,0.0,0.0,0.0,0.0,0.0,0.0,0.0,0.0,0.0,0.0,0.0,0.0,0.0,0.0,0.0,0.0,0.0,0.0,0.0,0.0,5.9012,5.9012,5.9012,5.9012,5.9012,5.9012,5.9012,5.9012,5.9012,5.9012,0.0,0.0,0.0,0.0,0.0,0.0,0.0,0.0,0.0,0.0,0.0,0.0,0.0,0.0,0.0,0.0,0.0,0.0,0.0,0.0,0.0,5.0843,5.0767,5.0767,5.0767,5.0461,0.0,0.0,0.0,0.0,0.0,0.0,4.8604,4.9309,4.971,4.971,4.971,4.971,4.971,4.9097,4.8687,4.8646,5.0112,5.0767,5.0729,0.0,0.0,0.0,0.0,0.0,0.0,0.0,0.0,0.0,0.0,0.0,0.0,0.0,0.0,0.0,0.0,0.0,0.0,0.0,0.0,0.0,0.0,0.0,0.0,0.0,0.0,0.0,0.0,0.0,0.0,0.0,0.0,0.0,0.0,0.0,0.0,0.0,0.0,0.0,0.0,0.0,5.5046,5.5002,0.0,0.0,0.0,0.0,0.0,0.0,0.0,0.0,0.0,0.0,0.0,0.0,0.0,5.884,5.884,5.8944,5.9012,5.9012,5.9012,5.9012,5.9012,5.9012,5.9012,5.9012,5.9012,0.0,5.9012,5.9012,0.0,0.0,0.0,0.0,0.0,0.0,0.0,0.0,0.0,0.0,0.0,0.0,0.0,0.0,0.0,0.0,0.0,0.0,0.0,0.0,0.0,5.1369,5.1107,5.1107,5.1107,5.0957,5.0576,5.0576,0.0,0.0,0.0,4.9994,4.9994,5.0384,5.0576,5.0576,5.0576,5.0576,5.0576,5.0653,5.0691,5.0729,5.1915,5.1696,5.0422,5.0538,0.0,0.0,0.0,0.0,0.0,0.0,0.0,0.0,0.0,0.0,0.0,0.0,0.0,0.0,0.0,0.0,0.0,0.0,0.0,0.0,0.0,0.0,0.0,0.0,0.0,0.0,0.0,0.0,0.0,0.0,0.0,0.0,0.0,0.0,0.0,0.0,0.0,0.0,0.0,5.6993,5.7119,5.6604,5.7133,5.7114,0.0,0.0,0.0,0.0,0.0,0.0,0.0,0.0,0.0,5.8978,5.9012,5.9012,5.9012,5.9012,5.9012,5.9012,5.9012,5.9012,5.9012,5.9012,5.9012,5.9012,5.9012,5.9012,5.9012,5.9012,5.9012,5.9012,0.0,0.0,0.0,0.0,5.9012,5.9012,0.0,0.0,0.0,0.0,0.0,0.0,0.0,0.0,0.0,0.0,0.0,0.0,5.252,5.2059,5.17,5.17,5.17,5.1659,5.1406,5.1406,0.0,5.1107,5.1107,5.1107,5.1107,5.1294,5.1516,5.17,5.1516,5.1406,5.1406,5.1806,5.1987,5.2023,5.2834,5.2307,5.0876,5.122,5.1406,5.1369,0.0,0.0,0.0,0.0,0.0,0.0,0.0,0.0,0.0,0.0,0.0,0.0,0.0,0.0,0.0,0.0,0.0,0.0,0.0,0.0,0.0,0.0,0.0,0.0,0.0,0.0,0.0,0.0,0.0,0.0,0.0,0.0,0.0,0.0,0.0,0.0,0.0,5.8631,5.8421,5.792,5.835,5.8243,0.0,0.0,0.0,0.0,0.0,0.0,5.8978,5.8422,5.8386,5.8978,5.9219,5.9323,5.9323,5.9495,5.9599,5.9599,5.9599,5.9599,5.9599,5.9599,5.9599,5.9599,5.9599,5.9599,5.9564,5.9185,5.9012,5.9012,5.9012,5.9012,5.9012,5.9012,5.9012,5.9012,0.0,0.0,0.0,0.0,0.0,0.0,0.0,0.0,0.0,0.0,0.0,5.3382,5.345,5.3382,5.3382,5.3382,5.3382,5.3041,5.2307,5.2236,5.1878,5.1145,5.1107,5.1107,5.1107,5.1842,5.259,5.3382,5.259,5.2236,5.2236,5.148,5.1145,5.1182,5.1987,5.2729,5.328,5.2555,5.2236,5.2164,5.1406,0.0,0.0,0.0,0.0,0.0,0.0,0.0,0.0,0.0,0.0,0.0,0.0,0.0,0.0,0.0,0.0,0.0,0.0,0.0,0.0,0.0,0.0,0.0,0.0,0.0,0.0,0.0,0.0,0.0,0.0,0.0,0.0,0.0,0.0,0.0,0.0,0.0,0.0,5.8701,5.8596,0.0,0.0,0.0,0.0,5.785,5.8492,5.8944,5.9012,5.8978,5.8978,5.9012,5.9737,6.0151,6.0151,6.084,6.1185,6.1185,6.1185,6.1185,6.1185,6.1185,6.1185,6.1185,6.1185,6.1185,6.1082,5.9599,5.9012,5.9012,5.9012,5.9012,5.9012,5.9012,5.9012,5.9012,0.0,0.0,0.0,0.0,0.0,0.0,0.0,0.0,5.3518,5.3518,5.3518,5.3518,5.3518,5.3518,5.3518,5.3518,5.3518,5.3382,5.3076,5.3041,5.2938,5.2661,5.2626,5.2626,5.2626,5.2938,5.3212,5.3518,5.3212,5.3041,5.3075,5.2799,5.2626,5.2661,5.2938,5.3246,5.3484,5.3212,5.3041,5.3041,5.2731,5.2834,0.0,0.0,0.0,0.0,0.0,0.0,0.0,0.0,0.0,0.0,0.0,0.0,0.0,0.0,0.0,0.0,0.0,0.0,0.0,0.0,0.0,0.0,0.0,0.0,0.0,0.0,0.0,0.0,0.0,0.0,0.0,0.0,0.0,0.0,0.0,0.0,0.0,5.8736,5.8631,0.0,5.8562,5.8736,5.8771,5.8597,5.8736,5.9116,5.9737,5.9771,5.9978,6.0461,6.0771,6.0909,6.0909,6.1185,6.1289,6.1289,6.1289,6.1289,6.1289,6.1289,6.1289,6.1289,6.1289,6.1289,6.1254,6.0703,6.0496,6.0496,6.0496,6.0496,6.0496,6.0496,6.0496,6.0496,0.0,0.0,0.0,0.0,0.0,0.0,0.0,0.0,5.3551,5.3551,5.3517,5.3551,5.3551,5.3517,5.3518,5.3518,5.3518,5.3518,5.3518,5.3518,5.3518,5.3518,5.3518,5.3518,5.3518,5.3518,5.3518,5.3518,5.3518,5.3518,5.3518,5.3518,5.3518,5.3518,5.3518,5.3518,5.3518,5.3518,5.3518,5.3518,5.3518,5.3518,5.3551,0.0,0.0,0.0,0.0,0.0,0.0,0.0,0.0,0.0,0.0,0.0,0.0,0.0,0.0,0.0,0.0,0.0,0.0,0.0,0.0,0.0,0.0,0.0,0.0,0.0,0.0,0.0,0.0,0.0,0.0,0.0,0.0,0.0,0.0,5.849,5.8419,5.8736,5.8666,5.8701,5.8978,5.9185,5.9288,5.9426,5.9564,5.9907,6.053,6.0565,6.0806,6.1289,6.1565,6.1703,6.1703,6.1944,6.2082,6.2082,6.2082,6.2082,6.2082,6.2082,6.2082,6.2082,6.2082,6.2082,6.2082,6.2082,6.2082,6.2013,6.1496,6.1289,6.1289,6.1289,6.1289,6.1289,0.0,0.0,0.0,0.0,0.0,0.0,0.0,5.3518,5.3551,5.3684,5.3584,5.3551,5.3684,5.3584,5.3518,5.3518,5.3518,5.3518,5.3518,5.3518,5.3518,5.3518,5.3518,5.3518,5.3518,5.3518,5.3518,5.3518,5.3518,5.3518,5.3518,5.3518,5.3518,5.3518,5.3518,5.3518,5.3518,5.3518,5.3518,5.3518,5.3518,5.3518,5.3518,0.0,0.0,0.0,0.0,0.0,0.0,0.0,0.0,0.0,0.0,0.0,0.0,0.0,0.0,0.0,0.0,0.0,0.0,0.0,0.0,0.0,0.0,0.0,0.0,0.0,0.0,0.0,0.0,0.0,0.0,0.0,0.0,0.0,5.849,5.8524,5.8595,5.877,5.8839,5.8909,5.9047,5.9771,6.022,6.022,6.0909,6.1323,6.1358,6.1358,6.1358,6.1358,6.2117,6.253,6.253,6.3255,6.3634,6.3634,6.3669,6.3669,6.3669,6.3669,6.3669,6.3669,6.3669,6.3669,6.3669,6.3669,6.3669,6.3531,6.1979,6.1358,6.1358,6.1358,6.1358,6.1358,0.0,0.0,0.0,0.0,0.0,0.0,0.0,5.3518,5.3551,5.3684,5.3584,5.3551,5.3684,5.3684,5.3618,5.3518,5.3584,5.3618,5.3518,5.3518,5.3518,5.3518,5.3518,5.3518,5.3518,5.3518,5.3518,5.3518,5.3518,5.3518,5.3518,5.3518,5.3518,5.3518,5.3518,5.3518,5.3518,5.3518,5.3518,5.3518,5.3518,5.3518,5.3518,0.0,0.0,0.0,0.0,0.0,0.0,0.0,0.0,0.0,0.0,0.0,0.0,0.0,0.0,0.0,0.0,0.0,0.0,0.0,0.0,0.0,0.0,0.0,0.0,0.0,0.0,0.0,0.0,0.0,0.0,0.0,5.9722,5.9033,5.838,5.8863,5.9312,5.9347,5.997,6.0456,6.0633,6.0875,6.1013,6.1013,6.1185,6.1565,6.2117,6.2151,6.2427,6.2944,6.3186,6.3289,6.3289,6.4014,6.4393,6.4393,6.4979,6.5255,6.5255,6.5255,6.5255,6.5255,6.5255,6.5255,6.5255,6.5255,6.5255,6.5083,6.3565,6.2979,6.2979,6.2979,6.2979,6.2979,0.0,0.0,0.0,0.0,0.0,0.0,0.0,5.3517,5.3584,5.3783,5.3651,5.3551,5.3684,5.3651,5.3584,5.3518,5.3584,5.3584,5.3518,5.3518,5.3518,5.3518,5.3518,5.3518,5.3518,5.3518,5.3518,5.3518,5.3518,5.3518,5.3518,5.3518,5.3518,5.3518,5.3518,5.3518,5.3518,5.3518,5.3518,5.3518,5.3518,5.3518,5.3518,5.3518,5.3518,5.3484,5.3584,5.3618,5.3651,5.3915,0.0,0.0,0.0,0.0,0.0,0.0,0.0,0.0,0.0,0.0,0.0,0.0,0.0,0.0,0.0,0.0,0.0,0.0,0.0,0.0,0.0,0.0,0.0,0.0,6.0296,5.9816,5.9118,5.968,6.0134,6.0062,6.0691,6.1146,6.1146,6.1456,6.1698,6.1806,6.201,6.2389,6.291,6.2944,6.3289,6.4048,6.4048,6.422,6.4565,6.4979,6.5186,6.5186,6.5669,6.5876,6.5876,6.5876,6.5876,6.5876,6.5876,6.5876,6.5876,6.5876,6.5876,0.0,0.0,0.0,0.0,0.0,6.4565,6.4496,0.0,0.0,0.0,0.0,0.0,0.0,0.0,5.3584,5.3618,5.3915,5.3718,5.3584,5.3684,5.3651,5.3551,5.3518,5.3517,5.3517,5.3518,5.3518,5.3518,5.3518,5.3518,5.3518,5.3518,5.3518,5.3518,5.3518,5.3518,5.3518,5.3518,5.3518,5.3518,5.3518,5.3518,5.3518,5.3518,5.3518,5.3518,5.3518,5.3518,5.3518,5.3518,5.3518,5.3518,5.3518,5.3551,5.3517,5.3551,5.3717,0.0,0.0,0.0,0.0,0.0,0.0,0.0,0.0,0.0,0.0,0.0,0.0,0.0,0.0,0.0,0.0,0.0,0.0,0.0,0.0,0.0,0.0,0.0,0.0,6.0768,6.0734,6.0465,6.091,6.1133,6.0882,6.1208,6.1421,6.1277,6.1892,6.2415,6.2563,6.3036,6.3449,6.3703,6.3703,0.0,0.0,0.0,6.5186,6.5876,6.5979,6.6014,6.6014,6.6083,6.6152,6.6152,6.6152,6.6152,6.6152,6.6152,6.6152,6.6152,6.6152,6.6152,6.6117,6.5945,6.5876,6.5876,6.5876,6.5876,6.5773,0.0,0.0,0.0,0.0,0.0,0.0,0.0,5.3551,5.3551,5.375,5.3717,5.3684,5.3717,5.3915,5.3882,5.3517,5.3751,5.3784,5.3551,5.3518,5.3518,5.3518,5.3518,5.3518,5.3518,5.3518,5.3518,5.3518,5.3518,5.3518,5.3518,5.3518,5.3518,5.3518,5.3518,5.3518,5.3518,5.3518,5.3518,5.3518,5.3518,5.3518,5.3518,5.3518,5.3518,5.3484,5.3617,5.3651,5.3717,5.4013,5.4323,5.4702,5.5173,5.5962,0.0,0.0,0.0,0.0,0.0,0.0,0.0,0.0,0.0,0.0,0.0,0.0,0.0,0.0,0.0,0.0,0.0,0.0,0.0,6.2313,6.2006,6.1835,6.234,6.2669,6.2576,6.1773,6.2255,6.2706,6.2819,6.3028,6.3096,6.3134,6.342,6.3804,6.4462,6.4496,6.4841,6.5635,6.5669,6.5738,6.5876,6.6462,6.6773,6.6773,6.7394,0.0,6.7669,6.7669,6.7669,6.7669,6.7669,6.7669,6.7669,6.7669,6.7669,6.7566,6.6359,6.5876,6.5876,6.5876,6.5876,6.5876,0.0,0.0,0.0,0.0,0.0,0.0,0.0,5.3551,5.3551,5.3684,5.3617,5.3618,5.3618,5.3751,5.3751,5.3551,5.3651,5.3685,5.3518,5.3518,5.3518,5.3518,5.3518,5.3518,5.3518,5.3518,5.3518,5.3518,5.3518,5.3518,5.3518,5.3518,5.3518,5.3518,5.3518,5.3518,5.3518,5.3518,5.3518,5.3518,5.3518,5.3518,5.3518,5.3518,5.3518,5.3518,5.3584,5.3618,5.3651,5.3783,5.4227,5.4805,5.5383,5.6199,5.7045,0.0,0.0,0.0,0.0,0.0,0.0,0.0,0.0,0.0,0.0,0.0,0.0,0.0,0.0,6.1602,6.2395,0.0,6.2149,6.2863,6.2616,6.2438,6.2813,6.2847,6.2711,6.2336,6.2799,6.3152,6.3152,6.3038,6.3285,6.393,6.3927,6.4236,6.5255,6.529,6.5635,6.6428,6.6428,6.6635,6.698,6.7359,6.7532,6.7532,6.7911,6.8083,6.8083,6.8083,6.8083,6.8083,6.8083,6.8083,6.8083,6.8083,6.8083,6.8014,6.729,6.698,6.698,6.698,6.698,6.6945,0.0,0.0,0.0,0.0,0.0,0.0,0.0,5.3584,5.3517,5.3651,5.3584,5.3517,5.3518,5.3551,5.3584,5.3517,5.3551,5.3518,5.3518,5.3518,5.3518,5.3518,5.3518,5.3518,5.3518,5.3518,5.3518,5.3518,5.3518,5.3518,5.3518,5.3518,5.3518,5.3518,5.3518,5.3518,5.3518,5.3518,5.3518,5.3518,5.3518,5.3518,5.3518,5.3518,5.3518,5.3518,5.3518,5.3518,5.3518,5.3687,5.4228,5.4938,5.5718,5.6462,5.7173,5.7893,5.8135,0.0,0.0,0.0,0.0,0.0,0.0,0.0,0.0,6.0666,6.1158,6.1956,6.2121,6.232,6.3087,6.3152,6.3038,6.3,6.2923,6.2808,6.2727,6.2615,6.2576,6.2615,6.2923,6.3076,6.2962,6.2945,6.3406,6.4518,6.45,6.4911,6.6048,6.6083,6.6428,6.7187,6.7187,6.7497,6.8083,6.8083,6.8083,6.8083,6.8083,6.8187,6.8325,6.8325,6.8394,6.8532,6.8532,6.8532,6.8532,6.8532,6.8532,6.8532,6.8532,6.8532,6.8497,6.8221,6.8083,6.8014,0.0,0.0,0.0,0.0,0.0,0.0,0.0,0.0,5.3518,5.3517,5.3618,5.3617,5.3484,5.3784,5.3882,5.3684,5.3584,5.3518,5.3518,5.3518,5.3518,5.3518,5.3518,5.3518,5.3518,5.3518,5.3518,5.3518,5.3518,5.3518,5.3518,5.3518,5.3518,5.3518,5.3518,5.3518,5.3518,5.3518,5.3518,5.3518,5.3518,5.3518,5.3518,5.3518,5.3518,5.3518,5.3518,5.3518,5.3619,5.4364,5.5076,5.5751,5.6673,5.7315,5.778,5.7884,5.7918,5.7918,5.7954,5.8099,5.8483,5.9554,5.9725,5.9822,0.0,6.1186,6.1736,6.1804,6.2385,6.2897,6.3004,6.3152,6.3189,6.3038,6.3302,6.3302,6.2804,6.2962,6.3,6.2498,6.2459,6.2537,6.2693,6.3465,6.3991,6.417,6.513,6.6045,6.6807,6.6876,6.7187,6.7945,6.798,6.8014,6.8083,6.8083,6.8083,6.8083,6.8083,6.8463,6.9153,6.9153,6.9497,7.0118,7.0118,7.0118,7.0118,7.0118,7.0118,7.0118,7.0118,7.0118,6.998,6.8601,6.8083,6.8083,0.0,0.0,0.0,0.0,0.0,0.0,0.0,0.0,0.0,5.3484,5.3618,5.3651,5.3484,5.3618,5.3685,5.3584,5.3517,5.3518,5.3518,5.3518,5.3518,5.3518,5.3518,5.3518,5.3518,5.3518,5.3518,5.3518,5.3518,5.3518,5.3518,5.3518,5.3518,5.3518,5.3518,5.3518,5.3518,5.3518,5.3518,5.3518,5.3518,5.3518,5.3518,5.3518,5.3518,5.3518,5.3518,5.3788,0.0,5.4703,5.5552,5.6428,5.691,5.745,5.7881,5.7881,5.7881,5.7918,5.8027,5.8547,5.9202,5.9989,6.0645,6.1229,6.1756,6.2282,6.2672,6.2672,6.2912,6.3227,6.334,6.3227,6.3189,6.334,6.3189,6.3038,6.2885,6.2808,6.2824,6.3029,6.3057,6.3137,6.33,6.3979,6.467,6.5318,6.5891,6.6563,6.7403,6.7556,6.7773,6.8083,6.8083,6.8083,6.8083,6.8566,6.8773,6.8773,6.9222,6.9601,6.9911,6.9911,7.0084,7.0394,7.0394,7.0394,7.0394,7.0394,7.0394,7.0394,7.0394,7.0394,7.0291,6.967,6.9428,6.9428,0.0,0.0,0.0,0.0,0.0,0.0,0.0,0.0,0.0,0.0,5.3617,5.3651,5.3551,5.3517,5.3518,5.3518,5.3518,5.3551,5.3551,5.3517,5.3551,5.3551,5.3517,5.3518,5.3518,5.3518,5.3518,5.3518,5.3518,5.3518,5.3518,5.3518,5.3518,5.3518,5.3518,5.3517,5.3551,5.3551,5.3551,5.3618,5.3584,5.3584,5.3618,5.3618,5.3584,5.3551,5.3484,5.3957,5.4668,5.5009,5.5855,5.6869,5.7215,5.7584,5.7881,5.7881,5.8053,5.8332,5.8513,5.9238,6.0096,6.0737,6.15,6.2261,6.2676,6.3,6.3227,6.3265,6.3265,6.3302,6.3563,6.334,6.3189,6.3489,6.3152,6.2847,6.2923,6.2824,6.2967,6.3509,6.3909,6.4187,6.4387,6.4742,6.5366,6.6274,6.6593,6.713,6.7845,6.8004,6.8083,6.8083,6.8083,6.8187,6.8428,6.898,6.9394,6.9601,7.0118,7.0498,7.0705,7.0912,7.1015,7.1015,7.1015,7.1015,7.1015,7.1015,7.1015,7.1015,7.1015,7.1015,7.1015,7.1015,7.0739,7.0394,0.0,0.0,0.0,0.0,0.0,0.0,0.0,0.0,0.0,0.0,0.0,0.0,0.0,5.3584,5.3518,5.3518,5.3518,5.3551,5.3684,5.3584,5.3551,5.3684,5.3584,5.3518,5.3518,5.3518,5.3518,5.3518,5.3518,5.3518,5.3518,5.3518,5.3518,5.3518,5.3518,5.3584,5.3684,5.3551,5.3685,5.3948,5.3783,5.3816,5.398,5.398,5.3849,5.3684,5.3551,5.3957,5.4702,5.5446,5.619,5.6934,5.7645,5.7918,5.7881,5.7881,5.8535,5.9332,5.9513,6.0166,6.0989,6.189,6.2021,6.2077,6.2829,6.3,6.3076,6.3265,6.3152,6.3152,6.3526,6.3414,6.3265,6.3302,6.3265,6.3152,6.2731,6.3305,6.3781,6.3815,6.4871,6.5711,6.5916,6.595,6.6106,6.6382,6.7233,6.7845,6.8083,6.8083,6.8083,6.8083,6.8083,6.8463,6.9256,6.9296,6.9635,7.036,7.036,7.0774,7.1498,7.2257,7.2644,7.2644,7.2644,7.2644,7.2644,7.2644,7.2644,7.2644,7.2644,7.2644,7.2644,7.2644,7.167,7.0394,0.0,0.0,0.0,0.0,0.0,0.0,0.0,0.0,0.0,0.0,0.0,0.0,0.0,0.0,0.0,0.0,5.3617,5.3584,5.3584,5.3751,5.3751,5.3584,5.3751,5.3718,5.3518,5.3584,5.3584,5.3518,5.3518,5.3518,5.3518,5.3584,5.3584,5.3518,5.3584,5.3651,5.3717,5.3651,5.375,5.398,5.3915,5.3948,5.398,5.398,5.3948,5.395,0.0,5.4873,5.5378,5.5755,5.6601,5.7613,5.7959,5.7991,5.7918,5.8063,5.8305,5.8753,5.9554,6.0347,6.1135,6.1961,6.2618,6.3068,6.3158,6.3302,6.3414,6.3489,6.3452,6.3452,6.36,6.3563,6.3452,6.3302,6.3302,6.3323,6.3412,6.3762,6.4273,6.4979,6.5556,6.6147,6.6738,6.6806,6.6848,6.693,6.7461,6.7839,6.7919,6.8039,6.8325,6.8877,6.8877,6.9256,7.0015,7.0498,7.0877,7.1118,7.167,7.205,7.2291,7.2609,7.2713,7.2713,7.2713,7.2713,7.2713,7.2713,7.2713,7.2713,7.2713,7.2713,7.2713,7.2713,7.236,7.1912,0.0,0.0,0.0,0.0,0.0,0.0,0.0,0.0,0.0,0.0,0.0,0.0,0.0,0.0,0.0,0.0,0.0,5.3783,5.3751,5.3916,5.3882,5.3685,5.3916,5.3816,5.3518,5.3617,5.3617,5.3518,5.3518,5.3517,5.3584,5.3651,5.3684,5.3685,5.375,5.3849,5.3882,5.3849,5.3948,5.4175,5.411,5.411,5.4175,5.4175,5.4143,0.0,5.4934,5.5485,5.5855,5.637,5.7185,5.8027,5.8135,5.8063,5.7918,5.8135,5.8651,5.927,6.0073,6.1109,6.2039,6.2589,6.3144,6.3563,6.3452,6.3526,6.36,6.36,6.36,6.36,6.36,6.3526,6.3452,6.3302,6.3467,6.3657,6.3786,6.4375,6.5017,6.5759,6.6098,6.6554,6.7146,6.718,6.7263,6.7428,6.7638,6.7839,6.7919,6.8004,6.8463,6.9256,6.9291,6.9773,7.0774,7.1256,7.1636,7.1912,7.2429,7.2713,7.2713,7.2713,7.2713,7.2713,7.2713,7.2713,7.2713,7.2713,7.2713,7.2713,7.2713,7.2713,7.2713,7.2713,7.2713,7.2713,0.0,0.0,0.0,0.0,0.0,0.0,0.0,0.0,0.0,0.0,0.0,0.0,0.0,0.0,0.0,0.0,0.0,0.0,5.4175,5.4078,5.4013,5.398,5.4013,5.3883,5.3517,5.3617,5.3617,5.3484,5.3484,5.3584,5.3717,5.3717,5.3816,5.398,5.4013,5.4078,5.4207,5.4078,5.4207,5.4463,5.4303,5.4335,5.4494,5.4494,5.4367,5.4342,5.5166,5.5688,5.6166,5.7088,5.777,5.8241,5.8241,5.8063,5.7954,5.8171,5.9407,6.0821,6.0966,6.2247,6.3531,6.3565,6.36,6.36,6.36,6.36,6.36,6.36,6.36,6.36,6.36,6.3452,6.3302,6.3265,6.373,6.4054,6.3849,6.5107,6.6024,6.6052,6.6498,6.6896,6.718,6.718,6.7387,6.7759,6.7799,6.7879,6.8044,6.8118,6.8532,6.9325,6.936,7.0084,7.1532,7.1567,7.1912,7.2713,7.2713,7.2713,7.2713,7.2713,7.2713,7.2713,7.2713,7.2713,7.2713,7.2713,7.2713,7.2713,7.2713,7.2713,7.2713,7.2713,7.2713,7.2713,0.0,0.0,0.0,0.0,0.0,0.0,0.0,0.0,0.0,0.0,0.0,0.0,0.0,0.0,0.0,0.0,0.0,0.0,5.4045,5.4239,5.4239,5.4013,5.411,5.4045,5.3883,5.375,5.3684,5.3651,5.3651,5.3684,5.3717,5.398,5.4045,5.4013,5.411,5.4175,5.4207,5.4175,5.4271,5.4529,5.4431,5.4431,5.4494,5.4494,5.4463,5.4603,5.5947,5.6401,5.6474,5.7158,5.784,5.8419,5.8419,5.8384,5.8384,5.8596,5.9351,6.0316,6.1044,6.1977,6.291,6.3462,6.36,6.36,6.36,6.36,6.36,6.36,6.36,6.36,6.36,6.3563,6.3414,6.3114,6.3768,6.4337,6.4403,6.5453,6.631,6.6599,6.6878,6.7139,6.718,6.718,6.7304,6.7557,6.7557,6.7678,6.7879,6.8395,6.9129,7.0084,7.0636,7.1394,7.236,7.236,7.2464,7.2713,7.2713,7.2713,7.2713,7.2713,7.2713,7.2713,7.2713,7.2713,7.2713,7.2713,7.2713,7.2713,7.2713,7.2713,7.2713,7.2713,7.2713,7.2713,0.0,0.0,0.0,0.0,0.0,0.0,0.0,0.0,0.0,0.0,0.0,0.0,0.0,0.0,0.0,0.0,0.0,0.0,0.0,5.4399,5.4367,5.411,5.4239,5.4175,5.3882,5.3915,5.3849,5.3717,5.3783,5.3882,5.3948,5.411,5.4207,5.4207,5.4303,5.4335,5.4335,5.4335,5.4399,0.0,0.0,5.4494,5.4494,5.4494,5.4701,5.515,5.6357,5.7152,5.7671,5.7947,5.8288,5.8631,5.8631,5.8561,5.8525,5.8736,5.9526,6.0489,6.115,6.2117,6.3082,6.3496,6.36,6.36,6.36,6.36,6.36,6.36,6.36,6.3703,6.4014,6.3732,6.3621,6.4046,6.4564,6.4996,6.5189,6.618,6.6834,6.6821,6.6896,6.7014,6.7014,6.7014,6.7275,6.7789,6.7721,6.7815,6.828,6.8773,6.9617,7.0843,7.1256,7.1877,7.2671,7.2713,7.2713,7.2713,7.2713,7.2713,7.2713,7.2713,7.2713,7.2713,7.2713,7.2713,7.2713,7.2713,7.2713,7.2713,7.2713,7.2713,7.2713,7.2713,7.2713,7.2713,0.0,0.0,0.0,0.0,0.0,0.0,0.0,0.0,0.0,0.0,0.0,0.0,0.0,0.0,0.0,0.0,0.0,0.0,0.0,0.0,5.4399,5.4239,5.4367,5.4239,5.3816,5.4045,5.4045,5.3783,5.3948,5.4078,5.4207,5.4239,5.4335,5.4494,5.4494,5.4494,5.4494,5.4494,5.4494,5.4494,5.4494,5.4494,5.4494,0.0,5.4977,5.5736,5.6633,5.784,5.8978,5.8875,5.8806,5.8806,5.8806,5.8701,5.8596,5.8771,5.987,6.1074,6.1253,6.2427,6.36,6.36,6.36,6.36,6.36,6.36,6.36,6.36,6.36,6.3807,6.4565,6.4036,6.392,6.5255,6.5598,6.5789,6.5922,6.6834,6.7312,6.6854,6.6812,6.6888,6.6948,6.6948,6.7337,6.837,6.82,6.8342,6.9001,6.9376,7.0222,7.1601,7.1636,7.1981,7.2671,7.2713,7.2713,7.2713,7.2713,7.2713,7.2713,7.2713,7.2713,7.2713,7.2713,7.2713,7.2713,7.2713,7.2713,7.2713,7.2713,7.2713,7.2713,7.2713,7.2713,7.2713,0.0,0.0,0.0,0.0,0.0,0.0,0.0,0.0,0.0,0.0,5.4303,5.4271,0.0,0.0,0.0,0.0,0.0,0.0,0.0,0.0,0.0,5.4431,5.4335,5.4303,5.4335,5.4143,5.4078,5.411,5.4143,5.4175,5.4207,5.4367,5.4463,5.4494,5.4494,5.4494,5.4494,5.4494,5.4494,5.4494,5.4494,5.4494,5.4494,5.4494,0.0,0.0,5.7219,5.8288,5.9012,5.8978,5.8944,5.8944,5.8944,5.8944,5.8909,5.8944,6.0046,6.1253,6.1289,6.2427,6.36,6.36,6.36,6.36,6.36,6.36,6.36,6.36,6.36,6.3807,6.4565,6.4562,6.4656,6.5162,6.5965,6.6331,6.5827,6.6753,6.7312,6.6854,6.7014,6.7293,6.7658,6.7726,6.8116,6.9118,6.9339,6.9514,6.9859,7.0484,7.1366,7.2429,7.2464,7.2575,7.2713,7.2713,7.2713,7.2713,7.2713,7.2713,7.2713,7.2713,7.2713,7.2713,7.2713,0.0,7.2713,7.2713,7.2713,7.2713,7.2713,7.2713,7.2713,7.2713,7.2713,7.2713,0.0,0.0,0.0,0.0,0.0,0.0,0.0,5.4431,5.4494,5.4494,5.4399,5.4399,5.4463,5.4494,5.4494,0.0,0.0,0.0,0.0,0.0,0.0,0.0,5.4399,0.0,5.4335,5.4271,5.4239,5.4207,0.0,5.4367,5.4367,5.4431,5.4494,5.4494,5.4494,5.4494,5.4494,5.4494,5.4494,5.4494,5.4494,5.4494,5.4563,0.0,0.0,0.0,5.8081,5.8702,5.9012,5.9012,5.9012,5.9012,5.9012,5.9012,5.9081,5.9495,6.0427,6.1392,6.1806,6.2737,6.36,6.36,6.36,6.36,6.36,6.36,6.36,6.36,6.36,6.3945,6.5117,6.4979,6.5107,6.6342,6.674,6.6764,6.6527,6.7189,6.7435,6.6854,6.7395,6.781,6.7904,6.8396,6.9067,6.99,7.0183,7.043,7.0648,7.1496,7.2207,7.2671,7.2713,7.2713,7.2713,7.2713,7.2713,7.2713,7.2713,7.2713,7.2713,7.2713,7.2713,7.2713,7.2713,7.2713,7.2713,7.2713,7.2713,7.2713,7.2713,7.2713,7.2713,7.2713,7.2713,7.2713,0.0,0.0,0.0,0.0,0.0,0.0,0.0,5.4494,5.4494,5.4494,5.4494,5.4494,5.4494,5.4494,5.4494,0.0,0.0,0.0,0.0,0.0,0.0,0.0,0.0,0.0,0.0,0.0,0.0,5.4271,5.4399,0.0,0.0,0.0,0.0,0.0,5.4494,5.4494,5.4494,5.4494,5.4494,0.0,0.0,5.4494,0.0,0.0,0.0,0.0,0.0,5.9012,5.9012,5.9012,5.9012,5.9012,5.9012,5.9012,5.9185,5.9944,6.0703,6.1496,6.2255,6.3013,6.36,6.36,6.36,6.36,6.36,6.36,6.36,6.36,6.36,6.4048,6.56,6.5359,6.5558,6.7496,6.7483,6.7232,6.7195,6.7557,6.7597,6.6896,6.7743,6.8336,6.8217,6.9058,6.9934,7.0769,7.1045,7.1217,7.1404,7.2242,7.2713,7.2713,7.2713,7.2713,7.2713,7.2713,7.2713,7.2713,7.2713,7.2713,7.2713,7.2713,7.2713,7.2713,7.2713,7.2713,7.2713,7.2713,7.2713,7.2713,7.2713,7.2713,7.2713,7.2713,7.2713,7.2713,0.0,0.0,0.0,0.0,0.0,0.0,0.0,5.4494,5.4494,5.4494,5.4494,5.4494,5.4494,5.4494,5.4494,0.0,0.0,0.0,0.0,0.0,0.0,0.0,0.0,0.0,0.0,0.0,0.0,5.4463,5.4463,0.0,0.0,0.0,0.0,0.0,0.0,5.4494,5.4494,5.4494,0.0,0.0,0.0,0.0,0.0,0.0,0.0,0.0,0.0,5.9012,5.9012,5.9012,5.9012,5.9012,5.9012,5.9012,5.9185,5.9944,6.0703,6.1496,6.2255,6.3013,6.36,6.36,6.36,6.36,6.36,6.36,6.36,6.36,6.36,6.4048,6.56,6.5807,6.6251,6.7565,6.793,6.7776,6.7263,6.7719,6.7725,6.6896,6.7834,6.8717,6.922,6.9795,7.0619,7.1771,7.1883,7.1969,7.2185,7.2509,7.2713,7.2713,7.2713,7.2713,7.2713,7.2713,7.2713,7.2713,7.2713,7.2713,7.2713,7.2713,7.2713,7.2713,7.2713,7.2713,0.0,7.2713,7.2713,7.2713,7.2713,7.2713,7.2713,7.2713,7.2713,7.2713,0.0,0.0,0.0,0.0,0.0,0.0,5.4494,5.4494,5.4494,5.4494,5.4494,5.4494,5.4494,5.4494,5.4494,5.4494,0.0,0.0,0.0,0.0,0.0,0.0,0.0,0.0,0.0,0.0,5.4494,5.4494,5.4494,0.0,0.0,0.0,0.0,0.0,0.0,5.4494,5.4494,5.4494,0.0,0.0,0.0,0.0,0.0,0.0,0.0,0.0,0.0,0.0,5.9012,5.9012,5.9012,5.9012,5.9012,5.9012,5.9254,6.0496,6.1082,6.1565,6.2806,6.3358,6.36,6.36,6.36,6.36,6.36,6.36,6.36,6.36,6.36,6.4048,6.56,6.5876,6.6359,6.7724,6.8044,6.7965,6.7597,6.7879,6.7839,6.7139,6.836,6.922,6.9218,7.0304,7.125,7.1732,7.1732,7.1854,7.2115,7.2331,7.2459,7.2459,7.2628,7.2713,7.2713,7.2713,7.2713,7.2713,7.2713,7.2713,7.2713,7.2713,7.2713,7.2713,7.2713,7.2713,0.0,7.2713,7.2713,7.2713,7.2713,7.2713,7.2713,7.2713,7.2713,7.2713,0.0,0.0,0.0,0.0,0.0,5.4494,5.4494,5.4494,5.4494,5.4494,5.4494,5.4494,5.4494,5.4494,5.4494,5.4494,5.4494,0.0,0.0,0.0,0.0,0.0,0.0,0.0,0.0,0.0,5.4494,5.4494,5.4494,5.4494,0.0,0.0,5.4494,5.4494,0.0,0.0,0.0,0.0,0.0,0.0,0.0,0.0,0.0,0.0,0.0,0.0,0.0,0.0,0.0,0.0,0.0,5.9012,5.9012,5.9012,5.9323,6.084,6.1289,6.1634,6.3186,6.36,6.36,6.36,6.36,6.36,6.36,6.36,6.36,6.36,6.36,6.3979,6.529,6.5738,6.629,6.7566,6.7945,6.8004,6.7839,6.7919,6.7908,6.7652,6.8819,6.9706,6.9635,7.0842,7.1556,7.1546,7.1546,7.1634,7.1854,7.2115,7.2288,7.2416,7.2586,7.2713,7.2713,7.2713,7.2713,7.2713,7.2713,7.2713,7.2713,7.2713,7.2713,7.2713,7.2713,7.2713,0.0,7.2713,7.2713,7.2713,7.2713,7.2713,7.2713,7.2713,7.2713,7.2713,0.0,0.0,0.0,0.0,0.0,0.0,5.4494,5.4494,5.4494,5.4494,5.4494,5.4494,5.4494,5.4494,5.4494,5.4494,5.4494,0.0,0.0,0.0,0.0,0.0,0.0,0.0,0.0,0.0,5.4494,5.4494,5.4494,5.4494,5.4494,5.4494,5.4494,5.4494,0.0,0.0,0.0,0.0,0.0,0.0,0.0,0.0,0.0,0.0,0.0,0.0,0.0,0.0,0.0,0.0,0.0,0.0,0.0,5.9012,5.9323,6.084,6.1289,6.1634,6.3186,6.36,6.36,6.36,6.36,6.36,6.36,6.36,6.36,6.36,6.36,6.3807,6.4565,6.5359,6.6117,6.6876,6.7601,6.8004,6.7839,6.7799,6.7993,6.8542,6.9252,6.9995,7.0824,7.1324,7.1512,7.1312,7.1312,7.1367,7.16,7.1854,7.2202,7.2671,7.2713,7.2713,7.2713,7.2713,7.2713,7.2713,7.2713,7.2713,7.2713,7.2713,7.2713,7.2713,7.2713,7.2713,0.0,7.2713,7.2713,7.2713,7.2713,7.2713,7.2713,7.2713,7.2713,7.2713,0.0,0.0,0.0,0.0,0.0,0.0,0.0,5.4494,5.4494,5.4494,5.4494,5.4494,5.4494,5.4494,5.4494,5.4494,5.4494,0.0,0.0,0.0,0.0,0.0,0.0,0.0,0.0,0.0,5.4494,5.4494,5.4494,5.4494,5.4494,5.4494,5.4494,5.4494,5.4494,5.4494,0.0,0.0,0.0,0.0,0.0,0.0,0.0,0.0,0.0,0.0,0.0,0.0,0.0,0.0,0.0,0.0,0.0,0.0,0.0,6.084,6.1289,6.153,6.2565,6.322,6.36,6.36,6.36,6.36,6.36,6.36,6.36,6.36,6.36,6.3807,6.4565,6.5359,6.6117,6.6876,6.7601,6.8083,6.8004,6.7879,6.7822,6.7858,6.8685,6.9601,7.0347,7.1005,7.1401,7.1312,7.1312,7.1491,7.1854,7.1942,7.2115,7.2416,7.2586,7.2713,7.2713,7.2713,7.2713,7.2713,7.2713,7.2713,7.2713,7.2713,7.2713,7.2713,7.2713,7.2713,7.2713,7.2713,7.2713,7.2713,7.2713,7.2713,7.2713,7.2713,7.2713,7.2713,0.0,0.0,0.0,0.0,0.0,0.0,0.0,5.4494,5.4494,5.4494,5.4494,5.4494,5.4494,5.4494,5.4494,5.4494,5.4494,0.0,0.0,0.0,0.0,0.0,0.0,0.0,5.4494,5.4494,5.4494,5.4494,5.4494,5.4494,5.4494,5.4494,5.4494,5.4494,5.4494,5.4494,0.0,0.0,0.0,0.0,0.0,0.0,5.6909,0.0,0.0,0.0,0.0,0.0,0.0,0.0,0.0,0.0,0.0,0.0,0.0,0.0,6.1082,6.153,6.2599,6.3255,6.36,6.36,6.36,6.36,6.36,6.36,6.36,6.36,6.36,6.3738,6.4186,6.5152,6.6048,6.6497,6.7428,6.8044,6.7999,6.7799,6.77,6.7803,6.8634,6.9379,6.9819,7.0476,7.0872,7.0872,7.1142,7.1491,7.1942,7.1985,7.2115,7.2459,7.2628,7.2713,7.2713,7.2713,7.2713,7.2713,7.2713,7.2713,7.2713,7.2713,7.2713,7.2713,7.2713,7.2713,0.0,7.2713,7.2713,7.2713,7.2713,7.2713,7.2713,7.2713,7.2713,7.2713,0.0,0.0,0.0,0.0,0.0,0.0,0.0,5.4494,5.4494,5.4494,5.4494,5.4494,5.4494,5.4494,5.4494,5.4494,0.0,0.0,0.0,0.0,0.0,0.0,0.0,0.0,5.4494,5.4494,5.4494,5.4494,5.4494,5.4494,5.4494,5.4494,5.4494,5.4494,5.4494,5.4494,5.4494,5.4494,5.4529,5.4701,5.6219,5.684,0.0,0.0,0.0,0.0,0.0,0.0,0.0,0.0,0.0,0.0,0.0,0.0,0.0,0.0,0.0,0.0,0.0,6.3565,6.36,6.36,6.36,6.36,6.36,6.36,0.0,6.36,6.36,6.36,6.3669,6.4876,6.5911,6.5945,6.7152,6.8004,6.7839,6.7597,6.7667,6.8174,6.8846,6.9288,6.9331,6.9863,7.0195,7.0195,7.0872,7.1491,7.1942,7.1985,7.2202,7.2671,7.2713,7.2671,7.2671,7.2671,7.2671,7.2671,7.2671,7.2713,7.2713,7.2713,7.2713,0.0,7.2713,7.2713,7.2713,7.2713,7.2713,7.2713,7.2713,7.2713,7.2713,7.2713,7.2713,7.2713,0.0,0.0,0.0,0.0,0.0,0.0,0.0,0.0,0.0,0.0,5.4494,5.4494,5.4494,5.4494,5.4494,0.0,0.0,0.0,0.0,0.0,0.0,0.0,0.0,0.0,5.4494,5.4494,5.4494,5.4494,5.4494,5.4494,5.4494,5.4494,5.4494,5.4494,5.4494,5.4494,5.4494,5.4494,5.4839,5.5426,5.6426,5.715,0.0,0.0,0.0,0.0,5.9012,5.9012,0.0,0.0,0.0,0.0,0.0,0.0,0.0,0.0,6.0703,6.1496,6.2496,0.0,6.36,6.36,6.36,6.36,0.0,6.36,6.36,6.36,6.36,6.3772,6.4324,6.5221,6.6048,6.6635,6.7497,6.8004,6.7839,6.7475,6.7331,6.7418,6.7938,6.8337,6.854,6.9548,7.0195,7.0195,7.0872,7.1491,7.1942,7.1985,7.2202,7.2671,7.2713,7.2586,7.2416,7.2586,7.2586,7.2416,7.2586,7.2713,7.2713,7.2713,7.2713,7.2713,7.2713,7.2713,7.2713,7.2713,7.2713,7.2713,7.2713,7.2713,7.2713,7.2713,7.2713,7.2713,0.0,0.0,0.0,0.0,0.0,0.0,0.0,0.0,0.0,0.0,0.0,0.0,0.0,0.0,0.0,0.0,0.0,0.0,0.0,0.0,0.0,0.0,0.0,5.4494,5.4494,5.4494,5.4494,5.4494,5.4494,5.4494,5.4494,5.4494,5.4494,5.4494,5.4494,5.4494,5.4529,5.4874,5.5253,5.5701,5.684,0.0,0.0,0.0,0.0,0.0,5.9012,5.9012,0.0,5.9012,5.9012,5.9012,0.0,0.0,0.0,0.0,6.0978,6.1565,6.2668,6.3289,6.36,6.36,6.36,6.36,6.36,6.36,6.36,6.36,6.36,6.3807,6.4565,6.5359,6.6117,6.6876,6.7601,6.8004,6.7839,6.7516,6.7304,6.718,6.7437,6.759,6.759,6.8895,6.9688,6.9688,7.0703,7.1491,7.1942,7.1985,7.2202,7.2671,7.2713,7.2628,7.2501,7.2501,7.2501,7.2501,7.2501,7.2586,7.2713,7.2713,7.2713,7.2713,7.2713,7.2713,7.2713,7.2713,7.2713,7.2713,7.2713,7.2713,7.2713,7.2713,7.2713,7.2713,0.0,0.0,0.0,0.0,0.0,0.0,0.0,0.0,0.0,0.0,0.0,0.0,0.0,0.0,0.0,0.0,0.0,0.0,0.0,0.0,0.0,0.0,5.4494,5.4494,5.4494,5.4494,5.4494,5.4494,5.4494,5.4494,5.4494,5.4494,5.4494,5.4494,5.4494,5.4563,5.4701,5.5324,5.577,5.6081,5.7391,0.0,0.0,0.0,0.0,0.0,0.0,0.0,0.0,5.9012,5.9012,5.9012,5.9012,0.0,0.0,0.0,0.0,0.0,6.3048,6.3496,6.36,6.36,6.36,6.36,6.36,6.36,6.36,6.36,6.36,6.3841,6.4703,6.5541,6.6305,6.7053,6.7665,6.7959,6.7839,6.7557,6.7387,6.7263,6.718,6.7056,6.6854,6.8199,6.9113,6.9113,7.0466,7.1491,7.1942,7.1985,7.2202,7.2671,7.2671,7.2671,7.2713,7.2459,7.2416,7.2628,7.2416,7.2459,7.2713,7.2713,7.2713,7.2713,7.2713,0.0,7.2713,7.2713,7.2713,7.2713,7.2713,7.2713,7.2713,7.2713,7.2713,7.2713,0.0,0.0,0.0,0.0,0.0,0.0,0.0,0.0,0.0,0.0,0.0,0.0,0.0,0.0,0.0,0.0,0.0,0.0,0.0,0.0,0.0,5.4494,5.4494,5.4494,5.4494,5.4494,5.4494,5.4494,5.4494,5.4494,5.4494,5.4494,5.4494,5.4494,5.4494,5.4874,5.546,5.5563,5.6357,5.7564,5.7805,0.0,0.0,0.0,0.0,0.0,0.0,0.0,0.0,5.9012,5.9012,5.9012,5.9012,0.0,0.0,0.0,0.0,0.0,6.2427,6.3117,6.36,6.36,6.36,6.36,6.36,6.36,6.36,6.36,6.36,6.4014,6.5428,6.6301,6.7082,6.7821,6.7771,6.7638,6.7799,6.727,6.7022,6.7428,6.7105,6.6896,6.7097,6.8362,6.9113,6.9113,7.0466,7.1491,7.1942,7.1985,7.2202,7.2671,7.2501,7.2459,7.2713,7.2459,7.2331,7.2373,7.2331,7.2459,7.2713,7.2713,7.2713,7.2713,0.0,7.2713,7.2713,7.2713,7.2713,7.2713,7.2713,7.2713,7.2713,7.2713,7.2713,7.2713,0.0,0.0,0.0,0.0,0.0,0.0,0.0,0.0,0.0,0.0,0.0,0.0,0.0,0.0,0.0,0.0,0.0,0.0,0.0,0.0,5.4494,5.4494,5.4494,5.4494,5.4494,5.4494,5.4494,5.4494,5.4494,5.4494,5.4494,5.4494,5.4494,5.4529,5.4943,5.5288,5.5635,5.6495,5.7253,5.7943,0.0,0.0,0.0,0.0,0.0,0.0,0.0,0.0,0.0,0.0,5.9216,5.9483,5.9115,0.0,0.0,0.0,0.0,0.0,6.2772,6.3324,6.36,6.36,6.36,6.36,6.36,6.36,6.36,6.36,6.391,6.4531,6.5669,6.6415,6.7077,6.7792,6.7678,6.7557,6.7759,6.7435,6.7222,6.7346,6.7139,6.7014,6.7014,6.8242,6.9113,6.9113,7.0466,7.1491,7.1942,7.1985,7.2202,7.2671,7.2459,7.2373,7.2501,7.2245,7.2288,7.2501,7.2245,7.2331,7.2713,7.2713,7.2713,7.2713,0.0,7.2713,7.2713,7.2713,7.2713,7.2713,7.2713,7.2713,7.2713,7.2713,7.2713,7.2713,0.0,0.0,0.0,0.0,0.0,0.0,0.0,0.0,0.0,0.0,0.0,0.0,0.0,0.0,0.0,0.0,0.0,0.0,0.0,5.4598,5.4494,5.4494,5.4494,5.4494,5.4494,5.4494,5.4494,5.4494,5.4494,5.4494,5.4494,5.4701,5.477,5.4805,5.5563,5.5977,5.6219,5.7391,5.8012,5.8219,0.0,0.0,0.0,0.0,0.0,0.0,0.0,0.0,0.0,0.0,0.0,0.0,0.0,0.0,0.0,6.1051,6.1289,6.1634,6.3186,6.36,6.36,6.36,6.36,6.36,6.36,6.36,6.3634,6.3807,6.4324,6.4979,6.5979,6.6622,6.7271,6.8019,6.7805,6.7638,6.7839,6.7597,6.7387,6.7263,6.7222,6.7097,6.6896,6.8285,6.9166,6.9166,7.0554,7.1546,7.1985,7.2029,7.2245,7.2671,7.2459,7.2331,7.2331,7.2029,7.2159,7.2586,7.2245,7.2288,7.2713,7.2713,7.2713,7.2713,7.2713,7.2713,7.2713,7.2713,7.2713,7.2713,7.2713,7.2713,7.2713,7.2713,7.2713,7.2713,0.0,0.0,0.0,0.0,0.0,0.0,0.0,0.0,0.0,0.0,0.0,0.0,0.0,0.0,0.0,0.0,0.0,0.0,0.0,5.4908,5.4494,5.4494,5.4494,5.4494,5.4494,5.4494,5.4494,5.4494,5.4494,5.4494,5.4529,5.5219,5.5497,5.5563,5.6357,5.7081,5.7736,5.7874,5.8323,5.8978,5.9646,0.0,0.0,0.0,0.0,0.0,0.0,0.0,0.0,0.0,0.0,0.0,0.0,0.0,6.0156,6.1051,6.1289,6.1634,6.3186,6.36,6.36,6.36,6.36,6.36,6.36,6.36,6.3772,6.4462,6.4669,6.5152,6.6635,6.7532,6.825,6.9013,6.8362,6.7839,6.8044,6.7557,6.7263,6.7469,6.7304,6.718,6.718,6.8498,6.9381,6.9381,7.0741,7.1688,7.1985,7.2159,7.2416,7.2671,7.2459,7.2331,7.2331,7.1864,7.1864,7.2331,7.2288,7.2416,7.2713,7.2713,7.2713,7.2713,7.2713,7.2713,7.2713,7.2713,7.2713,7.2713,7.2713,7.2713,7.2713,7.2713,7.2713,7.2713,0.0,0.0,0.0,0.0,0.0,0.0,0.0,0.0,0.0,0.0,0.0,0.0,0.0,0.0,0.0,0.0,0.0,0.0,0.0,5.6081,5.5943,5.5943,5.5943,5.5943,5.5943,5.546,5.5426,5.5943,5.5943,5.5943,5.5943,5.6219,5.6357,5.6391,5.715,5.7633,5.7943,5.8392,5.8771,5.9012,5.9249,5.9216,0.0,0.0,0.0,0.0,0.0,0.0,0.0,0.0,6.0251,6.0524,6.0246,6.041,6.0852,6.167,6.1988,6.2255,6.3324,6.36,6.36,6.36,6.36,6.36,6.36,6.3945,6.4358,6.4634,6.5462,6.6389,6.734,6.7713,6.8004,6.8284,6.7925,6.7678,6.7879,6.751,6.7222,6.7304,6.7222,6.718,6.718,6.854,6.9424,6.9424,7.0784,7.1688,7.1985,7.2202,7.2416,7.2671,7.2459,7.2245,7.2115,7.1942,7.182,7.1864,7.2029,7.2245,7.2459,7.2628,7.2713,7.2713,7.2713,7.2713,7.2713,7.2713,7.2713,7.2713,7.2713,7.2713,7.2713,7.2713,7.2713,7.2713,0.0,0.0,0.0,0.0,0.0,0.0,0.0,0.0,0.0,0.0,0.0,0.0,0.0,0.0,0.0,0.0,0.0,0.0,5.715,5.6943,5.6805,5.6805,5.6805,5.6909,5.715,5.6633,5.6495,5.6805,5.6805,5.6805,5.6805,5.7047,5.715,5.7185,5.7909,5.8254,5.8288,5.8806,5.9012,5.9047,5.9415,5.9482,0.0,0.0,0.0,0.0,0.0,0.0,0.0,0.0,6.0706,6.0879,6.0879,6.0994,6.1268,6.2075,6.237,6.2634,6.3393,6.36,6.36,6.36,6.36,6.3669,6.3876,6.4324,6.4772,6.5014,6.629,6.7458,6.7816,6.7919,6.7919,6.7919,6.7799,6.7719,6.7879,6.7597,6.7387,6.7387,6.7387,6.7387,6.7387,6.8751,6.9595,6.9476,7.0958,7.1864,7.1985,7.2288,7.2501,7.2671,7.2544,7.2331,7.2072,7.2072,7.1985,7.1732,7.1985,7.2159,7.2331,7.2586,7.2713,7.2713,7.2713,7.2713,7.2713,7.2713,7.2713,7.2713,7.2713,7.2713,7.2713,7.2713,7.2713,7.2713,0.0,0.0,0.0,0.0,0.0,0.0,0.0,0.0,0.0,0.0,0.0,0.0,0.0,0.0,0.0,0.0,0.0,0.0,5.7909,5.7219,5.6805,5.6805,5.6805,5.715,5.7909,5.7909,5.7564,5.6805,5.6805,5.6805,5.684,5.7564,5.7909,5.7943,5.8668,5.9012,5.9012,5.9012,5.9012,5.9114,6.0401,6.0524,6.0223,0.0,0.0,0.0,0.0,0.0,0.0,0.0,6.1472,6.0879,6.0909,6.0994,6.1268,6.2075,6.2405,6.2668,6.3393,6.36,6.36,6.36,6.36,6.3772,6.4531,6.4703,6.4945,6.5738,6.7083,6.8083,6.8083,6.8083,6.8083,6.8083,6.8083,6.8083,6.8083,6.7919,6.7799,6.7799,6.7799,6.7799,6.7799,6.9207,6.9974,6.973,7.1345,7.2202,7.1985,7.2459,7.2713,7.2713,7.2713,7.2586,7.2331,7.2331,7.2202,7.1985,7.2202,7.2331,7.2331,7.2586,7.2713,7.2713,7.2713,7.2713,7.2713,7.2713,7.2713,7.2713,7.2713,7.2713,7.2713,7.2713,7.2713,7.2713,0.0,0.0,0.0,0.0,0.0,0.0,0.0,0.0,0.0,0.0,0.0,0.0,0.0,0.0,0.0,0.0,0.0,0.0,5.8668,5.8495,5.8357,5.8357,5.8357,5.8461,5.8668,5.8668,5.8564,5.8357,5.8357,5.8357,5.8357,5.8599,5.8668,5.8702,5.8909,5.9012,5.9047,5.9516,5.9714,5.9744,6.0585,6.0796,6.0736,0.0,0.0,0.0,0.0,0.0,0.0,0.0,0.0,0.0,6.2112,6.2081,6.2068,6.2733,6.3062,6.3324,6.3531,6.36,6.36,6.36,6.36,6.3772,6.4531,6.5117,6.5911,6.7187,6.7689,6.7959,6.8044,6.7965,6.7959,6.8078,6.8083,6.8083,6.8083,6.7919,6.7799,6.7799,6.7799,6.7799,6.7799,6.9207,7.0058,6.9974,7.143,7.2288,7.2202,7.2501,7.2713,7.2713,7.2713,7.2586,7.2331,7.2331,7.2202,7.1985,7.2202,7.2331,7.2331,7.2586,7.2713,7.2713,7.2713,7.2713,7.2713,7.2713,7.2713,7.2713,7.2713,7.2713,7.2713,7.2713,7.2713,7.2713,0.0,0.0,0.0,0.0,0.0,0.0,0.0,0.0,0.0,0.0,5.9012,5.9012,0.0,0.0,0.0,0.0,0.0,0.0,0.0,5.9012,5.9012,5.9012,5.9012,5.9012,5.9012,5.9012,5.9012,5.9012,5.9012,5.9012,5.9012,5.9012,5.9012,5.9012,5.9012,5.9012,5.9047,5.9417,5.9615,5.9681,6.0555,6.0879,6.1003,0.0,0.0,0.0,0.0,0.0,0.0,0.0,0.0,0.0,6.2629,6.2587,6.2418,6.3022,6.3372,6.36,6.36,6.36,6.36,6.36,6.36,6.3876,6.4945,6.5773,6.6669,6.7842,6.8004,6.7959,6.8083,6.7999,6.7959,6.8083,6.8083,6.8083,6.8083,6.7999,6.7919,6.7919,6.7919,6.7919,6.7919,6.9295,7.0182,7.0134,7.1591,7.2416,7.2331,7.2544,7.2713,7.2713,7.2713,7.2628,7.2459,7.2459,7.2416,7.2288,7.2416,7.2459,7.2459,7.2628,7.2713,7.2713,7.2713,7.2713,7.2713,7.2713,7.2713,7.2713,7.2713,7.2713,7.2713,7.2713,7.2713,7.2747,0.0,0.0,0.0,0.0,0.0,0.0,0.0,0.0,0.0,0.0,5.9012,5.9012,0.0,0.0,0.0,0.0,0.0,0.0,0.0,0.0,5.9012,5.9012,5.9012,5.9012,5.9012,5.9012,5.9047,5.9115,5.9047,5.9047,5.9115,5.9047,5.9047,5.9115,5.9047,5.9047,5.9115,5.9148,5.9216,5.9383,6.0585,6.1127,6.1315,6.2496,0.0,0.0,0.0,0.0,0.0,0.0,0.0,0.0,6.2727,6.2652,6.2483,6.3128,6.3442,6.36,6.36,6.36,6.36,6.36,6.3703,6.4149,6.5635,6.6566,6.7251,6.7906,6.8044,6.8044,6.8044,6.8044,6.8083,6.8083,6.8083,6.8083,6.8083,6.8083,6.8083,6.8083,6.8083,6.8083,6.8083,6.9428,7.0243,7.0141,7.169,7.2517,7.2373,7.2586,7.2713,7.2713,7.2713,7.2713,7.2713,7.2713,7.2713,7.2713,7.2713,7.2713,7.2713,7.2713,7.2713,7.2713,7.2713,7.2713,7.2713,7.2713,7.2713,7.2713,7.2713,7.2713,7.2713,7.2713,7.2755,7.29,0.0,0.0,0.0,0.0,0.0,0.0,0.0,0.0,0.0,0.0,0.0,0.0,0.0,0.0,0.0,0.0,0.0,0.0,0.0,0.0,5.9012,5.9012,5.9012,5.9012,5.9012,5.9012,5.9249,5.9776,5.9249,5.9249,5.9779,5.9249,5.9283,5.9779,5.9216,5.9283,5.9844,6.0278,6.0796,6.1358,6.2086,6.2777,6.345,6.372,6.372,0.0,0.0,0.0,0.0,0.0,0.0,0.0,6.3551,6.3434,6.3164,6.3926,6.3863,6.36,6.36,6.36,6.36,6.36,6.4349,6.5409,6.6493,6.7207,6.7673,6.7845,6.7879,6.7879,6.7879,6.7879,6.7919,6.8044,6.8083,6.8083,6.8083,6.8083,6.8083,6.8083,6.8083,6.8083,6.8083,6.8946,6.9773,7.0319,7.1222,7.2015,7.2594,7.2671,7.2713,7.2713,7.2713,7.2713,7.2713,7.2713,7.2713,7.2713,7.2713,7.2713,7.2713,7.2713,7.2713,7.2713,7.2713,7.2713,7.2713,7.2713,7.2713,7.2713,7.2713,7.2713,7.2713,7.2713,7.306,7.3662,0.0,0.0,0.0,0.0,0.0,0.0,0.0,0.0,0.0,0.0,0.0,0.0,0.0,0.0,0.0,0.0,0.0,0.0,0.0,0.0,5.9185,5.9564,5.9909,6.0116,6.0116,6.0392,6.0595,6.063,6.0595,6.0379,5.9969,5.9317,5.935,5.9969,5.9648,5.9855,6.0595,6.125,6.173,6.2177,6.313,6.3809,6.4237,6.4537,6.4677,6.4677,6.4677,0.0,0.0,0.0,0.0,0.0,0.0,0.0,6.385,6.4278,6.4239,6.4075,6.4075,6.4075,6.4073,6.4125,6.4904,6.5933,6.6807,6.7487,6.7919,6.7839,6.7879,6.7925,6.7925,6.7925,6.7999,6.8083,6.8083,6.8083,6.8083,6.8083,6.8083,6.8083,6.8083,6.8083,6.8083,6.8808,6.9601,7.0325,7.1084,7.1843,7.2678,7.2713,7.2713,7.2713,7.2713,7.2713,7.2713,7.2713,7.2713,7.2713,7.2713,7.2713,7.2713,7.2713,7.2713,7.2713,7.2713,7.2713,7.2713,7.2713,7.2713,7.2713,7.2713,7.2713,7.2713,7.2713,7.3426,7.4541,0.0,0.0,0.0,0.0,0.0,0.0,0.0,0.0,0.0,0.0,0.0,0.0,0.0,0.0,0.0,0.0,0.0,0.0,0.0,0.0,0.0,6.0358,6.1085,6.1466,6.1466,6.2016,6.2083,6.1641,6.2083,6.1682,6.0547,5.9899,5.9999,6.0737,6.0611,6.0963,6.1687,6.2312,6.2638,6.2927,6.4022,6.4565,6.4729,6.5301,6.5521,6.5495,6.5354,6.5217,6.5108,6.5108,0.0,0.0,0.0,0.0,6.4608,6.4751,6.4708,6.4601,6.4601,6.4497,6.4498,6.4818,6.5355,6.6079,6.698,6.7669,6.8004,6.7879,6.7965,6.8083,6.8044,6.8078,6.8083,6.8083,6.8083,6.8083,6.8083,6.8083,6.8083,6.8083,6.8083,6.8083,6.8083,6.8704,6.9428,7.0325,7.0946,7.1705,7.2678,7.2713,7.2713,7.2713,7.2713,7.2713,7.2713,7.2713,7.2713,7.2713,7.2713,7.2713,7.2713,7.2713,7.2713,7.2713,7.2713,7.2713,7.2713,7.2713,7.2713,7.2713,7.2713,7.2797,7.2887,7.2887,7.3996,7.5607,0.0,0.0,0.0,0.0,0.0,0.0,0.0,0.0,0.0,0.0,5.9012,5.9012,0.0,0.0,0.0,0.0,0.0,0.0,0.0,0.0,0.0,6.1151,6.1777,6.2184,6.2184,6.225,6.2511,6.3026,6.2511,6.247,6.2831,6.2164,6.2514,6.3697,6.3167,6.3298,6.3877,6.3992,6.4355,6.4948,6.5081,6.56,6.6223,6.6303,6.6329,6.6276,6.5621,6.4916,6.4363,6.4363,6.4363,0.0,0.0,0.0,6.5409,6.6162,6.5554,6.4601,6.4601,6.4182,6.4058,6.5397,6.5658,6.5955,6.7596,6.7896,6.7879,6.8004,6.8083,6.8078,6.7879,6.7999,6.8083,6.8083,6.8083,6.8083,6.8083,6.8083,6.8083,6.8083,6.8083,6.8083,6.8083,6.8187,6.8842,7.0291,7.0463,7.1153,7.2644,7.2713,7.2713,7.2713,7.2713,7.2713,7.2713,7.2713,7.2713,7.2713,7.2713,7.2713,7.2713,7.2713,7.2713,7.2713,7.2713,7.2713,7.2713,7.2713,7.2713,7.2713,7.2713,7.3101,7.3677,7.3677,7.5139,7.7194,0.0,0.0,0.0,0.0,0.0,0.0,0.0,0.0,0.0,0.0,0.0,5.984,0.0,0.0,0.0,6.0806,0.0,0.0,0.0,0.0,0.0,6.1979,6.2646,6.3031,6.3031,6.3749,6.4111,6.4049,6.4496,6.4936,6.5179,6.4905,6.4585,6.4315,6.4022,6.4274,6.4931,6.5341,6.5743,6.6125,6.6489,6.6843,6.7173,6.7173,6.7173,6.711,6.6802,6.6464,6.6172,6.6172,6.6172,6.6208,6.6526,0.0,0.0,0.0,6.5971,6.5072,6.4703,6.4358,6.4423,6.561,6.5838,6.614,6.7773,6.8004,6.7965,6.8083,6.8083,6.8044,6.7965,6.8044,6.8083,6.8083,6.8083,6.8083,6.8083,6.8083,6.8083,6.8083,6.8083,6.8083,6.8083,6.8083,6.8739,7.0256,7.0394,7.105,7.2644,7.2713,7.2713,7.2713,7.2713,7.2713,7.2713,7.2713,7.2713,7.2713,7.2713,7.2713,7.2713,7.2713,7.2713,7.2713,7.2713,7.2713,7.2713,7.2713,7.297,7.3311,7.3311,7.3795,7.4492,7.4492,7.6015,7.812,0.0,0.0,0.0,0.0,0.0,0.0,0.0,0.0,0.0,0.0,0.0,0.0,0.0,0.0,0.0,0.0,6.1772,0.0,0.0,0.0,0.0,6.3026,6.3546,6.4003,6.4358,6.5171,6.5465,6.5105,6.6192,6.6707,6.6707,6.6852,6.6321,6.5157,6.5157,6.5484,6.603,6.6582,6.6857,6.7004,6.7488,6.7606,6.746,6.7633,6.7569,6.7433,6.7433,6.7433,6.7433,6.7433,6.7433,6.7405,6.7061,6.6975,0.0,0.0,0.0,6.5689,6.4804,6.4702,6.5021,6.5726,6.6028,6.6522,6.7778,6.8083,6.8083,6.8083,6.8083,6.8083,6.8083,6.8083,6.8083,6.8083,6.8083,6.8083,6.8083,6.8083,6.8083,6.8083,6.8083,6.8083,6.8083,6.8083,6.867,7.0015,7.0291,7.0981,7.2291,7.2609,7.2713,7.2713,7.2713,7.2713,7.2713,7.2713,7.2713,7.2713,7.2713,7.2713,7.2713,7.2713,7.2713,7.2713,7.2713,7.2713,7.2713,7.2713,7.3018,7.3517,7.3721,7.4302,7.5047,7.5227,7.6836,7.8901,0.0,0.0,0.0,0.0,0.0,0.0,0.0,0.0,0.0,0.0,0.0,0.0,6.1289,6.1979,6.2427,6.2427,6.3082,6.3462,6.3462,6.3531,0.0,6.4462,6.4532,0.0,6.6529,6.594,6.594,6.6589,6.6648,6.6707,6.6707,6.735,6.7587,6.7513,6.7513,6.755,6.7587,6.7614,6.765,6.766,6.7687,6.7322,6.6794,6.746,6.7322,6.6736,6.6736,6.6736,6.6736,6.6736,6.6736,6.6889,6.746,6.766,6.766,0.0,0.0,0.0,6.4972,6.5072,6.5592,6.5838,6.6371,6.705,6.7934,6.8083,6.8083,6.8083,6.8083,6.8083,6.8083,6.8083,6.8083,6.8083,6.8083,6.8083,6.8083,6.8083,6.8083,6.8083,6.8083,6.8083,6.8083,6.8083,6.8428,6.9256,6.998,7.0739,7.1498,7.2257,7.2713,7.2713,7.2713,7.2713,7.2713,7.2713,7.2713,7.2713,7.2713,7.2713,7.2713,7.2713,7.2713,7.2713,7.2713,7.2713,7.2713,7.2713,7.2713,7.2838,7.3517,7.4302,7.5083,7.5861,7.7655,7.9732,0.0,0.0,0.0,0.0,0.0,0.0,0.0,0.0,0.0,0.0,0.0,0.0,0.0,6.3013,6.3404,6.3834,6.4459,6.4872,6.4872,6.4872,0.0,6.5237,6.5234,6.5497,6.5971,6.6222,6.6434,6.6707,6.7117,6.735,6.735,6.7606,6.7687,6.7687,6.7687,6.7687,6.7687,6.7687,6.7687,6.7687,6.7687,6.7579,6.7378,6.7633,6.7542,6.7294,6.6852,6.6975,6.7294,6.686,6.7004,6.7378,6.7633,6.7687,6.7633,6.7174,6.7174,6.7024,6.5625,6.5752,6.6459,6.7088,6.706,6.7231,6.8513,6.844,6.8083,6.8083,6.8083,6.8083,6.8083,6.8083,6.8083,6.8083,6.8083,6.8083,6.8083,6.8083,6.8083,6.8083,6.8083,6.8083,6.8083,6.8083,6.8428,6.9222,6.998,7.0705,7.1463,7.2257,7.2713,7.2713,7.2713,7.2713,7.2713,7.2713,7.2713,7.2713,7.2713,7.2713,7.2713,7.2713,7.2713,7.2713,7.2713,7.2713,7.2713,7.2713,7.3305,7.4187,7.4454,7.537,7.6534,7.6797,7.8112,7.98,0.0,0.0,0.0,0.0,0.0,0.0,0.0,0.0,0.0,6.3133,0.0,0.0,0.0,0.0,6.4428,6.4905,6.5332,6.559,6.559,6.559,6.5685,6.5971,6.5716,6.5811,6.6277,6.6553,6.6794,6.7032,6.7488,6.7687,6.7687,6.7687,6.7687,6.7687,6.7687,6.7687,6.7687,6.7687,6.7687,6.7687,6.7687,6.7579,6.7405,6.7633,6.7542,6.735,6.7117,6.7322,6.7606,6.6946,6.7146,6.766,6.7433,6.7515,6.7633,6.7146,6.735,6.746,6.6277,6.6493,6.7193,6.7852,6.7781,6.7901,6.8958,6.8825,6.8401,6.8162,6.8083,6.8083,6.8083,6.8083,6.8083,6.8083,6.8083,6.8078,6.8004,6.8078,6.8044,6.8039,6.8044,6.8083,6.8083,6.8044,6.8245,6.8842,6.9526,7.0202,7.096,7.1752,7.2345,7.2586,7.2628,7.2671,7.2586,7.2671,7.2628,7.2586,7.2671,7.2713,7.2713,7.2713,7.2713,7.2713,7.2713,7.2713,7.2713,7.2713,7.3432,7.4606,7.4901,7.579,7.6956,7.7212,7.8369,7.98,0.0,0.0,0.0,0.0,0.0,0.0,0.0,0.0,6.4635,6.4635,0.0,0.0,0.0,0.0,0.0,6.5621,6.5653,6.5653,6.5653,6.5653,6.5971,6.6707,0.0,0.0,6.7687,6.7061,6.7061,6.7687,6.7687,6.7687,6.7687,6.7687,6.7687,6.7687,6.7687,6.7687,6.7724,6.7714,6.7687,6.7687,6.7724,6.7322,6.6794,6.7497,6.7294,6.6765,6.7405,6.766,6.7515,6.6852,6.7089,6.7542,6.6946,6.7174,6.7687,6.7687,6.7687,6.7579,0.0,0.0,0.0,6.8012,6.8534,6.9093,6.9211,6.9237,6.9013,6.828,6.8123,6.8123,6.8083,6.8083,6.8083,6.8083,6.8083,6.8004,6.7839,6.7999,6.8004,6.7839,6.7999,6.8083,6.8083,6.7919,6.7879,6.8078,6.8607,6.9275,7.0023,7.0854,7.1575,7.2296,7.2544,7.2586,7.2331,7.2586,7.2586,7.2331,7.2586,7.2713,7.2713,7.2713,7.2713,7.2713,7.2713,7.2713,7.2713,7.2713,7.3142,7.3917,7.4716,7.5477,7.6303,7.7056,7.8369,7.9764,0.0,0.0,0.0,0.0,0.0,6.5087,6.53,6.53,6.53,0.0,0.0,0.0,6.559,6.6064,6.6404,6.6404,6.6852,6.7109,6.7109,6.7109,6.7202,6.7405,6.723,6.7286,6.7687,6.7515,6.7515,6.7687,6.7687,6.7687,6.7687,6.7687,6.7687,6.7687,6.7687,6.8017,6.8531,6.7944,6.7687,6.7724,6.8311,6.8119,6.7506,6.8293,6.7806,6.6648,6.6277,6.6186,6.6095,6.54,6.6007,6.7032,6.735,6.7542,6.7687,6.7687,6.7687,6.766,6.746,0.0,0.0,0.0,0.0,0.0,7.0656,7.0368,6.9778,6.905,6.89,6.8711,6.8201,6.8083,6.8083,6.8083,6.8083,6.8083,6.8004,6.8044,6.8083,6.8004,6.8078,6.8083,6.8083,6.8044,6.7999,0.0,6.9204,6.9907,6.9814,7.1174,7.2125,7.2296,7.2544,7.2586,7.2331,7.2586,7.2586,7.2331,7.2586,7.2713,7.2713,7.2713,7.2713,7.2713,7.2713,7.2713,7.2713,7.2713,7.3472,7.4716,7.4937,7.579,7.7024,7.7212,7.8002,7.9029,0.0,0.0,0.0,0.0,0.0,6.6064,6.6064,6.6064,6.6064,0.0,0.0,0.0,6.6493,6.6852,6.7117,6.7117,6.746,6.7687,6.7687,6.7687,6.7687,6.7687,6.7687,6.7687,6.7687,6.7687,6.7687,6.7687,6.7687,6.7687,6.7687,6.7687,6.7871,6.8201,6.8201,6.8641,6.9376,6.8898,6.8678,6.8715,6.9192,6.9119,6.8752,6.9229,6.8888,6.8044,6.7619,6.7469,6.7378,6.6685,6.7007,6.784,6.8513,6.8678,6.8678,6.8678,6.8678,6.8678,6.8678,6.9045,6.9596,7.0403,0.0,0.0,7.1272,7.1067,7.0436,6.9419,6.9198,6.8975,6.8241,6.8083,6.8083,6.8083,6.8083,6.8044,6.7999,6.8078,6.8044,6.7965,6.8044,6.8083,6.8083,6.8004,6.8022,6.8245,6.911,6.9776,7.0047,7.1379,7.2115,7.1994,7.2373,7.2373,7.1994,7.2288,7.2331,7.2159,7.2416,7.2586,7.2713,7.2713,7.2628,7.2544,7.2544,7.2544,7.2544,7.2544,7.3311,7.4529,7.4864,7.5756,7.6861,7.7181,7.7855,7.8699,0.0,0.0,6.7687,6.7687,6.7202,6.6794,6.6794,6.6794,6.6794,0.0,6.735,6.7687,6.7687,6.776,6.7834,6.7834,6.7907,6.7944,6.7944,6.7944,6.7944,6.7944,6.7944,6.7944,6.7944,6.7944,6.7944,6.7944,6.7944,6.7944,6.7944,6.7944,6.8348,6.9045,6.9045,6.9486,7.022,7.022,7.0293,7.0367,7.0257,7.0183,7.011,7.0183,7.0155,6.9989,6.9989,6.9933,6.9819,6.9279,6.9098,6.9219,6.9905,7.011,7.011,7.011,7.011,7.011,7.011,7.0183,7.0403,7.1109,7.1394,0.0,7.1495,7.1516,7.1131,6.9743,6.9456,6.92,6.8478,6.8323,6.8323,6.8323,6.828,6.8123,6.7879,6.7999,6.8004,6.7879,6.7999,6.8083,6.8083,6.7988,6.8211,6.8857,6.8864,6.9373,7.0546,7.1479,7.1898,7.16,7.2038,7.2038,7.16,7.1854,7.1985,7.1985,7.2202,7.2416,7.2671,7.2671,7.2501,7.2288,7.2331,7.2331,7.2288,7.2331,7.2901,7.3878,7.4716,7.5477,7.627,7.7056,7.7818,7.8552,0.0,6.7687,6.7687,6.7687,6.7606,6.7488,6.7488,6.7488,6.7488,6.7488,6.7633,6.7687,6.7687,6.8274,6.8678,6.8678,6.9265,6.9633,6.9633,6.9633,6.9633,6.9633,6.9633,6.9633,6.9633,6.9633,6.9633,6.9633,6.9633,6.9633,6.9633,6.9633,6.9706,6.9853,6.9853,7.033,7.1064,7.1064,7.1431,7.1982,7.1321,7.0697,7.0183,7.0844,7.0339,6.9279,6.9279,6.8976,6.8534,6.8976,6.9098,6.9219,6.9905,7.011,7.011,7.011,7.011,7.011,7.011,7.0587,7.1101,7.1284,7.1798,0.0,7.2248,7.2321,7.2048,7.1131,7.097,7.0773,6.9989,6.9849,6.9849,6.9849,6.9383,6.8749,6.8123,6.8078,6.8083,6.8078,6.8078,6.8083,6.8083,6.847,6.872,6.8898,6.9856,7.0738,7.1328,7.1786,7.1898,7.16,7.1898,7.1942,7.16,7.1854,7.1985,7.1985,7.2029,7.2159,7.2373,7.2373,7.2245,7.2072,7.2459,7.2416,7.2072,7.2459,7.3101,7.3878,7.4716,7.5477,7.627,7.7056,7.7384,7.7708,6.7687,6.7687,6.7687,6.7687,6.7687,6.7687,6.7687,6.7687,6.7687,6.7687,6.8054,6.8458,6.8825,6.9265,6.9486,6.9486,6.9853,7.011,7.011,7.011,7.011,7.011,7.011,7.011,7.011,7.011,7.011,7.011,7.011,7.011,7.011,7.011,7.0293,7.0697,7.0697,7.1174,7.1908,7.1908,7.2129,7.2459,7.2055,7.1651,7.1358,7.1762,7.1414,7.0814,7.0814,7.0568,7.0356,7.0658,7.0814,7.0873,7.1199,7.1284,7.1284,7.1284,7.1284,7.1284,7.1284,7.1578,7.1908,7.1908,7.2202,0.0,0.0,7.2496,7.2285,7.1547,7.139,7.1163,7.0436,7.03,7.03,7.03,6.9707,6.92,6.92,6.8555,6.8083,6.8083,6.8083,6.8256,6.8635,6.8848,6.9118,6.9662,7.0626,7.1314,7.1423,7.1678,7.1722,7.1457,7.1678,7.1678,7.1457,7.159,7.1678,7.181,7.181,7.1942,7.2159,7.2159,7.2029,7.1776,7.2038,7.2029,7.1854,7.2202,7.2894,7.376,7.4679,7.5477,7.627,7.7056,7.7273,7.742,6.7687,6.7687,6.7687,6.7687,6.7687,6.7687,6.7687,6.7687,6.7787,6.7907,6.8641,6.9376,7.0036,7.022,7.033,7.033,7.0477,7.055,7.055,7.055,7.055,7.055,7.055,7.055,7.055,7.055,7.055,7.055,7.055,7.055,7.055,7.055,7.0917,7.1513,7.1513,7.1908,7.2496,7.2496,7.2496,7.2496,7.2496,7.2496,7.2496,7.2496,7.2496,7.2496,7.2496,7.2496,7.2496,7.2496,7.2496,7.2496,7.2496,7.2496,7.2496,7.2496,7.2496,7.2496,7.2496,7.2496,7.2496,7.2496,7.2496,7.2496,0.0,0.0,0.0,7.1738,7.1609,7.1422,7.0803,7.0704,7.0668,7.0524,0.0,0.0,0.0,6.9021,0.0,6.8319,6.834,6.8566,6.9222,6.9329,6.9719,7.0658,7.1304,7.159,7.1312,7.1501,7.1501,7.1312,7.1457,7.1457,7.1312,7.1312,7.1412,7.16,7.1556,7.1678,7.1898,7.1898,7.181,7.1556,7.1644,7.16,7.1556,7.1854,7.2644,7.3721,7.4606,7.5477,7.627,7.7056,7.7273,7.7384,6.7687,6.7687,6.7687,6.7687,6.7687,6.7687,6.7687,6.7687,6.7944,6.8678,6.9449,7.0,7.0073,7.0734,7.1174,7.1174,7.1835,7.2239,7.2239,7.2239,7.2239,7.2239,7.2239,7.2239,7.2239,7.2239,7.2239,7.2239,7.2239,7.2239,7.2239,7.2239,7.2275,7.2349,7.2349,7.2422,7.2496,7.2496,7.2496,7.2496,7.2496,7.2496,7.2496,7.2496,7.2496,7.2496,7.2496,7.2496,7.2496,7.2496,7.2496,7.2496,7.2496,7.2496,7.2496,7.2496,7.2496,7.2496,7.2496,7.2496,0.0,0.0,7.2496,7.2496,7.2496,0.0,7.2467,7.2409,0.0,7.2351,7.2255,0.0,0.0,0.0,0.0,0.0,7.0225,6.8998,6.8323,6.9013,6.9142,6.9187,6.9256,7.0292,7.1089,7.1474,7.1786,7.1766,7.1312,7.1501,7.1501,7.1312,7.1312,7.1312,7.1312,7.1312,7.1412,7.16,7.1412,7.1457,7.1644,7.1644,7.1546,7.1356,7.1766,7.1722,7.1356,7.1844,7.2818,7.4075,7.4753,7.5477,7.627,7.7056,7.7273,7.731,6.7687,6.7687,6.7687,6.7687,6.7687,6.7687,6.7687,6.8091,6.8862,7.0146,7.0587,7.0991,7.1431,7.1798,7.2018,7.2018,7.2312,7.2496,7.2496,7.2496,7.2496,7.2496,7.2496,7.2496,7.2496,7.2496,7.2496,7.2496,7.2496,7.2496,7.2496,7.2496,7.2496,7.2496,7.2496,7.2496,7.2496,7.2496,7.2496,7.2496,7.2496,7.2496,7.2496,7.2496,7.2496,7.2496,7.2496,7.2496,7.2496,7.2496,7.2496,7.2496,7.2496,7.2496,7.2496,7.2496,0.0,0.0,0.0,0.0,0.0,0.0,0.0,0.0,7.2496,0.0,7.2496,0.0,0.0,0.0,0.0,0.0,0.0,0.0,7.1391,0.0,0.0,0.0,6.8863,6.9161,0.0,0.0,7.0333,7.14,7.1945,7.161,7.1854,7.18,7.1312,7.1367,7.1401,7.1312,7.1312,7.1312,7.1312,7.1312,7.1356,7.1412,7.1356,7.1356,7.1412,7.1412,7.1367,7.1312,7.1535,7.1491,7.1356,7.2176,7.3154,7.4191,7.5083,7.5965,7.6769,7.715,7.7273,7.7273,6.7687,6.7687,6.7687,6.7687,6.7687,6.776,6.7981,6.8898,7.0,7.1174,7.1505,7.1872,7.2459,7.2496,7.2496,7.2496,7.2496,7.2496,7.2496,7.2496,7.2496,7.2496,7.2496,7.2496,7.2496,7.2496,7.2496,7.2496,7.2496,7.2496,7.2496,7.2496,7.2496,7.2496,7.2496,7.2496,7.2496,7.2496,7.2496,7.2496,7.2496,7.2642,7.2789,7.2569,7.2642,7.2826,7.2826,7.2973,7.3156,7.3156,7.3156,7.3156,7.3156,7.3156,7.3156,0.0,0.0,0.0,7.3156,0.0,0.0,0.0,0.0,0.0,0.0,0.0,0.0,0.0,0.0,0.0,0.0,0.0,7.2422,7.2202,0.0,7.1568,0.0,7.0629,0.0,0.0,0.0,0.0,0.0,7.2054,7.2373,7.182,7.182,7.1722,7.1367,7.1356,7.1312,7.1312,7.1312,7.1312,7.1312,7.1312,7.1312,7.1312,7.1312,7.1312,7.1312,7.1312,7.1312,7.1312,7.1312,7.1312,7.1401,7.2356,7.3281,7.4114,7.5191,7.6172,7.6998,7.7186,7.7248,7.7279,6.7687,6.7687,6.7687,6.7687,6.7687,6.7944,6.8752,7.022,7.1219,7.1293,7.1982,7.2459,7.2496,7.2496,7.2496,7.2496,7.2496,7.2496,7.2496,7.2496,7.2496,7.2496,7.2496,7.2496,7.2496,7.2496,7.2496,7.2496,7.2496,7.2496,7.2496,7.2496,7.2496,7.2496,7.2496,7.2496,7.2496,7.2496,7.2496,7.2496,7.2496,7.2973,7.356,7.2789,7.2973,7.367,7.367,7.4147,7.4845,7.4845,7.4845,7.4845,0.0,0.0,0.0,0.0,0.0,0.0,0.0,0.0,0.0,7.4845,0.0,0.0,0.0,0.0,7.2496,0.0,0.0,0.0,0.0,0.0,7.2275,7.1439,7.135,0.0,0.0,0.0,0.0,0.0,0.0,0.0,0.0,7.1977,7.2331,7.2288,7.1864,7.16,7.16,7.1412,7.1312,7.1312,7.1312,7.1312,7.1312,7.1312,7.1312,7.1312,7.1312,7.1312,7.1312,7.1312,7.1312,7.1312,7.1312,7.1312,7.1356,7.2185,7.3037,7.3917,7.4902,7.5862,7.668,7.6998,7.7124,7.7124,6.7687,6.7687,6.7687,6.7687,6.8128,6.8935,7.0293,7.0926,7.1505,7.2018,7.2349,7.2496,7.2496,7.2496,7.2496,7.2496,7.2496,7.2496,7.2496,7.2496,7.2496,7.2496,7.2496,7.2496,7.2496,7.2496,7.2496,7.2496,7.2496,7.2496,7.2496,7.2496,7.2496,7.2496,7.2496,7.2496,7.2496,7.2496,7.2496,7.2569,7.3083,7.378,7.4404,7.3597,7.378,7.4478,7.4478,7.436,7.417,7.417,7.3812,7.338,7.338,7.338,7.338,7.338,7.338,7.338,0.0,0.0,7.3513,7.4042,0.0,0.0,0.0,0.0,0.0,0.0,0.0,0.0,0.0,0.0,7.2422,7.2165,7.2138,7.2123,0.0,0.0,0.0,0.0,0.0,0.0,0.0,0.0,7.2245,7.2115,7.1776,7.1512,7.1412,7.1356,7.1312,7.1312,7.1312,7.1312,7.1312,7.1312,7.1312,7.1312,7.1312,7.1312,7.1312,7.1312,7.1312,7.1312,7.1312,7.1312,7.1401,7.2783,7.3522,7.3956,7.5371,7.6174,7.6445,7.6769,7.6897,7.6934,6.7687,6.7687,6.7687,6.7687,6.8605,6.9779,7.1101,7.1541,7.1908,7.2422,7.2496,7.2496,7.2496,7.2496,7.2496,7.2496,7.2496,7.2496,7.2496,7.2496,7.2496,7.2496,7.2496,7.2496,7.2496,7.2496,7.2496,7.2496,7.2496,7.2496,7.2496,7.2496,7.2496,7.2496,7.2496,7.2496,7.2532,7.2826,7.2936,7.301,7.3817,7.4625,7.5285,7.4735,7.4882,7.5292,7.5013,7.4978,7.4974,7.4413,7.4072,7.3829,7.3547,7.344,7.344,7.344,7.344,7.344,7.344,7.344,0.0,7.4108,7.4028,0.0,7.4764,0.0,7.4372,0.0,0.0,0.0,0.0,0.0,7.2754,7.2236,7.235,7.2496,0.0,7.1227,0.0,6.9013,6.9545,7.0291,0.0,7.1641,7.2022,7.2029,7.1854,7.1678,7.1412,7.1356,7.1312,7.1312,7.1312,7.1312,7.1312,7.1312,7.1312,7.1312,7.1312,7.1312,7.1312,7.1312,7.1312,7.1312,7.1312,7.1457,7.183,7.32,7.3994,7.4414,7.576,7.6275,7.6309,7.6643,7.6737,7.6834,6.7687,6.7724,6.776,6.7834,6.9119,7.044,7.1248,7.2018,7.2496,7.2496,7.2496,7.2496,7.2496,7.2496,7.2496,7.2496,7.2496,7.2496,7.2496,7.2496,7.2496,7.2496,7.2496,7.2496,7.2496,7.2496,7.2496,7.2496,7.2496,7.2496,7.2496,7.2496,7.2496,7.2496,7.2496,7.2532,7.2606,7.3377,7.3744,7.3891,7.4661,7.5432,7.6166,7.6166,7.6166,7.6075,7.5374,7.6045,7.7019,7.5547,7.5512,7.5929,7.5192,7.4937,7.4901,7.4901,7.4901,7.4901,7.4901,7.4901,7.4901,7.4937,7.4367,0.0,0.0,0.0,7.3856,0.0,0.0,0.0,0.0,0.0,0.0,7.1894,7.2128,7.2475,7.2409,0.0,7.0232,7.0197,6.9675,6.952,7.0072,7.096,7.1599,7.1994,7.1985,7.1854,0.0,7.1412,7.1312,7.1312,7.1312,7.1312,7.1312,7.1312,7.1312,7.1312,7.1312,7.1312,7.1312,7.1312,7.1312,7.1312,7.1312,7.1732,7.2533,7.3442,7.4299,7.5118,7.5967,7.6275,7.6309,7.6512,7.6676,7.6801,6.7687,6.8164,6.8972,7.0183,7.0734,7.1284,7.2092,7.2386,7.2496,7.2496,7.2496,7.2496,7.2496,7.2496,7.2496,7.2496,7.2496,7.2496,7.2496,7.2496,7.2496,7.2496,7.2496,7.2496,7.2496,7.2496,7.2496,7.2496,7.2496,7.2496,7.2496,7.2496,7.2496,7.2496,7.2496,7.2826,7.3413,7.3597,7.4368,7.5506,7.5726,7.6276,7.698,7.698,7.698,7.698,7.6758,7.6615,7.6403,7.6034,7.5227,7.4378,7.4187,7.3716,7.3305,7.3305,7.3305,7.3305,7.3305,7.3305,7.3432,7.3956,7.397,7.3984,0.0,0.0,0.0,0.0,0.0,0.0,0.0,0.0,0.0,0.0,0.0,0.0,0.0,0.0,0.0,6.8711,0.0,0.0,7.0243,7.0877,7.1464,7.1994,7.181,7.1634,7.1401,0.0,7.1312,7.1312,7.1312,7.1312,7.1312,7.1312,7.1312,7.1312,7.1312,7.1312,7.1312,7.1312,7.1312,7.1312,7.1312,7.1446,7.1732,7.316,7.3917,7.4264,7.576,7.6275,7.6311,7.6378,7.6478,7.6643,6.8164,6.9155,7.0257,7.1109,7.1615,7.1982,7.2422,7.2496,7.2496,7.2496,7.2496,7.2496,7.2496,7.2496,7.2496,7.2496,7.2496,7.2496,7.2496,7.2496,7.2496,7.2496,7.2496,7.2496,7.2496,7.2496,7.2496,7.2496,7.2496,7.2496,7.2496,7.2496,7.2679,7.301,7.301,7.3487,7.4258,7.4588,7.5469,7.6644,7.6644,7.69,0.0,7.7273,7.7273,7.7273,7.7273,7.7056,7.6501,7.5477,7.479,7.4226,7.3517,7.3018,7.2713,7.2713,7.2713,7.2713,7.2713,7.2713,7.2797,7.3223,7.3311,7.3517,7.4302,7.4492,7.435,0.0,7.4113,7.4117,0.0,0.0,0.0,0.0,0.0,0.0,0.0,0.0,0.0,0.0,6.9583,0.0,7.0808,7.1083,7.1456,7.1951,7.1942,0.0,0.0,0.0,7.1367,7.1312,7.1312,7.1312,7.1312,7.1312,7.1312,7.1312,7.1312,7.1312,7.1312,7.1312,7.1312,7.1312,7.1312,7.1722,7.2483,7.3402,7.4226,7.501,7.5933,7.6275,7.6275,7.6275,7.6378,7.6478,6.9045,7.0367,7.1329,7.1439,7.2055,7.2496,7.2496,7.2496,7.2496,7.2496,7.2496,7.2496,7.2496,7.2496,7.2496,7.2496,7.2496,7.2496,7.2496,7.2496,7.2496,7.2496,7.2496,7.2496,7.2496,7.2496,7.2496,7.2496,7.2496,7.2569,7.2679,7.2679,7.3083,7.3854,7.3854,7.4294,7.5139,7.5909,7.668,7.7273,7.7273,7.7273,7.7273,7.7273,7.7243,7.7181,7.7243,7.7243,7.6861,7.4792,7.4529,7.4753,7.3305,7.2846,7.2838,7.2713,7.2713,7.2713,7.2713,7.2713,7.2713,7.2713,7.2713,7.2846,7.3517,7.3677,7.3677,7.3677,7.4226,7.4302,7.306,0.0,0.0,0.0,0.0,0.0,0.0,0.0,0.0,0.0,0.0,0.0,7.1429,7.1366,7.1422,7.1994,7.2159,0.0,0.0,0.0,7.1501,7.1312,7.1312,7.1312,7.1312,7.1312,7.1312,7.1312,7.1312,7.1312,7.1312,7.1312,7.1312,7.1312,7.1312,7.2133,7.3482,7.3721,7.4789,7.6275,7.6275,7.6275,7.6275,7.6275,7.6275,7.6309,7.0587,7.1109,7.1541,7.2165,7.2422,7.2496,7.2496,7.2496,7.2496,7.2496,7.2496,7.2496,7.2496,7.2496,7.2496,7.2496,7.2496,7.2496,7.2496,7.2496,7.2496,7.2496,7.2496,7.2496,7.2496,7.2496,7.2496,7.2496,7.2496,7.2826,7.3487,7.3487,7.3927,7.4698,7.4698,7.5139,7.5946,7.6754,7.7163,7.7273,7.7273,7.7273,7.7273,7.7273,7.6925,7.6469,7.7087,7.6893,7.6336,7.5895,7.5406,7.4864,7.3878,7.3597,7.3477,7.2887,7.2713,7.2713,7.2713,7.2713,7.2713,7.2713,7.2713,7.2713,7.2846,7.2887,7.2887,7.2887,7.3012,7.3223,7.3557,0.0,0.0,0.0,0.0,0.0,0.0,0.0,0.0,0.0,0.0,7.1186,0.0,0.0,0.0,0.0,0.0,0.0,0.0,0.0,7.1356,0.0,7.1312,7.1312,0.0,0.0,7.1312,7.1312,7.1312,7.1312,7.1312,7.1312,7.1312,7.1312,7.1312,7.1457,7.1864,7.3235,7.4789,7.6275,7.6275,7.6275,7.6275,7.6275,7.6275,7.6311,7.1174,7.1651,7.2055,7.2422,7.2496,7.2496,7.2496,7.2496,7.2496,7.2496,7.2496,7.2496,7.2496,7.2496,7.2496,7.2496,7.2496,7.2496,7.2496,7.2496,7.2496,7.2496,7.2496,7.2716,7.312,7.312,7.334,7.3744,7.3744,7.3964,7.4331,7.4331,7.4771,7.5542,7.5983,7.6356,7.6754,7.7127,7.7273,7.7273,7.7273,7.7273,7.7243,7.6861,7.6501,7.6203,7.6133,7.5617,7.501,7.5441,7.5299,7.479,7.3597,7.3229,7.3183,7.2804,7.2713,7.2713,7.2713,7.2713,7.2713,7.2713,7.2713,7.2713,7.2713,7.2713,7.2713,7.2713,7.2713,7.2929,7.3641,7.3795,0.0,0.0,0.0,0.0,0.0,0.0,7.1567,0.0,0.0,0.0,0.0,0.0,0.0,0.0,0.0,0.0,0.0,0.0,7.1412,0.0,0.0,0.0,7.1312,0.0,7.1312,7.1312,7.1312,7.1312,7.1312,7.1312,7.1312,7.1312,7.1312,7.1546,7.2047,7.3281,7.4529,7.569,7.569,7.5898,7.6275,7.6275,7.6275,7.6275,7.155,7.2092,7.2496,7.2496,7.2496,7.2496,7.2496,7.2496,7.2496,7.2496,7.2496,7.2496,7.2496,7.2642,7.2753,7.2753,7.2899,7.301,7.301,7.301,7.301,7.301,7.301,7.3303,7.3927,7.3964,7.4258,0.0,0.0,7.4808,7.4661,7.4992,7.5579,7.6387,7.7047,7.7273,7.7273,7.7118,7.715,7.7273,7.6925,7.6925,7.6956,7.6236,7.5826,7.5653,7.5155,7.4492,7.3917,7.4529,7.4718,7.4492,7.3101,7.2838,7.2887,7.2755,7.2713,7.2713,7.2713,7.2713,7.2713,7.2713,7.2713,7.2713,7.2713,7.2713,7.2713,7.2713,7.2713,7.2929,7.3641,7.3223,0.0,0.0,0.0,0.0,0.0,0.0,0.0,0.0,0.0,0.0,7.2586,0.0,0.0,0.0,0.0,0.0,7.1556,0.0,0.0,0.0,0.0,7.1312,7.1312,0.0,7.1312,7.1312,7.1312,7.1312,7.1312,7.1312,7.1312,7.1312,7.1312,7.1776,7.254,7.3241,7.4149,7.5082,7.5082,7.5584,7.6275,7.6275,7.6275,7.6275,7.2386,7.2459,7.2496,7.2496,7.2496,7.2496,7.2496,7.2496,7.2496,7.2496,7.2496,7.2496,7.2496,7.3156,7.3597,7.3597,7.4258,7.4698,7.4698,7.4698,7.4698,7.4698,7.4698,7.4735,7.4808,7.4808,7.4845,0.0,0.0,7.4551,7.3817,7.5322,7.6423,7.7163,7.7273,7.7273,0.0,7.6603,7.67,7.7181,7.5756,7.5617,7.6203,7.5406,7.4679,7.4111,7.479,7.4492,7.3799,7.3878,7.3917,7.376,7.297,7.3183,7.3557,7.2887,7.2713,7.2713,7.2713,7.2713,7.2713,7.2713,7.2713,7.2713,7.2713,7.2713,7.2713,7.2713,7.2713,7.2929,7.3641,7.3223,7.2929,0.0,0.0,0.0,0.0,0.0,7.3357,7.2424,0.0,0.0,7.2245,7.286,0.0,0.0,7.1688,0.0,0.0,0.0,0.0,7.1312,7.1312,7.1312,7.1312,7.1312,7.1312,7.1312,7.1312,7.1312,7.1312,7.1312,7.1312,7.1312,7.1312,7.1776,7.2533,7.2617,7.3602,7.5082,7.5082,7.5584,7.6275,7.6275,7.6275,7.6275,7.2496,7.2496,7.2496,7.2496,7.2496,7.2679,7.3156,7.323,7.3377,7.3891,7.3523,7.3413,7.3891,7.4221,7.4441,7.4441,7.4735,7.4918,7.4918,7.4918,7.4918,7.4918,7.4918,7.5139,7.5616,7.5616,7.5873,0.0,0.0,0.0,0.0,7.6533,7.6758,7.6636,0.0,7.5893,7.5893,7.5582,7.5652,7.5859,7.5263,7.5192,7.537,7.4604,7.4072,7.376,7.3637,7.3392,7.3142,7.3142,7.3397,7.3641,7.2929,7.2887,7.306,7.2797,7.2713,7.2713,7.2713,7.2713,7.2713,7.2713,7.2713,7.2713,7.2713,7.2713,7.2713,7.2713,7.2713,7.2755,7.2894,7.2678,7.2509,7.2686,0.0,0.0,0.0,0.0,0.0,7.2159,0.0,7.27,0.0,7.2124,7.2004,0.0,0.0,0.0,0.0,0.0,0.0,7.1312,0.0,7.1312,7.1312,7.1312,7.1312,7.1312,7.1312,7.1312,7.1312,7.1312,7.1312,7.1312,7.1312,7.1501,7.1776,7.1776,7.2448,7.3602,7.4111,7.4826,7.5655,7.6106,7.6275,7.6275,7.2496,7.2496,7.2569,7.2826,7.2863,7.312,7.3927,7.4037,7.4331,7.5175,7.4771,7.4515,7.4882,7.5139,7.5249,7.5249,7.5469,7.5616,7.5616,7.5616,7.5616,7.5616,7.5616,7.5873,7.646,7.646,7.6754,7.7273,7.7273,0.0,0.0,0.0,0.0,0.0,7.5263,7.501,7.501,7.4753,7.479,7.4974,7.4492,7.4454,7.4567,7.3795,7.3477,7.3432,7.2887,7.2713,7.2713,7.2713,7.3018,7.3392,7.2846,7.2713,7.2713,7.2713,7.2713,7.2713,7.2713,7.2713,7.2713,7.2713,7.2713,7.2713,7.2713,7.2713,7.2713,7.2713,7.2713,7.2628,7.2373,7.2373,7.2331,7.2029,0.0,0.0,0.0,7.2167,0.0,0.0,7.2228,7.2313,7.1854,7.182,7.1732,7.1512,7.1546,0.0,0.0,0.0,0.0,0.0,0.0,0.0,7.1312,7.1312,7.1312,7.1312,7.1312,7.1312,7.1312,7.1312,7.1312,7.1312,7.1312,7.1312,7.1312,7.1312,7.1776,7.2617,7.3442,7.4302,7.5191,7.6003,7.6275,7.6275,7.2496,7.2496,7.2753,7.356,7.367,7.3964,7.4771,7.4918,7.5175,7.5983,7.6093,7.5763,7.4992,7.5616,7.6093,7.6093,7.6827,7.7273,7.7273,7.7273,7.7273,7.7273,7.7273,7.7273,7.7273,7.7273,7.7273,7.7273,0.0,0.0,7.3816,0.0,7.3476,7.501,7.501,7.501,7.4974,7.4149,7.4302,7.4864,7.3345,7.3183,7.3721,7.2977,7.2713,7.2713,7.2713,7.2713,7.2713,7.2713,7.2713,7.2713,7.2713,7.2713,7.2713,7.2713,7.2713,7.2713,7.2713,7.2713,7.2713,7.2713,7.2713,7.2713,7.2713,7.2713,7.2713,7.2713,7.2713,7.2628,7.2373,7.2501,7.2544,7.2072,0.0,0.0,0.0,7.2617,0.0,7.1698,7.3407,7.3764,7.1546,7.2364,7.2582,7.1401,7.1312,0.0,0.0,0.0,0.0,7.1312,7.1312,0.0,7.1312,7.1312,7.1312,7.1312,7.1312,7.1312,7.1312,7.1312,7.1312,7.1312,7.1312,7.1312,7.1312,7.1312,7.1776,7.2617,7.3442,7.4302,7.5191,7.6003,7.6275,7.6275,7.3303,7.378,7.4221,7.4478,7.4515,7.4808,7.5616,7.5726,7.6019,7.6827,7.6937,7.6796,7.654,7.676,7.6937,7.6937,7.7127,7.7273,7.7273,7.7273,7.7273,7.7273,7.7273,7.7273,7.7273,7.7273,7.7056,7.657,0.0,0.0,0.0,7.3785,7.3693,7.4187,7.3637,7.3432,7.3426,7.3142,7.3183,7.3426,7.2887,7.2846,7.3018,7.2797,7.2713,7.2713,7.2713,7.2713,7.2713,7.2713,7.2713,7.2713,7.2713,7.2713,7.2713,7.2713,7.2713,7.2713,7.2713,7.2713,7.2713,7.2713,7.2713,7.2628,7.2459,7.2331,7.2202,7.2202,7.2202,7.2159,7.1864,7.1907,7.1854,7.158,7.158,0.0,7.1535,0.0,7.1776,7.1412,7.196,7.209,7.1356,7.1644,0.0,0.0,0.0,0.0,0.0,0.0,0.0,0.0,7.1312,0.0,7.1312,7.1312,7.1312,7.1312,7.1312,7.1312,7.1312,7.1312,7.1312,7.1312,7.1312,7.1312,7.1312,7.1312,7.1457,7.1776,7.2575,7.3442,7.4338,7.5191,7.5829,7.6275,7.4147,7.4551,7.5028,7.5322,7.5359,7.5616,7.6423,7.657,7.6754,7.7237,7.7273,7.7273,7.7273,7.7273,7.7273,7.7273,7.7273,7.7273,7.7273,7.7273,7.7181,7.6893,7.6861,7.6765,7.6432,7.6469,0.0,7.5757,7.5441,7.5047,7.4529,7.3756,7.3392,7.3392,7.2887,7.2713,7.2713,7.2713,7.2713,7.2713,7.2713,7.2713,7.2713,7.2713,7.2713,7.2713,7.2713,7.2713,7.2713,7.2713,7.2713,7.2713,7.2713,7.2713,7.2713,7.2713,7.2713,7.2713,7.2713,7.2713,7.2671,7.2586,7.2544,7.2501,7.2245,7.2072,7.1985,7.1985,7.1985,7.1898,7.1644,7.1688,7.1678,7.1356,7.1356,7.1401,7.1312,0.0,7.1312,0.0,0.0,7.1367,0.0,7.1401,7.1367,0.0,0.0,0.0,0.0,0.0,7.1312,7.1312,7.1312,7.1312,7.1312,7.1312,7.1312,7.1312,7.1312,7.1312,7.1312,7.1312,7.1312,7.1312,7.1312,7.1312,7.1312,7.1312,7.1312,7.1401,7.2185,7.3037,7.3917,7.4752,7.562,7.6275,7.4992,7.5028,7.5322,7.6056,7.6166,7.646,7.7163,7.7273,7.7273,7.7273,7.7273,7.7273,7.7273,7.7273,7.7273,7.7212,7.7243,7.7273,7.7273,7.7243,7.6893,7.6236,7.6135,7.5757,7.501,7.501,7.4974,7.4937,7.4111,7.3721,7.3681,7.3018,7.2713,7.2713,7.2713,7.2713,7.2713,7.2713,7.2713,7.2713,7.2713,7.2713,7.2713,7.2713,7.2713,7.2713,7.2713,7.2713,7.2713,7.2713,7.2713,7.2713,7.2713,7.2713,7.2713,7.2713,7.2713,7.2713,7.2713,7.2713,7.2628,7.2416,7.2331,7.2245,7.2029,7.1942,7.1942,7.1942,7.1942,7.1898,7.16,7.181,7.1844,7.1356,7.1457,7.1512,7.1312,7.1312,7.1312,0.0,0.0,0.0,7.1312,7.1457,7.1501,0.0,0.0,0.0,0.0,0.0,7.1312,7.1312,7.1312,7.1312,7.1312,7.1312,7.1312,7.1312,7.1312,7.1312,7.1312,7.1312,7.1312,7.1312,7.1312,7.1312,7.1312,7.1312,7.1312,7.1401,7.2142,7.2955,7.3799,7.4677,7.5549,7.6208,7.5836,7.6313,7.6796,7.698,7.7047,7.7053,7.7273,7.7273,7.7273,7.7273,7.7273,7.7273,7.7273,7.7273,7.7087,7.6501,7.6993,7.7273,7.7273,7.6765,7.637,7.6203,7.5618,7.5192,7.501,7.501,7.4716,7.4111,7.3311,7.297,7.297,7.2797,7.2713,7.2713,7.2713,7.2713,7.2713,7.2713,7.2713,7.2713,7.2713,7.2713,7.2713,7.2713,7.2713,7.2713,7.2713,7.2713,7.2713,7.2713,7.2713,7.2713,7.2713,7.2713,7.2713,7.2713,7.2713,7.2713,7.2713,7.2713,7.2671,7.2628,7.2331,7.1985,7.1732,7.159,7.1491,7.1491,7.1491,7.1446,7.1401,7.1446,7.1446,7.1312,7.1356,7.1356,7.1312,7.1312,7.1312,0.0,7.1356,7.1356,7.1312,7.1356,7.1356,0.0,0.0,7.1312,7.1312,7.1312,7.1312,7.1312,7.1312,7.1312,7.1312,7.1312,7.1312,7.1312,7.1312,7.1312,7.1312,7.1312,7.1312,7.1312,7.1312,7.1312,7.1312,7.1312,7.1312,7.1312,7.1501,7.209,7.2914,7.3799,7.464,7.5442,7.6644,7.698,7.7273,7.7273,7.7273,7.7273,7.7273,7.7273,7.7273,7.7273,7.7273,7.7181,7.6829,7.6696,7.6366,7.5722,7.637,7.6632,7.6267,7.5895,7.5477,7.5119,7.4681,7.4302,7.3952,7.3952,7.3716,7.3311,7.2887,7.2713,7.2713,7.2713,7.2713,7.2713,7.2713,7.2713,7.2713,7.2713,7.2628,7.2544,7.2628,7.2628,7.2544,7.2628,7.2713,7.2713,7.2713,7.2713,7.2713,7.2713,7.2713,7.2713,7.2713,7.2713,7.2713,7.2713,7.2713,7.2713,7.2713,7.2713,7.2671,7.2544,7.2159,7.1776,7.1644,7.1457,7.1312,7.1312,7.1312,7.1312,7.1312,7.1312,7.1312,7.1312,7.1312,7.1312,7.1312,7.1312,7.1312,7.1312,7.1312,7.1312,7.1312,7.1312,7.1312,7.1312,7.1312,0.0,7.1312,7.1312,7.1312,7.1312,7.1312,7.1312,7.1312,7.1312,7.1312,7.1312,7.1312,7.1312,7.1312,7.1312,7.1312,7.1312,7.1312,7.1312,7.1312,7.1312,7.1312,7.1312,7.1312,7.1786,7.2617,7.3482,7.4376,7.5191,7.7273,7.7273,7.7273,7.7273,7.7273,7.7273,7.7273,7.7273,7.7273,7.7273,7.7273,7.7024,7.627,7.5995,7.5581,7.4828,7.5406,7.5547,7.501,7.4792,7.4381,7.3721,7.3562,7.3229,7.2586,7.2586,7.2586,7.2628,7.2628,7.2671,7.2713,7.2713,7.2671,7.2628,7.2628,7.2628,7.2586,7.2586,7.2501,7.2331,7.2544,7.2544,7.2416,7.2628,7.2713,7.2713,7.2713,7.2713,7.2713,7.2713,7.2713,7.2713,7.2713,7.2713,7.2713,7.2713,7.2713,7.2713,7.2713,7.2713,7.2628,7.2331,7.1951,7.1644,7.1556,7.1412,7.1312,7.1312,7.1312,7.1312,7.1312,7.1312,7.1312,7.1312,7.1312,7.1312,7.1312,0.0,7.1312,7.1312,7.1312,7.1312,7.1312,7.1312,7.1312,7.1312,7.1312,7.1312,7.1312,7.1312,7.1312,7.1312,7.1312,7.1312,7.1312,7.1312,7.1312,7.1312,7.1312,7.1312,7.1312,7.1312,7.1312,7.1312,7.1312,7.1312,7.1312,7.1312,7.1312,7.1312,7.1312,7.1786,7.2617,7.3482,7.4376,7.5191,7.7273,7.7273,7.7273,7.7273,7.7273,7.7273,7.7273,7.7273,7.7273,7.7273,7.7273,7.7024,7.627,7.6169,7.5477,7.3842,7.3878,7.4152,7.4718,7.392,7.3327,7.3206,7.2609,7.2245,7.2115,7.2115,7.2202,7.2373,7.2373,7.2501,7.2713,7.2713,7.2586,7.2373,7.2373,7.2288,7.2115,7.2115,7.2202,7.2331,7.2373,7.2459,7.2628,7.2671,7.2713,7.2713,7.2713,7.2713,7.2713,7.2713,7.2713,7.2713,7.2713,7.2713,7.2713,7.2713,7.2713,7.2713,7.2713,7.2713,7.2586,7.2159,7.1985,7.181,7.1446,7.1312,7.1312,7.1312,7.1312,7.1312,7.1312,7.1312,7.1312,7.1312,7.1312,7.1312,7.1312,0.0,7.1312,7.1312,7.1312,7.1312,7.1312,7.1312,7.1312,7.1312,7.1312,7.1312,7.1312,7.1312,7.1312,7.1312,7.1312,7.1312,7.1312,7.1312,7.1312,7.1312,7.1312,7.1312,7.1312,7.1312,7.1312,7.1312,7.1312,7.1312,7.1312,7.1312,7.1312,7.1312,7.1312,7.1786,7.2617,7.3482,7.4376,7.5191,7.7273,7.7273,7.7273,7.7273,7.7273,7.731,7.7217,7.7243,7.7243,7.7217,7.7279,7.6861,7.5688,7.5441,7.4716,7.3025,7.2651,7.27,7.3235,7.2783,7.2525,7.2525,7.2167,7.1985,7.1985,7.1985,7.2029,7.2159,7.2159,7.2202,7.2331,7.2331,7.2245,7.2159,7.2159,7.2072,7.1985,7.1985,7.1985,7.1907,7.2072,7.2159,7.2124,7.2288,7.2331,7.2331,7.2331,7.2373,7.2501,7.2501,7.2501,7.2501,7.2501,7.2416,7.2331,7.2331,7.2416,7.2501,7.2501,7.2416,7.2245,7.2029,7.1898,7.1722,7.1501,7.1401,7.1312,7.1312,7.1312,7.1312,7.1312,7.1312,7.1312,7.1312,7.1312,7.1312,7.1312,7.1312,7.1312,7.1312,7.1312,7.1312,7.1312,7.1312,7.1312,7.1312,7.1312,7.1312,7.1312,7.1312,7.1312,7.1312,7.1312,7.1312,7.1312,7.1312,7.1312,7.1312,7.1312,7.1312,7.1312,7.1312,7.1312,7.1312,7.1312,7.1312,7.1312,7.1312,7.1312,7.1356,7.1776,7.2185,7.2624,7.3994,7.4752,7.5191,7.7273,7.7273,7.7273,7.7273,7.7273,7.7279,7.7155,7.7217,7.7217,7.7124,7.7186,7.6632,7.5047,7.4827,7.4037,7.2296,7.1864,7.1766,7.181,7.181,7.1854,7.1898,7.1854,7.181,7.181,7.181,7.1854,7.1898,7.1898,7.1942,7.1985,7.1985,7.1942,7.1898,7.1898,7.1898,7.181,7.181,7.1766,7.16,7.1854,7.181,7.1688,7.1898,7.1985,7.1985,7.1985,7.2115,7.2245,7.2245,7.2245,7.2245,7.2245,7.2115,7.1985,7.1985,7.2072,7.2124,7.2245,7.2115,7.1985,7.1898,7.1732,7.16,7.1512,7.1412,7.1312,7.1312,7.1312,7.1312,7.1312,7.1312,7.1312,7.1312,0.0,7.1312,7.1312,7.1312,7.1312,7.1312,7.1312,7.1312,7.1312,7.1312,7.1312,7.1312,7.1312,7.1312,7.1312,7.1312,7.1312,7.1312,7.1312,7.1312,7.1312,7.1312,7.1312,7.1312,7.1312,7.1312,7.1312,7.1312,7.1312,7.1312,7.1312,7.1312,7.1312,7.1312,7.1312,7.1401,7.2185,7.2624,7.2996,7.4527,7.5227,7.5478,7.7273,7.7273,7.7273,7.7273,7.7273,7.731,7.731,7.7186,7.7124,7.7092,7.7124,7.6436,7.4642,7.479,7.4075,7.183,7.1854,7.1766,7.1401,7.1356,7.1412,7.16,7.1457,7.1356,7.1356,7.1356,7.1412,7.1644,7.1644,7.1766,7.1985,7.1985,7.1854,7.1644,7.1644,7.1546,7.1356,7.1356,7.1457,7.16,7.16,7.1766,7.1985,7.1985,7.1985,7.1985,7.1985,7.1985,7.2029,7.2029,7.2029,7.2029,7.2029,7.1985,7.1985,7.1985,7.182,7.1688,7.1942,7.1985,7.1942,7.1688,7.16,7.1556,7.1356,7.1312,7.1312,7.1312,7.1312,7.1312,7.1312,7.1312,7.1312,7.1312,0.0,0.0,7.1312,7.1312,7.1312,7.1312,7.1312,7.1312,7.1312,7.1312,7.1312,7.1312,7.1312,7.1312,7.1312,7.1312,7.1312,7.1312,7.1312,7.1312,7.1312,7.1312,7.1312,7.1312,7.1312,7.1312,7.1312,7.1312,7.1312,7.1312,7.1312,7.1312,7.1312,7.1312,7.1312,7.1401,7.2185,7.2996,7.3799,7.4752,7.5584,7.6208,7.7273,7.7273,7.7273,7.7273,7.7273,7.7243,7.7186,7.7124,7.7092,7.7092,7.6998,7.6303,7.4755,7.5119,7.4604,7.2609,7.2483,7.2475,7.2305,7.1678,7.1356,7.1412,7.1356,7.1312,7.1312,7.1312,7.1356,7.1412,7.1412,7.1491,7.158,7.158,7.1535,7.1412,7.1412,7.1367,7.1312,7.1312,7.1356,7.1412,7.1412,7.1457,7.158,7.158,7.158,7.158,7.158,7.1634,7.1732,7.1732,7.1732,7.1732,7.1732,7.1678,7.158,7.158,7.1457,7.1412,7.1535,7.158,7.1535,7.1412,7.1412,7.1367,7.1312,7.1312,7.1312,7.1312,7.1312,7.1312,7.1312,7.1312,7.1312,7.1312,0.0,7.1312,7.1312,7.1312,7.1312,7.1312,7.1312,7.1312,7.1312,7.1312,7.1312,7.1312,7.1312,7.1312,7.1312,7.1312,7.1312,7.1312,7.1312,7.1312,7.1312,7.1312,7.1312,7.1312,7.1312,7.1312,7.1312,7.1312,7.1312,7.1312,7.1312,7.1312,7.1312,7.1312,7.1312,7.1412,7.2783,7.3522,7.3956,7.5335,7.6038,7.6275,7.7273,7.7273,7.7273,7.7273,7.7273,7.7243,7.7124,7.7092,7.7092,7.7029,7.6672,7.5929,7.4643,7.4753,7.4226,7.2525,7.2525,7.2525,7.2398,7.1722,7.1312,7.1312,7.1312,7.1312,7.1312,7.1312,7.1312,7.1312,7.1312,7.1312,7.1312,7.1312,7.1312,7.1312,7.1312,7.1312,7.1312,7.1312,7.1312,7.1312,7.1312,7.1312,7.1312,7.1312,7.1312,7.1312,7.1312,7.1367,7.1501,7.1501,7.1501,7.1501,7.1501,7.1412,7.1312,7.1312,7.1312,7.1312,7.1312,7.1312,7.1312,7.1312,7.1312,7.1312,7.1312,7.1312,7.1312,7.1312,7.1312,7.1312,7.1312,7.1312,7.1312,7.1312,7.1312,7.1312,7.1312,7.1312,7.1312,7.1312,7.1312,7.1312,7.1312,7.1312,7.1312,7.1312,7.1312,7.1312,7.1312,7.1312,7.1312,7.1312,7.1312,7.1312,7.1312,7.1312,7.1312,7.1312,7.1312,7.1312,7.1312,7.1312,7.1312,7.1312,7.1312,7.1312,7.1312,7.1312,7.1312,7.1457,7.3154,7.3799,7.3994,7.5654,7.6275,7.6275,7.7273,7.7273,7.7273,7.7273,7.7273,7.7243,7.7124,7.7092,7.7029,7.6801,7.6102,7.5227,7.4191,7.3527,7.2624,7.1412,7.1756,7.181,7.1312,7.1312,7.1312,7.1312,7.1312,7.1312,7.1312,7.1312,7.1312,7.1312,7.1312,7.1312,7.1312,7.1312,7.1312,7.1312,7.1312,7.1312,7.1312,7.1312,7.1312,7.1312,7.1312,7.1312,7.1312,7.1312,7.1312,7.1312,7.1312,7.1312,7.1312,7.1312,7.1312,7.1312,7.1312,7.1312,7.1312,7.1312,7.1312,7.1312,7.1312,7.1312,7.1312,7.1312,7.1312,7.1312,7.1312,7.1312,7.1312,7.1312,7.1312,7.1312,7.1312,7.1312,7.1312,7.1312,7.1312,7.1312,7.1312,7.1312,7.1312,7.1312,7.1312,7.1312,7.1312,7.1312,7.1312,7.1312,7.1312,7.1312,7.1312,7.1312,7.1312,7.1312,7.1312,7.1312,7.1312,7.1312,7.1312,7.1312,7.1312,7.1312,7.1312,7.1312,7.1312,7.1312,7.1312,7.1312,7.1312,7.1312,7.1312,7.1457,7.3154,7.3799,7.3994,7.5654,7.6275,7.6311,7.7273,7.7273,7.7273,7.7273,7.7273,7.7243,7.7124,7.6998,7.6737,7.6236,7.5618,7.4753,7.3527,7.4117,7.4229,7.3154,7.3281,7.2866,7.1401,7.1312,7.1312,7.1312,7.1312,7.1312,7.1312,7.1312,7.1312,7.1312,7.1312,7.1312,7.1312,7.1312,7.1312,7.1312,7.1312,7.1312,7.1312,7.1312,7.1312,7.1312,7.1312,7.1312,7.1312,7.1312,7.1312,7.1312,7.1312,7.1312,7.1312,7.1312,7.1312,7.1312,7.1312,7.1312,7.1312,7.1312,7.1312,7.1312,7.1312,7.1312,7.1312,7.1312,7.1312,7.1312,7.1312,7.1312,7.1312,7.1312,7.1312,7.1312,7.1312,7.1312,7.1312,7.1312,7.1312,7.1312,7.1312,7.1312,7.1312,7.1312,7.1312,7.1312,7.1312,7.1312,7.1312,7.1312,7.1312,7.1312,7.1312,7.1312,7.1312,7.1312,7.1312,7.1312,7.1312,7.1312,7.1312,7.1312,7.1312,7.1312,7.1312,7.1312,7.1312,7.1312,7.1312,7.1312,7.1312,7.1312,7.1312,7.1457,7.3154,7.3799,7.3994,7.5654,7.6637,7.7144,7.7273,7.7273,7.7273,7.7273,7.7273,7.7243,7.7124,7.7061,7.6834,7.6303,7.537,7.4604,7.4001,7.4079,7.4075,7.3838,7.3602,7.3037,7.2004,7.1546,7.1312,7.1312,7.1312,7.1312,7.1312,7.1312,7.1312,7.1312,7.1312,7.1312,7.1312,7.1312,7.1312,7.1312,7.1312,7.1312,7.1312,7.1312,7.1312,7.1312,7.1312,7.1312,7.1312,7.1312,7.1312,7.1312,7.1312,7.1312,7.1312,7.1312,7.1312,7.1312,7.1312,7.1312,7.1312,7.1312,7.1312,7.1312,7.1312,7.1312,7.1312,7.1312,7.1312,7.1312,7.1312,7.1312,7.1312,7.1312,7.1312,7.1312,7.1312,7.1312,7.1312,7.1312,7.1312,7.1312,7.1312,7.1312,7.1312,7.1312,7.1312,7.1312,7.1312,7.1312,7.1312,7.1312,7.1312,7.1312,7.1312,7.1312,7.1312,7.1312,7.1312,7.1312,7.1312,7.1312,7.1312,7.1312,7.1312,7.1312,7.1312,7.1312,7.1312,7.1312,7.1312,7.1312,7.1312,7.1312,7.1501,7.1917,7.3241,7.4206,7.495,7.6298,7.7289,7.7977,7.7273,7.7273,7.7273,7.7273,7.7273,7.7243,7.7124,7.7217,7.7118,7.6769,7.537,7.4608,7.5156,7.3764,7.3078,7.3838,7.32,7.2783,7.2866,7.1951,7.1401,7.1312,7.1312,7.1312,7.1312,7.1312,7.1312,7.1312,7.1312,7.1312,7.1312,7.1312,7.1312,7.1312,7.1312,7.1312,7.1312,7.1312,7.1312,7.1312,7.1312,7.1312,7.1312,7.1312,7.1312,7.1312,7.1312,7.1312,7.1312,7.1312,7.1312,7.1312,7.1312,7.1312,7.1312,7.1312,7.1312,7.1312,7.1312,7.1312,7.1312,7.1312,7.1312,7.1312,7.1312,7.1312,7.1312,7.1312,7.1312,7.1312,7.1312,7.1312,7.1312,7.1312,7.1312,7.1312,7.1312,7.1312,7.1312,7.1312,7.1312,7.1312,7.1312,7.1312,7.1312,7.1312,7.1312,7.1312,7.1312,7.1312,7.1312,7.1312,7.1312,7.1312,7.1312,7.1312,7.1312,7.1312,7.1312,7.1312,7.1312,7.1312,7.1345,7.1413,7.1413,7.1492,7.1615,7.1615,7.2078,7.2915,7.3772,7.5051,7.6477,7.7303,7.8122,7.881,7.7273,7.7273,7.7273,7.7273,7.7273,7.7243,7.7124,7.6961,7.67,7.6169,7.5512,7.4975,7.4606,7.4792,7.4901,7.4826,7.464,7.3956,7.27,7.2364,7.196,7.1312,7.1312,7.1312,7.1312,7.1312,7.1312,7.1312,7.1312,7.1312,7.1312,7.1312,7.1312,7.1312,7.1312,7.1312,7.1312,7.1312,7.1312,7.1312,7.1312,7.1312,7.1312,7.1312,7.1312,7.1312,7.1312,7.1312,7.1312,7.1312,7.1312,7.1312,7.1312,7.1312,7.1312,7.1312,7.1312,7.1312,7.1312,7.1312,7.1312,7.1312,7.1312,7.1312,7.1312,7.1312,7.1312,7.1312,7.1312,7.1312,7.1312,7.1312,7.1312,7.1312,7.1312,7.1312,7.1312,7.1312,7.1312,7.1312,7.1312,7.1312,7.1312,7.1312,7.1312,7.1312,7.1312,7.1312,7.1312,7.1312,7.1312,7.1312,7.1312,7.1312,7.1312,7.1312,7.1312,7.1312,7.1312,7.1312,7.1312,7.1312,7.1616,7.2157,7.2157,7.288,7.4066,7.4066,7.4591,7.5504,7.6296,7.6861,7.7264,7.8097,7.8955,7.9752,7.7273,7.7273,7.7273,7.7273,7.7273,7.731,7.7217,7.7087,7.6897,7.6538,7.5927,7.5511,7.5547,7.5477,7.5512,7.5655,7.5299,7.4715,7.3799,7.2955,7.2279,7.1873,7.1873,7.1688,7.1312,7.1688,7.1688,7.1312,7.1312,7.1312,7.1312,7.1312,7.1312,7.1312,7.1312,7.1312,7.1312,7.1312,7.1312,7.1312,7.1312,7.1312,7.1312,7.1312,7.1312,7.1312,7.1312,7.1312,7.1312,7.1312,7.1312,7.1312,7.1312,7.1312,7.1312,7.1312,7.1312,7.1312,7.1312,7.1312,7.1312,7.1312,7.1312,7.1312,7.1312,7.1312,7.1312,7.1312,7.1312,7.1312,7.1312,7.1312,7.1312,7.1312,7.1312,7.1312,7.1312,7.1312,7.1312,7.1312,7.1312,7.1312,7.1312,7.1312,7.1312,7.1312,7.1312,7.1312,7.1312,7.1312,7.1312,7.1312,7.1312,7.1312,7.1312,7.1312,7.1312,7.1312,7.1312,7.1312,7.1312,7.1312,7.1718,7.2394,7.2394,7.3085,7.4193,7.46,7.5296,7.6238,7.7062,7.7913,7.8639,7.9105,7.9788,8.0549,7.7273,7.7273,7.7273,7.7273,7.7273,7.7273,7.7273,7.7273,7.7248,7.7155,7.6432,7.6164,7.6737,7.6034,7.5722,7.6242,7.5725,7.5263,7.5118,7.376,7.279,7.2533,7.2624,7.227,7.1312,7.2099,7.2099,7.1312,7.1312,7.1312,7.1312,7.1312,7.1312,7.1312,7.1312,7.1312,7.1312,7.1312,7.1312,7.1312,7.1312,7.1312,7.1312,7.1312,7.1312,7.1312,7.1312,7.1312,7.1312,7.1312,7.1312,7.1312,7.1312,7.1312,7.1312,7.1312,7.1312,7.1312,7.1312,7.1312,7.1312,7.1312,7.1312,7.1312,7.1312,7.1312,7.1312,7.1312,7.1312,7.1312,7.1312,7.1312,7.1312,7.1312,7.1312,7.1312,7.1312,7.1312,7.1312,7.1312,7.1312,7.1312,7.1312,7.1312,7.1312,7.1312,7.1312,7.1312,7.1312,7.1312,7.1312,7.1312,7.1312,7.1312,7.1312,7.1312,7.1312,7.1312,7.1412,7.1501,7.1501,7.1678,7.2209,7.3027,7.3027,7.3593,7.4648,7.5327,7.6174,7.7024,7.7756,7.889,8.0114,8.0114,8.0549,8.1128,7.7273,7.7273,7.7273,7.7273,7.7273,7.7273,7.7273,7.7217,7.7155,7.7279,7.6929,7.6668,7.6801,7.6578,7.6412,7.6309,7.6378,7.6038,7.5155,7.4898,7.4072,7.2575,7.32,7.2908,7.1356,7.2099,7.2099,7.1312,7.1312,7.1312,7.1312,7.1312,7.1312,7.1312,7.1312,7.1312,7.1312,7.1312,7.1312,7.1312,7.1312,7.1312,7.1312,7.1312,7.1312,7.1312,7.1312,7.1312,7.1312,7.1312,7.1312,7.1312,7.1312,7.1312,7.1312,7.1312,7.1312,7.1312,7.1312,7.1312,7.1312,7.1312,7.1312,7.1312,7.1312,7.1312,7.1312,7.1312,7.1312,7.1312,7.1312,7.1312,7.1312,7.1312,7.1312,7.1312,7.1312,7.1312,7.1312,7.1312,7.1312,7.1312,7.1312,7.1312,7.1312,7.1312,7.1312,7.1312,7.1312,7.1312,7.1312,7.1312,7.1312,7.1312,7.1312,7.1312,7.1312,7.1312,7.2004,7.2321,7.2364,7.3119,7.4211,7.5615,7.5615,7.6865,7.8966,7.9084,7.9625,8.0442,8.0515,8.0731,8.0947,8.0947,8.102,8.1128,7.7273,7.7273,7.7273,7.7273,7.7273,7.7273,7.7273,7.7279,7.7217,7.7186,7.7061,7.6897,7.6801,7.6676,7.6512,7.6345,7.6378,7.6242,7.5795,7.5335,7.4752,7.3994,7.4338,7.3721,7.2004,7.2825,7.2575,7.1312,7.1312,7.1312,7.1312,7.1312,7.1312,7.1312,7.1312,7.1312,7.1312,7.1312,7.1312,7.1312,7.1312,7.1312,7.1312,7.1312,7.1312,7.1312,7.1312,7.1312,7.1312,7.1312,7.1312,7.1312,7.1312,7.1312,7.1312,7.1312,7.1312,7.1312,7.1312,7.1312,7.1312,7.1312,7.1312,7.1312,7.1312,7.1312,7.1312,7.1312,7.1312,7.1312,7.1312,7.1312,7.1312,7.1312,7.1312,7.1312,7.1312,7.1312,7.1312,7.1312,7.1312,7.1312,7.1312,7.1312,7.1312,7.1312,7.1312,7.1312,7.1312,7.1312,7.1312,7.1312,7.1312,7.1312,7.1312,7.1312,7.1546,7.2004,7.2825,7.2955,7.2533,7.3402,7.4642,7.6081,7.6081,7.7238,7.9049,7.9562,8.0023,8.0363,8.0912,8.1128,8.1128,8.1128,8.1128,8.1128]}]]